<?xml version="1.0" encoding="UTF-8"?><gpx version="1.1" xmlns:xsd="http://www.w3.org/2001/XMLSchema" xmlns:xsi="http://www.w3.org/2001/XMLSchema-instance" creator="Magellan, Inc. All Rights Reserved. http://www.magellangps.com" xsi:schemaLocation="http://www.topografix.com/GPX/1/1 http://www.topografix.com/GPX/1/1/gpx.xsd http://www.magellangps.com/mgnext/0/2 http://www.magellangps.com/mgnext/0/2/mgn.xsd http://www.groundspeak.com/cache/1/0 http://www.groundspeak.com/cache/1/0/cache.xsd" xmlns="http://www.topografix.com/GPX/1/1">
<trk>
    <name>cleghorn all offshoots</name>
    <desc></desc>
    <extensions>
      <mgn:extensions xmlns:mgn="http://www.magellangps.com/mgnext/0/2">
        <mgn:difficulty>3</mgn:difficulty>
        <mgn:rating>5</mgn:rating>
        <mgn:uuid>e1d96b6f-8f7e-4bfc-8eda-60bad058a636</mgn:uuid>
        <mgn:proplist>
          <mgn:prop key="Vehicle">3860</mgn:prop>
          <mgn:prop key="WD">Must</mgn:prop>
          <mgn:prop key="LO">Some</mgn:prop>
          <mgn:prop key="DIRT">Rutted</mgn:prop>
          <mgn:prop key="T_MUD"></mgn:prop>
          <mgn:prop key="T_SAND"></mgn:prop>
          <mgn:prop key="T_SNOW"></mgn:prop>
          <mgn:prop key="T_ROCK">6-12A</mgn:prop>
          <mgn:prop key="T_WATER"></mgn:prop>
          <mgn:prop key="PITCH">20-30</mgn:prop>
          <mgn:prop key="ROLL">20-30</mgn:prop>
          <mgn:prop key="Author">NotARubicon</mgn:prop>
          <mgn:prop key="MinElevation">1063</mgn:prop>
          <mgn:prop key="MaxElevation">1615</mgn:prop>
          <mgn:prop key="MAGELLAN_OFFROAD_KEY">0</mgn:prop>
          <mgn:prop key="InstagramUpdate">True</mgn:prop>
          <mgn:prop key="ElevationChange">-141.10156</mgn:prop>
          <mgn:prop key="RecordedTime">12305</mgn:prop>
          <mgn:prop key="Length">17849.219</mgn:prop>
        </mgn:proplist>
      </mgn:extensions>
    </extensions>

    <trkseg>
      <trkpt lat="34.321909" lon="-117.428133">
        <ele>1205.000000</ele>
        <time>2017-11-05T01:27:30Z</time>
      </trkpt>
      <trkpt lat="34.321657" lon="-117.428391">
        <ele>1208.500000</ele>
        <time>2017-11-05T01:27:35Z</time>
      </trkpt>
      <trkpt lat="34.321594" lon="-117.428462">
        <ele>1208.398438</ele>
        <time>2017-11-05T01:27:36Z</time>
      </trkpt>
      <trkpt lat="34.321398" lon="-117.428646">
        <ele>1207.898438</ele>
        <time>2017-11-05T01:27:39Z</time>
      </trkpt>
      <trkpt lat="34.321189" lon="-117.428849">
        <ele>1208.597656</ele>
        <time>2017-11-05T01:27:42Z</time>
      </trkpt>
      <trkpt lat="34.321144" lon="-117.428943">
        <ele>1209.000000</ele>
        <time>2017-11-05T01:27:43Z</time>
      </trkpt>
      <trkpt lat="34.320964" lon="-117.429299">
        <ele>1211.296875</ele>
        <time>2017-11-05T01:27:48Z</time>
      </trkpt>
      <trkpt lat="34.320946" lon="-117.429343">
        <ele>1212.000000</ele>
        <time>2017-11-05T01:27:50Z</time>
      </trkpt>
      <trkpt lat="34.320937" lon="-117.429449">
        <ele>1212.000000</ele>
        <time>2017-11-05T01:27:51Z</time>
      </trkpt>
      <trkpt lat="34.320937" lon="-117.429507">
        <ele>1212.000000</ele>
        <time>2017-11-05T01:27:52Z</time>
      </trkpt>
      <trkpt lat="34.320946" lon="-117.429601">
        <ele>1211.898438</ele>
        <time>2017-11-05T01:27:53Z</time>
      </trkpt>
      <trkpt lat="34.320946" lon="-117.429672">
        <ele>1211.796875</ele>
        <time>2017-11-05T01:27:54Z</time>
      </trkpt>
      <trkpt lat="34.320955" lon="-117.429725">
        <ele>1211.898438</ele>
        <time>2017-11-05T01:27:56Z</time>
      </trkpt>
      <trkpt lat="34.321144" lon="-117.429813">
        <ele>1211.796875</ele>
        <time>2017-11-05T01:27:57Z</time>
      </trkpt>
      <trkpt lat="34.321153" lon="-117.429848">
        <ele>1212.000000</ele>
        <time>2017-11-05T01:27:59Z</time>
      </trkpt>
      <trkpt lat="34.320964" lon="-117.429942">
        <ele>1211.898438</ele>
        <time>2017-11-05T01:28:00Z</time>
      </trkpt>
      <trkpt lat="34.320969" lon="-117.429983">
        <ele>1212.000000</ele>
        <time>2017-11-05T01:28:01Z</time>
      </trkpt>
      <trkpt lat="34.320964" lon="-117.430283">
        <ele>1212.097656</ele>
        <time>2017-11-05T01:28:02Z</time>
      </trkpt>
      <trkpt lat="34.320955" lon="-117.430306">
        <ele>1213.296875</ele>
        <time>2017-11-05T01:28:05Z</time>
      </trkpt>
      <trkpt lat="34.320913" lon="-117.430394">
        <ele>1213.500000</ele>
        <time>2017-11-05T01:28:06Z</time>
      </trkpt>
      <trkpt lat="34.321036" lon="-117.43006">
        <ele>1213.296875</ele>
        <time>2017-11-05T01:28:07Z</time>
      </trkpt>
      <trkpt lat="34.321009" lon="-117.430048">
        <ele>1213.097656</ele>
        <time>2017-11-05T01:28:10Z</time>
      </trkpt>
      <trkpt lat="34.320968" lon="-117.429965">
        <ele>1213.000000</ele>
        <time>2017-11-05T01:28:12Z</time>
      </trkpt>
      <trkpt lat="34.320973" lon="-117.429895">
        <ele>1210.898438</ele>
        <time>2017-11-05T01:28:31Z</time>
      </trkpt>
      <trkpt lat="34.320973" lon="-117.429895">
        <ele>1210.898438</ele>
        <time>2017-11-05T01:28:31Z</time>
      </trkpt>
    </trkseg>
    <trkseg>
      <trkpt lat="34.320946" lon="-117.429449">
        <ele>1212.000000</ele>
        <time>2017-11-05T02:14:22Z</time>
      </trkpt>
      <trkpt lat="34.320946" lon="-117.429331">
        <ele>1211.597656</ele>
        <time>2017-11-05T02:14:27Z</time>
      </trkpt>
      <trkpt lat="34.320964" lon="-117.429308">
        <ele>1211.597656</ele>
        <time>2017-11-05T02:14:30Z</time>
      </trkpt>
      <trkpt lat="34.321018" lon="-117.42919">
        <ele>1211.296875</ele>
        <time>2017-11-05T02:14:31Z</time>
      </trkpt>
      <trkpt lat="34.320811" lon="-117.429519">
        <ele>1210.699219</ele>
        <time>2017-11-05T02:14:32Z</time>
      </trkpt>
      <trkpt lat="34.320946" lon="-117.429554">
        <ele>1210.199219</ele>
        <time>2017-11-05T02:14:33Z</time>
      </trkpt>
      <trkpt lat="34.320946" lon="-117.429496">
        <ele>1209.699219</ele>
        <time>2017-11-05T02:14:34Z</time>
      </trkpt>
      <trkpt lat="34.32094" lon="-117.429432">
        <ele>1209.398438</ele>
        <time>2017-11-05T02:14:35Z</time>
      </trkpt>
      <trkpt lat="34.320739" lon="-117.429731">
        <ele>1208.796875</ele>
        <time>2017-11-05T02:14:36Z</time>
      </trkpt>
      <trkpt lat="34.320955" lon="-117.429801">
        <ele>1208.199219</ele>
        <time>2017-11-05T02:14:37Z</time>
      </trkpt>
      <trkpt lat="34.320955" lon="-117.42986">
        <ele>1207.597656</ele>
        <time>2017-11-05T02:14:38Z</time>
      </trkpt>
      <trkpt lat="34.320966" lon="-117.429924">
        <ele>1206.796875</ele>
        <time>2017-11-05T02:14:40Z</time>
      </trkpt>
      <trkpt lat="34.320964" lon="-117.429977">
        <ele>1206.500000</ele>
        <time>2017-11-05T02:14:41Z</time>
      </trkpt>
      <trkpt lat="34.320676" lon="-117.43006">
        <ele>1206.199219</ele>
        <time>2017-11-05T02:14:43Z</time>
      </trkpt>
      <trkpt lat="34.320973" lon="-117.430107">
        <ele>1206.000000</ele>
        <time>2017-11-05T02:14:44Z</time>
      </trkpt>
      <trkpt lat="34.32064" lon="-117.430165">
        <ele>1206.097656</ele>
        <time>2017-11-05T02:14:45Z</time>
      </trkpt>
      <trkpt lat="34.320622" lon="-117.430189">
        <ele>1205.398438</ele>
        <time>2017-11-05T02:14:48Z</time>
      </trkpt>
      <trkpt lat="34.32055" lon="-117.430259">
        <ele>1205.097656</ele>
        <time>2017-11-05T02:14:49Z</time>
      </trkpt>
      <trkpt lat="34.320514" lon="-117.430271">
        <ele>1204.699219</ele>
        <time>2017-11-05T02:14:51Z</time>
      </trkpt>
      <trkpt lat="34.320451" lon="-117.430271">
        <ele>1204.199219</ele>
        <time>2017-11-05T02:14:53Z</time>
      </trkpt>
      <trkpt lat="34.320073" lon="-117.430271">
        <ele>1203.898438</ele>
        <time>2017-11-05T02:14:55Z</time>
      </trkpt>
      <trkpt lat="34.320082" lon="-117.430306">
        <ele>1201.796875</ele>
        <time>2017-11-05T02:15:00Z</time>
      </trkpt>
      <trkpt lat="34.319965" lon="-117.430212">
        <ele>1201.398438</ele>
        <time>2017-11-05T02:15:01Z</time>
      </trkpt>
      <trkpt lat="34.319929" lon="-117.430189">
        <ele>1200.796875</ele>
        <time>2017-11-05T02:15:03Z</time>
      </trkpt>
      <trkpt lat="34.319866" lon="-117.430153">
        <ele>1200.500000</ele>
        <time>2017-11-05T02:15:04Z</time>
      </trkpt>
      <trkpt lat="34.320118" lon="-117.430424">
        <ele>1200.199219</ele>
        <time>2017-11-05T02:15:05Z</time>
      </trkpt>
      <trkpt lat="34.320109" lon="-117.430471">
        <ele>1198.898438</ele>
        <time>2017-11-05T02:15:10Z</time>
      </trkpt>
      <trkpt lat="34.320078" lon="-117.430314">
        <ele>1198.699219</ele>
        <time>2017-11-05T02:15:11Z</time>
      </trkpt>
      <trkpt lat="34.32019" lon="-117.430682">
        <ele>1198.097656</ele>
        <time>2017-11-05T02:15:12Z</time>
      </trkpt>
      <trkpt lat="34.320208" lon="-117.430706">
        <ele>1197.597656</ele>
        <time>2017-11-05T02:15:14Z</time>
      </trkpt>
      <trkpt lat="34.3201" lon="-117.430482">
        <ele>1197.398438</ele>
        <time>2017-11-05T02:15:15Z</time>
      </trkpt>
      <trkpt lat="34.320096" lon="-117.430454">
        <ele>1197.199219</ele>
        <time>2017-11-05T02:15:16Z</time>
      </trkpt>
      <trkpt lat="34.32028" lon="-117.4308">
        <ele>1197.398438</ele>
        <time>2017-11-05T02:15:17Z</time>
      </trkpt>
      <trkpt lat="34.320289" lon="-117.430823">
        <ele>1198.500000</ele>
        <time>2017-11-05T02:15:21Z</time>
      </trkpt>
      <trkpt lat="34.320289" lon="-117.430941">
        <ele>1198.597656</ele>
        <time>2017-11-05T02:15:22Z</time>
      </trkpt>
      <trkpt lat="34.32028" lon="-117.430964">
        <ele>1197.898438</ele>
        <time>2017-11-05T02:15:25Z</time>
      </trkpt>
      <trkpt lat="34.320217" lon="-117.431023">
        <ele>1197.398438</ele>
        <time>2017-11-05T02:15:26Z</time>
      </trkpt>
      <trkpt lat="34.32019" lon="-117.431035">
        <ele>1196.500000</ele>
        <time>2017-11-05T02:15:29Z</time>
      </trkpt>
      <trkpt lat="34.320109" lon="-117.431058">
        <ele>1195.796875</ele>
        <time>2017-11-05T02:15:30Z</time>
      </trkpt>
      <trkpt lat="34.320082" lon="-117.431058">
        <ele>1194.796875</ele>
        <time>2017-11-05T02:15:33Z</time>
      </trkpt>
      <trkpt lat="34.319992" lon="-117.431082">
        <ele>1194.398438</ele>
        <time>2017-11-05T02:15:34Z</time>
      </trkpt>
      <trkpt lat="34.319965" lon="-117.431093">
        <ele>1193.796875</ele>
        <time>2017-11-05T02:15:36Z</time>
      </trkpt>
      <trkpt lat="34.319677" lon="-117.430929">
        <ele>1193.597656</ele>
        <time>2017-11-05T02:15:37Z</time>
      </trkpt>
      <trkpt lat="34.319687" lon="-117.430905">
        <ele>1192.898438</ele>
        <time>2017-11-05T02:15:39Z</time>
      </trkpt>
      <trkpt lat="34.319884" lon="-117.431199">
        <ele>1192.500000</ele>
        <time>2017-11-05T02:15:40Z</time>
      </trkpt>
      <trkpt lat="34.319875" lon="-117.431223">
        <ele>1191.796875</ele>
        <time>2017-11-05T02:15:44Z</time>
      </trkpt>
      <trkpt lat="34.319821" lon="-117.431305">
        <ele>1191.500000</ele>
        <time>2017-11-05T02:15:45Z</time>
      </trkpt>
      <trkpt lat="34.319794" lon="-117.431317">
        <ele>1190.597656</ele>
        <time>2017-11-05T02:15:47Z</time>
      </trkpt>
      <trkpt lat="34.319605" lon="-117.43154">
        <ele>1190.296875</ele>
        <time>2017-11-05T02:15:48Z</time>
      </trkpt>
      <trkpt lat="34.319623" lon="-117.431563">
        <ele>1189.597656</ele>
        <time>2017-11-05T02:15:51Z</time>
      </trkpt>
      <trkpt lat="34.319605" lon="-117.431234">
        <ele>1189.296875</ele>
        <time>2017-11-05T02:15:52Z</time>
      </trkpt>
      <trkpt lat="34.319578" lon="-117.431211">
        <ele>1189.199219</ele>
        <time>2017-11-05T02:15:53Z</time>
      </trkpt>
      <trkpt lat="34.319443" lon="-117.431422">
        <ele>1189.000000</ele>
        <time>2017-11-05T02:15:54Z</time>
      </trkpt>
      <trkpt lat="34.319416" lon="-117.431399">
        <ele>1189.097656</ele>
        <time>2017-11-05T02:15:56Z</time>
      </trkpt>
      <trkpt lat="34.319326" lon="-117.431328">
        <ele>1188.000000</ele>
        <time>2017-11-05T02:15:58Z</time>
      </trkpt>
      <trkpt lat="34.319308" lon="-117.431317">
        <ele>1187.398438</ele>
        <time>2017-11-05T02:16:01Z</time>
      </trkpt>
      <trkpt lat="34.319235" lon="-117.431257">
        <ele>1187.398438</ele>
        <time>2017-11-05T02:16:02Z</time>
      </trkpt>
      <trkpt lat="34.319218" lon="-117.431234">
        <ele>1186.500000</ele>
        <time>2017-11-05T02:16:04Z</time>
      </trkpt>
      <trkpt lat="34.319164" lon="-117.431164">
        <ele>1186.296875</ele>
        <time>2017-11-05T02:16:05Z</time>
      </trkpt>
      <trkpt lat="34.319308" lon="-117.430811">
        <ele>1185.597656</ele>
        <time>2017-11-05T02:16:07Z</time>
      </trkpt>
      <trkpt lat="34.319071" lon="-117.431091">
        <ele>1185.199219</ele>
        <time>2017-11-05T02:16:08Z</time>
      </trkpt>
      <trkpt lat="34.319029" lon="-117.431093">
        <ele>1185.500000</ele>
        <time>2017-11-05T02:16:09Z</time>
      </trkpt>
      <trkpt lat="34.319155" lon="-117.430753">
        <ele>1185.296875</ele>
        <time>2017-11-05T02:16:10Z</time>
      </trkpt>
      <trkpt lat="34.319119" lon="-117.430741">
        <ele>1184.898438</ele>
        <time>2017-11-05T02:16:12Z</time>
      </trkpt>
      <trkpt lat="34.319155" lon="-117.430518">
        <ele>1184.699219</ele>
        <time>2017-11-05T02:16:13Z</time>
      </trkpt>
      <trkpt lat="34.319128" lon="-117.430506">
        <ele>1184.097656</ele>
        <time>2017-11-05T02:16:15Z</time>
      </trkpt>
      <trkpt lat="34.319065" lon="-117.430447">
        <ele>1183.796875</ele>
        <time>2017-11-05T02:16:16Z</time>
      </trkpt>
      <trkpt lat="34.319029" lon="-117.430424">
        <ele>1182.597656</ele>
        <time>2017-11-05T02:16:18Z</time>
      </trkpt>
      <trkpt lat="34.318966" lon="-117.430365">
        <ele>1181.597656</ele>
        <time>2017-11-05T02:16:20Z</time>
      </trkpt>
      <trkpt lat="34.318939" lon="-117.430353">
        <ele>1180.699219</ele>
        <time>2017-11-05T02:16:22Z</time>
      </trkpt>
      <trkpt lat="34.318876" lon="-117.430306">
        <ele>1180.296875</ele>
        <time>2017-11-05T02:16:23Z</time>
      </trkpt>
      <trkpt lat="34.31884" lon="-117.430306">
        <ele>1179.898438</ele>
        <time>2017-11-05T02:16:25Z</time>
      </trkpt>
      <trkpt lat="34.318761" lon="-117.430333">
        <ele>1180.199219</ele>
        <time>2017-11-05T02:16:26Z</time>
      </trkpt>
      <trkpt lat="34.318732" lon="-117.43033">
        <ele>1180.199219</ele>
        <time>2017-11-05T02:16:28Z</time>
      </trkpt>
      <trkpt lat="34.318669" lon="-117.430353">
        <ele>1180.199219</ele>
        <time>2017-11-05T02:16:29Z</time>
      </trkpt>
      <trkpt lat="34.318639" lon="-117.430359">
        <ele>1180.500000</ele>
        <time>2017-11-05T02:16:32Z</time>
      </trkpt>
      <trkpt lat="34.31857" lon="-117.430306">
        <ele>1180.398438</ele>
        <time>2017-11-05T02:16:33Z</time>
      </trkpt>
      <trkpt lat="34.318543" lon="-117.430283">
        <ele>1179.500000</ele>
        <time>2017-11-05T02:16:35Z</time>
      </trkpt>
      <trkpt lat="34.318491" lon="-117.430218">
        <ele>1179.398438</ele>
        <time>2017-11-05T02:16:36Z</time>
      </trkpt>
      <trkpt lat="34.318462" lon="-117.430189">
        <ele>1179.000000</ele>
        <time>2017-11-05T02:16:38Z</time>
      </trkpt>
      <trkpt lat="34.318417" lon="-117.43013">
        <ele>1178.796875</ele>
        <time>2017-11-05T02:16:39Z</time>
      </trkpt>
      <trkpt lat="34.318318" lon="-117.430165">
        <ele>1178.699219</ele>
        <time>2017-11-05T02:16:40Z</time>
      </trkpt>
      <trkpt lat="34.318282" lon="-117.430177">
        <ele>1178.199219</ele>
        <time>2017-11-05T02:16:42Z</time>
      </trkpt>
      <trkpt lat="34.31822" lon="-117.430226">
        <ele>1177.699219</ele>
        <time>2017-11-05T02:16:43Z</time>
      </trkpt>
      <trkpt lat="34.318192" lon="-117.430247">
        <ele>1177.500000</ele>
        <time>2017-11-05T02:16:45Z</time>
      </trkpt>
      <trkpt lat="34.318147" lon="-117.430306">
        <ele>1177.597656</ele>
        <time>2017-11-05T02:16:46Z</time>
      </trkpt>
      <trkpt lat="34.318057" lon="-117.4304">
        <ele>1177.699219</ele>
        <time>2017-11-05T02:16:47Z</time>
      </trkpt>
      <trkpt lat="34.318246" lon="-117.430717">
        <ele>1177.296875</ele>
        <time>2017-11-05T02:16:48Z</time>
      </trkpt>
      <trkpt lat="34.318246" lon="-117.430753">
        <ele>1175.796875</ele>
        <time>2017-11-05T02:16:51Z</time>
      </trkpt>
      <trkpt lat="34.318264" lon="-117.430858">
        <ele>1175.796875</ele>
        <time>2017-11-05T02:16:52Z</time>
      </trkpt>
      <trkpt lat="34.318264" lon="-117.430905">
        <ele>1174.898438</ele>
        <time>2017-11-05T02:16:55Z</time>
      </trkpt>
      <trkpt lat="34.318219" lon="-117.430999">
        <ele>1174.500000</ele>
        <time>2017-11-05T02:16:56Z</time>
      </trkpt>
      <trkpt lat="34.318192" lon="-117.431023">
        <ele>1174.199219</ele>
        <time>2017-11-05T02:16:57Z</time>
      </trkpt>
      <trkpt lat="34.318291" lon="-117.431375">
        <ele>1174.500000</ele>
        <time>2017-11-05T02:16:58Z</time>
      </trkpt>
      <trkpt lat="34.318324" lon="-117.431359">
        <ele>1174.199219</ele>
        <time>2017-11-05T02:16:59Z</time>
      </trkpt>
      <trkpt lat="34.318093" lon="-117.43107">
        <ele>1174.296875</ele>
        <time>2017-11-05T02:17:00Z</time>
      </trkpt>
      <trkpt lat="34.318066" lon="-117.43107">
        <ele>1173.898438</ele>
        <time>2017-11-05T02:17:02Z</time>
      </trkpt>
      <trkpt lat="34.318003" lon="-117.431082">
        <ele>1173.796875</ele>
        <time>2017-11-05T02:17:03Z</time>
      </trkpt>
      <trkpt lat="34.317976" lon="-117.431082">
        <ele>1173.398438</ele>
        <time>2017-11-05T02:17:05Z</time>
      </trkpt>
      <trkpt lat="34.317688" lon="-117.430999">
        <ele>1173.199219</ele>
        <time>2017-11-05T02:17:06Z</time>
      </trkpt>
      <trkpt lat="34.317689" lon="-117.430972">
        <ele>1172.699219</ele>
        <time>2017-11-05T02:17:08Z</time>
      </trkpt>
      <trkpt lat="34.317697" lon="-117.430882">
        <ele>1172.097656</ele>
        <time>2017-11-05T02:17:09Z</time>
      </trkpt>
      <trkpt lat="34.317643" lon="-117.431152">
        <ele>1170.796875</ele>
        <time>2017-11-05T02:17:10Z</time>
      </trkpt>
      <trkpt lat="34.317616" lon="-117.431187">
        <ele>1170.097656</ele>
        <time>2017-11-05T02:17:11Z</time>
      </trkpt>
      <trkpt lat="34.31757" lon="-117.431216">
        <ele>1169.097656</ele>
        <time>2017-11-05T02:17:13Z</time>
      </trkpt>
      <trkpt lat="34.31749" lon="-117.431258">
        <ele>1168.796875</ele>
        <time>2017-11-05T02:17:14Z</time>
      </trkpt>
      <trkpt lat="34.31776" lon="-117.431458">
        <ele>1168.500000</ele>
        <time>2017-11-05T02:17:15Z</time>
      </trkpt>
      <trkpt lat="34.317625" lon="-117.431187">
        <ele>1168.000000</ele>
        <time>2017-11-05T02:17:17Z</time>
      </trkpt>
      <trkpt lat="34.317454" lon="-117.431552">
        <ele>1167.699219</ele>
        <time>2017-11-05T02:17:18Z</time>
      </trkpt>
      <trkpt lat="34.317913" lon="-117.431693">
        <ele>1167.500000</ele>
        <time>2017-11-05T02:17:19Z</time>
      </trkpt>
      <trkpt lat="34.317805" lon="-117.431881">
        <ele>1167.296875</ele>
        <time>2017-11-05T02:17:20Z</time>
      </trkpt>
      <trkpt lat="34.317817" lon="-117.431858">
        <ele>1166.398438</ele>
        <time>2017-11-05T02:17:23Z</time>
      </trkpt>
      <trkpt lat="34.317868" lon="-117.431763">
        <ele>1166.097656</ele>
        <time>2017-11-05T02:17:24Z</time>
      </trkpt>
      <trkpt lat="34.317751" lon="-117.431951">
        <ele>1165.699219</ele>
        <time>2017-11-05T02:17:25Z</time>
      </trkpt>
      <trkpt lat="34.31773" lon="-117.431975">
        <ele>1164.699219</ele>
        <time>2017-11-05T02:17:28Z</time>
      </trkpt>
      <trkpt lat="34.317652" lon="-117.432069">
        <ele>1164.097656</ele>
        <time>2017-11-05T02:17:30Z</time>
      </trkpt>
      <trkpt lat="34.317643" lon="-117.432092">
        <ele>1163.597656</ele>
        <time>2017-11-05T02:17:34Z</time>
      </trkpt>
      <trkpt lat="34.31759" lon="-117.432153">
        <ele>1163.398438</ele>
        <time>2017-11-05T02:17:35Z</time>
      </trkpt>
      <trkpt lat="34.317571" lon="-117.432174">
        <ele>1162.597656</ele>
        <time>2017-11-05T02:17:39Z</time>
      </trkpt>
      <trkpt lat="34.317505" lon="-117.432261">
        <ele>1162.500000</ele>
        <time>2017-11-05T02:17:41Z</time>
      </trkpt>
      <trkpt lat="34.317499" lon="-117.43228">
        <ele>1163.597656</ele>
        <time>2017-11-05T02:17:44Z</time>
      </trkpt>
      <trkpt lat="34.317301" lon="-117.432233">
        <ele>1164.000000</ele>
        <time>2017-11-05T02:17:45Z</time>
      </trkpt>
      <trkpt lat="34.317256" lon="-117.43228">
        <ele>1164.398438</ele>
        <time>2017-11-05T02:17:46Z</time>
      </trkpt>
      <trkpt lat="34.317225" lon="-117.432317">
        <ele>1165.199219</ele>
        <time>2017-11-05T02:17:48Z</time>
      </trkpt>
      <trkpt lat="34.317148" lon="-117.432362">
        <ele>1165.597656</ele>
        <time>2017-11-05T02:17:49Z</time>
      </trkpt>
      <trkpt lat="34.317111" lon="-117.432381">
        <ele>1166.796875</ele>
        <time>2017-11-05T02:17:52Z</time>
      </trkpt>
      <trkpt lat="34.317076" lon="-117.432503">
        <ele>1167.000000</ele>
        <time>2017-11-05T02:17:53Z</time>
      </trkpt>
      <trkpt lat="34.317049" lon="-117.432621">
        <ele>1167.500000</ele>
        <time>2017-11-05T02:17:55Z</time>
      </trkpt>
      <trkpt lat="34.317046" lon="-117.432679">
        <ele>1167.398438</ele>
        <time>2017-11-05T02:17:56Z</time>
      </trkpt>
      <trkpt lat="34.317049" lon="-117.432809">
        <ele>1168.097656</ele>
        <time>2017-11-05T02:17:58Z</time>
      </trkpt>
      <trkpt lat="34.31704" lon="-117.432867">
        <ele>1168.296875</ele>
        <time>2017-11-05T02:17:59Z</time>
      </trkpt>
      <trkpt lat="34.316986" lon="-117.432903">
        <ele>1168.597656</ele>
        <time>2017-11-05T02:18:00Z</time>
      </trkpt>
      <trkpt lat="34.316884" lon="-117.432985">
        <ele>1169.398438</ele>
        <time>2017-11-05T02:18:02Z</time>
      </trkpt>
      <trkpt lat="34.316941" lon="-117.433091">
        <ele>1169.898438</ele>
        <time>2017-11-05T02:18:03Z</time>
      </trkpt>
      <trkpt lat="34.31691" lon="-117.433131">
        <ele>1170.699219</ele>
        <time>2017-11-05T02:18:05Z</time>
      </trkpt>
      <trkpt lat="34.316446" lon="-117.433737">
        <ele>1172.000000</ele>
        <time>2017-11-05T02:18:21Z</time>
      </trkpt>
      <trkpt lat="34.316416" lon="-117.433764">
        <ele>1172.000000</ele>
        <time>2017-11-05T02:18:23Z</time>
      </trkpt>
      <trkpt lat="34.316365" lon="-117.433819">
        <ele>1172.097656</ele>
        <time>2017-11-05T02:18:24Z</time>
      </trkpt>
      <trkpt lat="34.316338" lon="-117.433854">
        <ele>1172.500000</ele>
        <time>2017-11-05T02:18:26Z</time>
      </trkpt>
      <trkpt lat="34.316275" lon="-117.433913">
        <ele>1172.898438</ele>
        <time>2017-11-05T02:18:27Z</time>
      </trkpt>
      <trkpt lat="34.316246" lon="-117.433951">
        <ele>1173.398438</ele>
        <time>2017-11-05T02:18:29Z</time>
      </trkpt>
      <trkpt lat="34.316194" lon="-117.434007">
        <ele>1173.398438</ele>
        <time>2017-11-05T02:18:30Z</time>
      </trkpt>
      <trkpt lat="34.316158" lon="-117.434042">
        <ele>1173.500000</ele>
        <time>2017-11-05T02:18:32Z</time>
      </trkpt>
      <trkpt lat="34.316095" lon="-117.434113">
        <ele>1173.597656</ele>
        <time>2017-11-05T02:18:33Z</time>
      </trkpt>
      <trkpt lat="34.316059" lon="-117.43416">
        <ele>1173.500000</ele>
        <time>2017-11-05T02:18:34Z</time>
      </trkpt>
      <trkpt lat="34.316021" lon="-117.434197">
        <ele>1173.597656</ele>
        <time>2017-11-05T02:18:35Z</time>
      </trkpt>
      <trkpt lat="34.315978" lon="-117.434242">
        <ele>1173.699219</ele>
        <time>2017-11-05T02:18:36Z</time>
      </trkpt>
      <trkpt lat="34.315942" lon="-117.434289">
        <ele>1173.796875</ele>
        <time>2017-11-05T02:18:37Z</time>
      </trkpt>
      <trkpt lat="34.315901" lon="-117.434328">
        <ele>1173.898438</ele>
        <time>2017-11-05T02:18:38Z</time>
      </trkpt>
      <trkpt lat="34.315717" lon="-117.434524">
        <ele>1173.898438</ele>
        <time>2017-11-05T02:18:44Z</time>
      </trkpt>
      <trkpt lat="34.315689" lon="-117.434562">
        <ele>1173.296875</ele>
        <time>2017-11-05T02:18:46Z</time>
      </trkpt>
      <trkpt lat="34.315654" lon="-117.434647">
        <ele>1173.296875</ele>
        <time>2017-11-05T02:18:47Z</time>
      </trkpt>
      <trkpt lat="34.315636" lon="-117.4347">
        <ele>1173.296875</ele>
        <time>2017-11-05T02:18:49Z</time>
      </trkpt>
      <trkpt lat="34.315591" lon="-117.434853">
        <ele>1173.500000</ele>
        <time>2017-11-05T02:18:51Z</time>
      </trkpt>
      <trkpt lat="34.315568" lon="-117.434899">
        <ele>1173.500000</ele>
        <time>2017-11-05T02:18:52Z</time>
      </trkpt>
      <trkpt lat="34.315546" lon="-117.434959">
        <ele>1173.597656</ele>
        <time>2017-11-05T02:18:53Z</time>
      </trkpt>
      <trkpt lat="34.315438" lon="-117.435276">
        <ele>1175.000000</ele>
        <time>2017-11-05T02:18:59Z</time>
      </trkpt>
      <trkpt lat="34.315393" lon="-117.435405">
        <ele>1175.699219</ele>
        <time>2017-11-05T02:19:02Z</time>
      </trkpt>
      <trkpt lat="34.315312" lon="-117.435605">
        <ele>1175.500000</ele>
        <time>2017-11-05T02:19:07Z</time>
      </trkpt>
      <trkpt lat="34.315294" lon="-117.43564">
        <ele>1176.097656</ele>
        <time>2017-11-05T02:19:09Z</time>
      </trkpt>
      <trkpt lat="34.315249" lon="-117.435734">
        <ele>1176.597656</ele>
        <time>2017-11-05T02:19:10Z</time>
      </trkpt>
      <trkpt lat="34.315232" lon="-117.435784">
        <ele>1177.398438</ele>
        <time>2017-11-05T02:19:12Z</time>
      </trkpt>
      <trkpt lat="34.315203" lon="-117.435865">
        <ele>1177.796875</ele>
        <time>2017-11-05T02:19:13Z</time>
      </trkpt>
      <trkpt lat="34.315204" lon="-117.43591">
        <ele>1178.500000</ele>
        <time>2017-11-05T02:19:15Z</time>
      </trkpt>
      <trkpt lat="34.315204" lon="-117.436016">
        <ele>1178.597656</ele>
        <time>2017-11-05T02:19:16Z</time>
      </trkpt>
      <trkpt lat="34.315194" lon="-117.436061">
        <ele>1179.000000</ele>
        <time>2017-11-05T02:19:18Z</time>
      </trkpt>
      <trkpt lat="34.315195" lon="-117.436157">
        <ele>1179.296875</ele>
        <time>2017-11-05T02:19:19Z</time>
      </trkpt>
      <trkpt lat="34.315187" lon="-117.436218">
        <ele>1179.296875</ele>
        <time>2017-11-05T02:19:20Z</time>
      </trkpt>
      <trkpt lat="34.315168" lon="-117.436263">
        <ele>1179.597656</ele>
        <time>2017-11-05T02:19:22Z</time>
      </trkpt>
      <trkpt lat="34.315096" lon="-117.43631">
        <ele>1179.398438</ele>
        <time>2017-11-05T02:19:23Z</time>
      </trkpt>
      <trkpt lat="34.315008" lon="-117.436381">
        <ele>1180.097656</ele>
        <time>2017-11-05T02:19:26Z</time>
      </trkpt>
      <trkpt lat="34.314988" lon="-117.436392">
        <ele>1180.699219</ele>
        <time>2017-11-05T02:19:29Z</time>
      </trkpt>
      <trkpt lat="34.314907" lon="-117.436463">
        <ele>1181.199219</ele>
        <time>2017-11-05T02:19:30Z</time>
      </trkpt>
      <trkpt lat="34.314882" lon="-117.436494">
        <ele>1182.097656</ele>
        <time>2017-11-05T02:19:33Z</time>
      </trkpt>
      <trkpt lat="34.314826" lon="-117.436545">
        <ele>1182.398438</ele>
        <time>2017-11-05T02:19:34Z</time>
      </trkpt>
      <trkpt lat="34.314799" lon="-117.43658">
        <ele>1183.097656</ele>
        <time>2017-11-05T02:19:36Z</time>
      </trkpt>
      <trkpt lat="34.314727" lon="-117.436651">
        <ele>1183.398438</ele>
        <time>2017-11-05T02:19:37Z</time>
      </trkpt>
      <trkpt lat="34.314493" lon="-117.436885">
        <ele>1184.699219</ele>
        <time>2017-11-05T02:19:43Z</time>
      </trkpt>
      <trkpt lat="34.314456" lon="-117.43691">
        <ele>1185.898438</ele>
        <time>2017-11-05T02:19:46Z</time>
      </trkpt>
      <trkpt lat="34.314376" lon="-117.436968">
        <ele>1187.199219</ele>
        <time>2017-11-05T02:19:48Z</time>
      </trkpt>
      <trkpt lat="34.314232" lon="-117.437062">
        <ele>1189.796875</ele>
        <time>2017-11-05T02:19:52Z</time>
      </trkpt>
      <trkpt lat="34.314205" lon="-117.437087">
        <ele>1191.199219</ele>
        <time>2017-11-05T02:19:54Z</time>
      </trkpt>
      <trkpt lat="34.314124" lon="-117.437144">
        <ele>1191.500000</ele>
        <time>2017-11-05T02:19:55Z</time>
      </trkpt>
      <trkpt lat="34.313899" lon="-117.437308">
        <ele>1192.398438</ele>
        <time>2017-11-05T02:20:00Z</time>
      </trkpt>
      <trkpt lat="34.313836" lon="-117.437426">
        <ele>1192.500000</ele>
        <time>2017-11-05T02:20:01Z</time>
      </trkpt>
      <trkpt lat="34.313728" lon="-117.437626">
        <ele>1192.199219</ele>
        <time>2017-11-05T02:20:05Z</time>
      </trkpt>
      <trkpt lat="34.313701" lon="-117.437673">
        <ele>1192.199219</ele>
        <time>2017-11-05T02:20:07Z</time>
      </trkpt>
      <trkpt lat="34.313656" lon="-117.437755">
        <ele>1192.199219</ele>
        <time>2017-11-05T02:20:08Z</time>
      </trkpt>
      <trkpt lat="34.313602" lon="-117.437849">
        <ele>1191.796875</ele>
        <time>2017-11-05T02:20:12Z</time>
      </trkpt>
      <trkpt lat="34.313584" lon="-117.437872">
        <ele>1191.796875</ele>
        <time>2017-11-05T02:20:25Z</time>
      </trkpt>
      <trkpt lat="34.313517" lon="-117.4379">
        <ele>1191.500000</ele>
        <time>2017-11-05T02:20:27Z</time>
      </trkpt>
      <trkpt lat="34.313485" lon="-117.437908">
        <ele>1191.199219</ele>
        <time>2017-11-05T02:20:30Z</time>
      </trkpt>
      <trkpt lat="34.313422" lon="-117.437931">
        <ele>1190.898438</ele>
        <time>2017-11-05T02:20:32Z</time>
      </trkpt>
      <trkpt lat="34.313386" lon="-117.437955">
        <ele>1190.898438</ele>
        <time>2017-11-05T02:20:34Z</time>
      </trkpt>
      <trkpt lat="34.313332" lon="-117.437978">
        <ele>1191.000000</ele>
        <time>2017-11-05T02:20:36Z</time>
      </trkpt>
      <trkpt lat="34.313296" lon="-117.43799">
        <ele>1191.796875</ele>
        <time>2017-11-05T02:21:07Z</time>
      </trkpt>
      <trkpt lat="34.313183" lon="-117.438037">
        <ele>1191.500000</ele>
        <time>2017-11-05T02:21:10Z</time>
      </trkpt>
      <trkpt lat="34.313161" lon="-117.438037">
        <ele>1191.500000</ele>
        <time>2017-11-05T02:21:13Z</time>
      </trkpt>
      <trkpt lat="34.31272" lon="-117.438037">
        <ele>1191.097656</ele>
        <time>2017-11-05T02:21:23Z</time>
      </trkpt>
      <trkpt lat="34.312684" lon="-117.438049">
        <ele>1191.500000</ele>
        <time>2017-11-05T02:21:25Z</time>
      </trkpt>
      <trkpt lat="34.312603" lon="-117.438049">
        <ele>1191.699219</ele>
        <time>2017-11-05T02:21:26Z</time>
      </trkpt>
      <trkpt lat="34.312574" lon="-117.438057">
        <ele>1191.898438</ele>
        <time>2017-11-05T02:21:28Z</time>
      </trkpt>
      <trkpt lat="34.312504" lon="-117.43806">
        <ele>1192.199219</ele>
        <time>2017-11-05T02:21:29Z</time>
      </trkpt>
      <trkpt lat="34.312387" lon="-117.43806">
        <ele>1193.097656</ele>
        <time>2017-11-05T02:21:34Z</time>
      </trkpt>
      <trkpt lat="34.312364" lon="-117.438071">
        <ele>1193.699219</ele>
        <time>2017-11-05T02:21:38Z</time>
      </trkpt>
      <trkpt lat="34.312306" lon="-117.438119">
        <ele>1194.097656</ele>
        <time>2017-11-05T02:21:40Z</time>
      </trkpt>
      <trkpt lat="34.312288" lon="-117.438154">
        <ele>1194.000000</ele>
        <time>2017-11-05T02:21:43Z</time>
      </trkpt>
      <trkpt lat="34.312216" lon="-117.438143">
        <ele>1193.597656</ele>
        <time>2017-11-05T02:21:46Z</time>
      </trkpt>
      <trkpt lat="34.312225" lon="-117.438049">
        <ele>1194.097656</ele>
        <time>2017-11-05T02:21:47Z</time>
      </trkpt>
      <trkpt lat="34.312233" lon="-117.438024">
        <ele>1194.898438</ele>
        <time>2017-11-05T02:21:51Z</time>
      </trkpt>
      <trkpt lat="34.312245" lon="-117.437936">
        <ele>1195.000000</ele>
        <time>2017-11-05T02:21:52Z</time>
      </trkpt>
      <trkpt lat="34.312252" lon="-117.437896">
        <ele>1195.296875</ele>
        <time>2017-11-05T02:21:54Z</time>
      </trkpt>
      <trkpt lat="34.312279" lon="-117.437825">
        <ele>1195.199219</ele>
        <time>2017-11-05T02:21:56Z</time>
      </trkpt>
      <trkpt lat="34.312324" lon="-117.43779">
        <ele>1195.597656</ele>
        <time>2017-11-05T02:21:58Z</time>
      </trkpt>
      <trkpt lat="34.312378" lon="-117.437743">
        <ele>1195.898438</ele>
        <time>2017-11-05T02:21:59Z</time>
      </trkpt>
      <trkpt lat="34.312477" lon="-117.437673">
        <ele>1195.597656</ele>
        <time>2017-11-05T02:22:02Z</time>
      </trkpt>
      <trkpt lat="34.312513" lon="-117.437637">
        <ele>1196.097656</ele>
        <time>2017-11-05T02:22:04Z</time>
      </trkpt>
      <trkpt lat="34.312684" lon="-117.437508">
        <ele>1197.097656</ele>
        <time>2017-11-05T02:22:07Z</time>
      </trkpt>
      <trkpt lat="34.312717" lon="-117.437476">
        <ele>1197.097656</ele>
        <time>2017-11-05T02:22:08Z</time>
      </trkpt>
      <trkpt lat="34.312747" lon="-117.437426">
        <ele>1197.296875</ele>
        <time>2017-11-05T02:22:09Z</time>
      </trkpt>
      <trkpt lat="34.312774" lon="-117.437367">
        <ele>1197.699219</ele>
        <time>2017-11-05T02:22:10Z</time>
      </trkpt>
      <trkpt lat="34.312792" lon="-117.437308">
        <ele>1198.097656</ele>
        <time>2017-11-05T02:22:11Z</time>
      </trkpt>
      <trkpt lat="34.312819" lon="-117.43725">
        <ele>1198.597656</ele>
        <time>2017-11-05T02:22:12Z</time>
      </trkpt>
      <trkpt lat="34.312837" lon="-117.437191">
        <ele>1198.898438</ele>
        <time>2017-11-05T02:22:13Z</time>
      </trkpt>
      <trkpt lat="34.312886" lon="-117.437021">
        <ele>1200.597656</ele>
        <time>2017-11-05T02:22:16Z</time>
      </trkpt>
      <trkpt lat="34.312891" lon="-117.436979">
        <ele>1200.796875</ele>
        <time>2017-11-05T02:22:18Z</time>
      </trkpt>
      <trkpt lat="34.312954" lon="-117.436909">
        <ele>1201.597656</ele>
        <time>2017-11-05T02:22:19Z</time>
      </trkpt>
      <trkpt lat="34.313008" lon="-117.436885">
        <ele>1201.796875</ele>
        <time>2017-11-05T02:22:20Z</time>
      </trkpt>
      <trkpt lat="34.313053" lon="-117.436885">
        <ele>1202.097656</ele>
        <time>2017-11-05T02:22:21Z</time>
      </trkpt>
      <trkpt lat="34.313152" lon="-117.436885">
        <ele>1202.398438</ele>
        <time>2017-11-05T02:22:23Z</time>
      </trkpt>
      <trkpt lat="34.31319" lon="-117.436879">
        <ele>1203.097656</ele>
        <time>2017-11-05T02:22:25Z</time>
      </trkpt>
      <trkpt lat="34.31327" lon="-117.436843">
        <ele>1203.398438</ele>
        <time>2017-11-05T02:22:26Z</time>
      </trkpt>
      <trkpt lat="34.313314" lon="-117.436827">
        <ele>1204.296875</ele>
        <time>2017-11-05T02:22:28Z</time>
      </trkpt>
      <trkpt lat="34.313341" lon="-117.436733">
        <ele>1205.097656</ele>
        <time>2017-11-05T02:22:29Z</time>
      </trkpt>
      <trkpt lat="34.313359" lon="-117.436674">
        <ele>1205.898438</ele>
        <time>2017-11-05T02:22:30Z</time>
      </trkpt>
      <trkpt lat="34.313368" lon="-117.436604">
        <ele>1206.796875</ele>
        <time>2017-11-05T02:22:31Z</time>
      </trkpt>
      <trkpt lat="34.313386" lon="-117.43655">
        <ele>1207.898438</ele>
        <time>2017-11-05T02:22:32Z</time>
      </trkpt>
      <trkpt lat="34.313413" lon="-117.436427">
        <ele>1209.097656</ele>
        <time>2017-11-05T02:22:34Z</time>
      </trkpt>
      <trkpt lat="34.313422" lon="-117.436369">
        <ele>1209.597656</ele>
        <time>2017-11-05T02:22:35Z</time>
      </trkpt>
      <trkpt lat="34.313413" lon="-117.436298">
        <ele>1210.296875</ele>
        <time>2017-11-05T02:22:36Z</time>
      </trkpt>
      <trkpt lat="34.313404" lon="-117.436239">
        <ele>1210.796875</ele>
        <time>2017-11-05T02:22:37Z</time>
      </trkpt>
      <trkpt lat="34.313386" lon="-117.436181">
        <ele>1211.199219</ele>
        <time>2017-11-05T02:22:38Z</time>
      </trkpt>
      <trkpt lat="34.313377" lon="-117.43611">
        <ele>1211.199219</ele>
        <time>2017-11-05T02:22:39Z</time>
      </trkpt>
      <trkpt lat="34.313373" lon="-117.436053">
        <ele>1211.898438</ele>
        <time>2017-11-05T02:22:41Z</time>
      </trkpt>
      <trkpt lat="34.313377" lon="-117.435993">
        <ele>1212.097656</ele>
        <time>2017-11-05T02:22:43Z</time>
      </trkpt>
      <trkpt lat="34.313431" lon="-117.435934">
        <ele>1212.296875</ele>
        <time>2017-11-05T02:22:44Z</time>
      </trkpt>
      <trkpt lat="34.313503" lon="-117.435863">
        <ele>1212.699219</ele>
        <time>2017-11-05T02:22:46Z</time>
      </trkpt>
      <trkpt lat="34.31353" lon="-117.435828">
        <ele>1212.898438</ele>
        <time>2017-11-05T02:22:47Z</time>
      </trkpt>
      <trkpt lat="34.313578" lon="-117.435781">
        <ele>1213.597656</ele>
        <time>2017-11-05T02:22:48Z</time>
      </trkpt>
      <trkpt lat="34.313917" lon="-117.43544">
        <ele>1218.000000</ele>
        <time>2017-11-05T02:22:58Z</time>
      </trkpt>
      <trkpt lat="34.313953" lon="-117.435417">
        <ele>1218.699219</ele>
        <time>2017-11-05T02:23:00Z</time>
      </trkpt>
      <trkpt lat="34.314025" lon="-117.435358">
        <ele>1219.199219</ele>
        <time>2017-11-05T02:23:01Z</time>
      </trkpt>
      <trkpt lat="34.314079" lon="-117.435323">
        <ele>1219.500000</ele>
        <time>2017-11-05T02:23:02Z</time>
      </trkpt>
      <trkpt lat="34.314106" lon="-117.435276">
        <ele>1219.699219</ele>
        <time>2017-11-05T02:23:03Z</time>
      </trkpt>
      <trkpt lat="34.314187" lon="-117.435135">
        <ele>1221.296875</ele>
        <time>2017-11-05T02:23:06Z</time>
      </trkpt>
      <trkpt lat="34.314196" lon="-117.435088">
        <ele>1221.898438</ele>
        <time>2017-11-05T02:23:08Z</time>
      </trkpt>
      <trkpt lat="34.314223" lon="-117.434982">
        <ele>1221.898438</ele>
        <time>2017-11-05T02:23:09Z</time>
      </trkpt>
      <trkpt lat="34.314205" lon="-117.434935">
        <ele>1221.398438</ele>
        <time>2017-11-05T02:23:11Z</time>
      </trkpt>
      <trkpt lat="34.31416" lon="-117.434865">
        <ele>1221.398438</ele>
        <time>2017-11-05T02:23:12Z</time>
      </trkpt>
      <trkpt lat="34.314124" lon="-117.434853">
        <ele>1221.796875</ele>
        <time>2017-11-05T02:23:14Z</time>
      </trkpt>
      <trkpt lat="34.314052" lon="-117.434841">
        <ele>1222.000000</ele>
        <time>2017-11-05T02:23:15Z</time>
      </trkpt>
      <trkpt lat="34.314025" lon="-117.434829">
        <ele>1222.000000</ele>
        <time>2017-11-05T02:23:19Z</time>
      </trkpt>
      <trkpt lat="34.313953" lon="-117.434806">
        <ele>1222.000000</ele>
        <time>2017-11-05T02:23:21Z</time>
      </trkpt>
      <trkpt lat="34.313935" lon="-117.434771">
        <ele>1222.000000</ele>
        <time>2017-11-05T02:23:25Z</time>
      </trkpt>
      <trkpt lat="34.31389" lon="-117.4347">
        <ele>1222.199219</ele>
        <time>2017-11-05T02:23:27Z</time>
      </trkpt>
      <trkpt lat="34.31389" lon="-117.434665">
        <ele>1223.398438</ele>
        <time>2017-11-05T02:23:30Z</time>
      </trkpt>
      <trkpt lat="34.31389" lon="-117.434524">
        <ele>1224.500000</ele>
        <time>2017-11-05T02:23:33Z</time>
      </trkpt>
      <trkpt lat="34.313887" lon="-117.434489">
        <ele>1225.500000</ele>
        <time>2017-11-05T02:23:36Z</time>
      </trkpt>
      <trkpt lat="34.31389" lon="-117.434336">
        <ele>1225.898438</ele>
        <time>2017-11-05T02:23:38Z</time>
      </trkpt>
      <trkpt lat="34.313884" lon="-117.434285">
        <ele>1226.500000</ele>
        <time>2017-11-05T02:23:40Z</time>
      </trkpt>
      <trkpt lat="34.31389" lon="-117.434195">
        <ele>1227.000000</ele>
        <time>2017-11-05T02:23:41Z</time>
      </trkpt>
      <trkpt lat="34.313882" lon="-117.434136">
        <ele>1228.000000</ele>
        <time>2017-11-05T02:23:43Z</time>
      </trkpt>
      <trkpt lat="34.31389" lon="-117.434054">
        <ele>1228.296875</ele>
        <time>2017-11-05T02:23:44Z</time>
      </trkpt>
      <trkpt lat="34.31389" lon="-117.434007">
        <ele>1228.796875</ele>
        <time>2017-11-05T02:23:46Z</time>
      </trkpt>
      <trkpt lat="34.313899" lon="-117.433913">
        <ele>1229.000000</ele>
        <time>2017-11-05T02:23:47Z</time>
      </trkpt>
      <trkpt lat="34.313917" lon="-117.433866">
        <ele>1229.699219</ele>
        <time>2017-11-05T02:23:49Z</time>
      </trkpt>
      <trkpt lat="34.313971" lon="-117.43369">
        <ele>1230.500000</ele>
        <time>2017-11-05T02:23:52Z</time>
      </trkpt>
      <trkpt lat="34.31398" lon="-117.433643">
        <ele>1230.898438</ele>
        <time>2017-11-05T02:23:54Z</time>
      </trkpt>
      <trkpt lat="34.313962" lon="-117.433549">
        <ele>1231.097656</ele>
        <time>2017-11-05T02:23:55Z</time>
      </trkpt>
      <trkpt lat="34.313917" lon="-117.433314">
        <ele>1231.097656</ele>
        <time>2017-11-05T02:24:00Z</time>
      </trkpt>
      <trkpt lat="34.313937" lon="-117.433279">
        <ele>1232.199219</ele>
        <time>2017-11-05T02:24:02Z</time>
      </trkpt>
      <trkpt lat="34.314014" lon="-117.433117">
        <ele>1233.500000</ele>
        <time>2017-11-05T02:24:05Z</time>
      </trkpt>
      <trkpt lat="34.314034" lon="-117.433091">
        <ele>1234.199219</ele>
        <time>2017-11-05T02:24:07Z</time>
      </trkpt>
      <trkpt lat="34.314088" lon="-117.433044">
        <ele>1234.199219</ele>
        <time>2017-11-05T02:24:08Z</time>
      </trkpt>
      <trkpt lat="34.31411" lon="-117.433011">
        <ele>1234.699219</ele>
        <time>2017-11-05T02:24:10Z</time>
      </trkpt>
      <trkpt lat="34.314187" lon="-117.432985">
        <ele>1234.796875</ele>
        <time>2017-11-05T02:24:11Z</time>
      </trkpt>
      <trkpt lat="34.314232" lon="-117.432985">
        <ele>1235.398438</ele>
        <time>2017-11-05T02:24:13Z</time>
      </trkpt>
      <trkpt lat="34.314313" lon="-117.432961">
        <ele>1235.699219</ele>
        <time>2017-11-05T02:24:14Z</time>
      </trkpt>
      <trkpt lat="34.314349" lon="-117.432961">
        <ele>1236.097656</ele>
        <time>2017-11-05T02:24:16Z</time>
      </trkpt>
      <trkpt lat="34.31443" lon="-117.432938">
        <ele>1236.199219</ele>
        <time>2017-11-05T02:24:17Z</time>
      </trkpt>
      <trkpt lat="34.314466" lon="-117.432903">
        <ele>1236.296875</ele>
        <time>2017-11-05T02:24:18Z</time>
      </trkpt>
      <trkpt lat="34.314493" lon="-117.432856">
        <ele>1236.398438</ele>
        <time>2017-11-05T02:24:19Z</time>
      </trkpt>
      <trkpt lat="34.314709" lon="-117.432491">
        <ele>1238.699219</ele>
        <time>2017-11-05T02:24:26Z</time>
      </trkpt>
      <trkpt lat="34.314744" lon="-117.432462">
        <ele>1239.500000</ele>
        <time>2017-11-05T02:24:28Z</time>
      </trkpt>
      <trkpt lat="34.314826" lon="-117.432409">
        <ele>1239.898438</ele>
        <time>2017-11-05T02:24:29Z</time>
      </trkpt>
      <trkpt lat="34.314991" lon="-117.432297">
        <ele>1241.898438</ele>
        <time>2017-11-05T02:24:33Z</time>
      </trkpt>
      <trkpt lat="34.315123" lon="-117.43221">
        <ele>1242.898438</ele>
        <time>2017-11-05T02:24:36Z</time>
      </trkpt>
      <trkpt lat="34.315138" lon="-117.43216">
        <ele>1243.597656</ele>
        <time>2017-11-05T02:24:38Z</time>
      </trkpt>
      <trkpt lat="34.315168" lon="-117.432069">
        <ele>1244.097656</ele>
        <time>2017-11-05T02:24:39Z</time>
      </trkpt>
      <trkpt lat="34.315154" lon="-117.432017">
        <ele>1244.398438</ele>
        <time>2017-11-05T02:24:41Z</time>
      </trkpt>
      <trkpt lat="34.315114" lon="-117.431928">
        <ele>1244.898438</ele>
        <time>2017-11-05T02:24:42Z</time>
      </trkpt>
      <trkpt lat="34.315085" lon="-117.431886">
        <ele>1245.398438</ele>
        <time>2017-11-05T02:24:44Z</time>
      </trkpt>
      <trkpt lat="34.315007" lon="-117.431887">
        <ele>1245.597656</ele>
        <time>2017-11-05T02:24:45Z</time>
      </trkpt>
      <trkpt lat="34.314961" lon="-117.431904">
        <ele>1245.796875</ele>
        <time>2017-11-05T02:24:46Z</time>
      </trkpt>
      <trkpt lat="34.314916" lon="-117.431916">
        <ele>1246.097656</ele>
        <time>2017-11-05T02:24:48Z</time>
      </trkpt>
      <trkpt lat="34.31486" lon="-117.431949">
        <ele>1247.097656</ele>
        <time>2017-11-05T02:24:50Z</time>
      </trkpt>
      <trkpt lat="34.314808" lon="-117.431963">
        <ele>1248.000000</ele>
        <time>2017-11-05T02:24:52Z</time>
      </trkpt>
      <trkpt lat="34.314745" lon="-117.431998">
        <ele>1248.398438</ele>
        <time>2017-11-05T02:24:53Z</time>
      </trkpt>
      <trkpt lat="34.3147" lon="-117.43201">
        <ele>1249.000000</ele>
        <time>2017-11-05T02:24:54Z</time>
      </trkpt>
      <trkpt lat="34.314601" lon="-117.432045">
        <ele>1250.699219</ele>
        <time>2017-11-05T02:24:56Z</time>
      </trkpt>
      <trkpt lat="34.314556" lon="-117.432045">
        <ele>1252.097656</ele>
        <time>2017-11-05T02:24:58Z</time>
      </trkpt>
      <trkpt lat="34.314484" lon="-117.432057">
        <ele>1252.500000</ele>
        <time>2017-11-05T02:24:59Z</time>
      </trkpt>
      <trkpt lat="34.314448" lon="-117.432069">
        <ele>1253.500000</ele>
        <time>2017-11-05T02:25:01Z</time>
      </trkpt>
      <trkpt lat="34.314368" lon="-117.432078">
        <ele>1253.898438</ele>
        <time>2017-11-05T02:25:02Z</time>
      </trkpt>
      <trkpt lat="34.314349" lon="-117.432092">
        <ele>1255.000000</ele>
        <time>2017-11-05T02:25:04Z</time>
      </trkpt>
      <trkpt lat="34.314196" lon="-117.432198">
        <ele>1256.597656</ele>
        <time>2017-11-05T02:25:09Z</time>
      </trkpt>
      <trkpt lat="34.31416" lon="-117.432233">
        <ele>1257.500000</ele>
        <time>2017-11-05T02:25:11Z</time>
      </trkpt>
      <trkpt lat="34.314079" lon="-117.432268">
        <ele>1258.097656</ele>
        <time>2017-11-05T02:25:12Z</time>
      </trkpt>
      <trkpt lat="34.314034" lon="-117.432292">
        <ele>1258.796875</ele>
        <time>2017-11-05T02:25:13Z</time>
      </trkpt>
      <trkpt lat="34.313989" lon="-117.432304">
        <ele>1259.597656</ele>
        <time>2017-11-05T02:25:14Z</time>
      </trkpt>
      <trkpt lat="34.313825" lon="-117.432334">
        <ele>1260.097656</ele>
        <time>2017-11-05T02:25:18Z</time>
      </trkpt>
      <trkpt lat="34.313773" lon="-117.432339">
        <ele>1260.597656</ele>
        <time>2017-11-05T02:25:19Z</time>
      </trkpt>
      <trkpt lat="34.313728" lon="-117.432339">
        <ele>1261.000000</ele>
        <time>2017-11-05T02:25:20Z</time>
      </trkpt>
      <trkpt lat="34.313683" lon="-117.432362">
        <ele>1261.500000</ele>
        <time>2017-11-05T02:25:21Z</time>
      </trkpt>
      <trkpt lat="34.313647" lon="-117.432397">
        <ele>1262.199219</ele>
        <time>2017-11-05T02:25:22Z</time>
      </trkpt>
      <trkpt lat="34.313575" lon="-117.432468">
        <ele>1263.699219</ele>
        <time>2017-11-05T02:25:24Z</time>
      </trkpt>
      <trkpt lat="34.313539" lon="-117.432491">
        <ele>1264.898438</ele>
        <time>2017-11-05T02:25:26Z</time>
      </trkpt>
      <trkpt lat="34.313476" lon="-117.432554">
        <ele>1265.398438</ele>
        <time>2017-11-05T02:25:27Z</time>
      </trkpt>
      <trkpt lat="34.313449" lon="-117.432574">
        <ele>1266.500000</ele>
        <time>2017-11-05T02:25:29Z</time>
      </trkpt>
      <trkpt lat="34.313314" lon="-117.432703">
        <ele>1268.699219</ele>
        <time>2017-11-05T02:25:32Z</time>
      </trkpt>
      <trkpt lat="34.31316" lon="-117.432843">
        <ele>1269.898438</ele>
        <time>2017-11-05T02:25:36Z</time>
      </trkpt>
      <trkpt lat="34.313125" lon="-117.432867">
        <ele>1270.699219</ele>
        <time>2017-11-05T02:25:38Z</time>
      </trkpt>
      <trkpt lat="34.313044" lon="-117.43295">
        <ele>1271.097656</ele>
        <time>2017-11-05T02:25:39Z</time>
      </trkpt>
      <trkpt lat="34.313014" lon="-117.432996">
        <ele>1271.500000</ele>
        <time>2017-11-05T02:25:40Z</time>
      </trkpt>
      <trkpt lat="34.31299" lon="-117.433044">
        <ele>1272.199219</ele>
        <time>2017-11-05T02:25:41Z</time>
      </trkpt>
      <trkpt lat="34.312886" lon="-117.4332">
        <ele>1273.898438</ele>
        <time>2017-11-05T02:25:44Z</time>
      </trkpt>
      <trkpt lat="34.312846" lon="-117.433232">
        <ele>1274.796875</ele>
        <time>2017-11-05T02:25:45Z</time>
      </trkpt>
      <trkpt lat="34.312801" lon="-117.433267">
        <ele>1275.500000</ele>
        <time>2017-11-05T02:25:46Z</time>
      </trkpt>
      <trkpt lat="34.312756" lon="-117.43329">
        <ele>1276.000000</ele>
        <time>2017-11-05T02:25:48Z</time>
      </trkpt>
      <trkpt lat="34.312693" lon="-117.433337">
        <ele>1275.796875</ele>
        <time>2017-11-05T02:25:49Z</time>
      </trkpt>
      <trkpt lat="34.312675" lon="-117.433384">
        <ele>1276.500000</ele>
        <time>2017-11-05T02:25:50Z</time>
      </trkpt>
      <trkpt lat="34.312657" lon="-117.433443">
        <ele>1277.000000</ele>
        <time>2017-11-05T02:25:51Z</time>
      </trkpt>
      <trkpt lat="34.312631" lon="-117.433489">
        <ele>1277.597656</ele>
        <time>2017-11-05T02:25:52Z</time>
      </trkpt>
      <trkpt lat="34.312612" lon="-117.433549">
        <ele>1277.898438</ele>
        <time>2017-11-05T02:25:53Z</time>
      </trkpt>
      <trkpt lat="34.312576" lon="-117.433584">
        <ele>1278.398438</ele>
        <time>2017-11-05T02:25:55Z</time>
      </trkpt>
      <trkpt lat="34.312495" lon="-117.433596">
        <ele>1278.500000</ele>
        <time>2017-11-05T02:25:56Z</time>
      </trkpt>
      <trkpt lat="34.31245" lon="-117.433596">
        <ele>1278.597656</ele>
        <time>2017-11-05T02:25:58Z</time>
      </trkpt>
      <trkpt lat="34.312369" lon="-117.433584">
        <ele>1278.398438</ele>
        <time>2017-11-05T02:25:59Z</time>
      </trkpt>
      <trkpt lat="34.312324" lon="-117.433584">
        <ele>1278.398438</ele>
        <time>2017-11-05T02:26:00Z</time>
      </trkpt>
      <trkpt lat="34.312279" lon="-117.433584">
        <ele>1278.597656</ele>
        <time>2017-11-05T02:26:02Z</time>
      </trkpt>
      <trkpt lat="34.312225" lon="-117.433572">
        <ele>1279.199219</ele>
        <time>2017-11-05T02:26:04Z</time>
      </trkpt>
      <trkpt lat="34.312153" lon="-117.433596">
        <ele>1279.699219</ele>
        <time>2017-11-05T02:26:05Z</time>
      </trkpt>
      <trkpt lat="34.312117" lon="-117.433596">
        <ele>1280.597656</ele>
        <time>2017-11-05T02:26:07Z</time>
      </trkpt>
      <trkpt lat="34.312036" lon="-117.433619">
        <ele>1280.796875</ele>
        <time>2017-11-05T02:26:08Z</time>
      </trkpt>
      <trkpt lat="34.312009" lon="-117.433619">
        <ele>1281.699219</ele>
        <time>2017-11-05T02:26:12Z</time>
      </trkpt>
      <trkpt lat="34.311937" lon="-117.433643">
        <ele>1282.097656</ele>
        <time>2017-11-05T02:26:13Z</time>
      </trkpt>
      <trkpt lat="34.31191" lon="-117.433655">
        <ele>1283.199219</ele>
        <time>2017-11-05T02:26:16Z</time>
      </trkpt>
      <trkpt lat="34.31182" lon="-117.433702">
        <ele>1283.296875</ele>
        <time>2017-11-05T02:26:18Z</time>
      </trkpt>
      <trkpt lat="34.311793" lon="-117.433713">
        <ele>1284.199219</ele>
        <time>2017-11-05T02:26:21Z</time>
      </trkpt>
      <trkpt lat="34.311712" lon="-117.433749">
        <ele>1284.597656</ele>
        <time>2017-11-05T02:26:22Z</time>
      </trkpt>
      <trkpt lat="34.311683" lon="-117.433737">
        <ele>1285.199219</ele>
        <time>2017-11-05T02:26:24Z</time>
      </trkpt>
      <trkpt lat="34.311622" lon="-117.433713">
        <ele>1285.898438</ele>
        <time>2017-11-05T02:26:26Z</time>
      </trkpt>
      <trkpt lat="34.311577" lon="-117.433655">
        <ele>1286.000000</ele>
        <time>2017-11-05T02:26:27Z</time>
      </trkpt>
      <trkpt lat="34.311514" lon="-117.433572">
        <ele>1286.699219</ele>
        <time>2017-11-05T02:26:29Z</time>
      </trkpt>
      <trkpt lat="34.311505" lon="-117.433521">
        <ele>1287.296875</ele>
        <time>2017-11-05T02:26:31Z</time>
      </trkpt>
      <trkpt lat="34.311496" lon="-117.43342">
        <ele>1287.199219</ele>
        <time>2017-11-05T02:26:32Z</time>
      </trkpt>
      <trkpt lat="34.31148" lon="-117.433374">
        <ele>1287.199219</ele>
        <time>2017-11-05T02:26:34Z</time>
      </trkpt>
      <trkpt lat="34.311469" lon="-117.433279">
        <ele>1287.500000</ele>
        <time>2017-11-05T02:26:35Z</time>
      </trkpt>
      <trkpt lat="34.311461" lon="-117.433232">
        <ele>1288.398438</ele>
        <time>2017-11-05T02:26:37Z</time>
      </trkpt>
      <trkpt lat="34.31146" lon="-117.433161">
        <ele>1288.796875</ele>
        <time>2017-11-05T02:26:38Z</time>
      </trkpt>
      <trkpt lat="34.31146" lon="-117.433114">
        <ele>1289.500000</ele>
        <time>2017-11-05T02:26:40Z</time>
      </trkpt>
      <trkpt lat="34.311478" lon="-117.433032">
        <ele>1289.796875</ele>
        <time>2017-11-05T02:26:41Z</time>
      </trkpt>
      <trkpt lat="34.311496" lon="-117.432985">
        <ele>1290.500000</ele>
        <time>2017-11-05T02:26:43Z</time>
      </trkpt>
      <trkpt lat="34.311559" lon="-117.432809">
        <ele>1291.500000</ele>
        <time>2017-11-05T02:26:46Z</time>
      </trkpt>
      <trkpt lat="34.311606" lon="-117.432678">
        <ele>1291.597656</ele>
        <time>2017-11-05T02:26:49Z</time>
      </trkpt>
      <trkpt lat="34.311604" lon="-117.432668">
        <ele>1292.199219</ele>
        <time>2017-11-05T02:26:57Z</time>
      </trkpt>
      <trkpt lat="34.31164" lon="-117.432562">
        <ele>1292.398438</ele>
        <time>2017-11-05T02:26:58Z</time>
      </trkpt>
      <trkpt lat="34.311652" lon="-117.432545">
        <ele>1292.699219</ele>
        <time>2017-11-05T02:27:02Z</time>
      </trkpt>
      <trkpt lat="34.31168" lon="-117.432463">
        <ele>1292.796875</ele>
        <time>2017-11-05T02:27:03Z</time>
      </trkpt>
      <trkpt lat="34.311694" lon="-117.432421">
        <ele>1293.296875</ele>
        <time>2017-11-05T02:27:06Z</time>
      </trkpt>
      <trkpt lat="34.311685" lon="-117.432315">
        <ele>1293.398438</ele>
        <time>2017-11-05T02:27:07Z</time>
      </trkpt>
      <trkpt lat="34.311685" lon="-117.43228">
        <ele>1293.898438</ele>
        <time>2017-11-05T02:27:10Z</time>
      </trkpt>
      <trkpt lat="34.311658" lon="-117.43221">
        <ele>1294.097656</ele>
        <time>2017-11-05T02:27:12Z</time>
      </trkpt>
      <trkpt lat="34.311622" lon="-117.432174">
        <ele>1294.597656</ele>
        <time>2017-11-05T02:27:14Z</time>
      </trkpt>
      <trkpt lat="34.311595" lon="-117.432127">
        <ele>1294.597656</ele>
        <time>2017-11-05T02:27:16Z</time>
      </trkpt>
      <trkpt lat="34.311541" lon="-117.432092">
        <ele>1294.597656</ele>
        <time>2017-11-05T02:27:17Z</time>
      </trkpt>
      <trkpt lat="34.311505" lon="-117.43208">
        <ele>1295.199219</ele>
        <time>2017-11-05T02:27:19Z</time>
      </trkpt>
      <trkpt lat="34.311451" lon="-117.432069">
        <ele>1294.898438</ele>
        <time>2017-11-05T02:27:22Z</time>
      </trkpt>
      <trkpt lat="34.311397" lon="-117.432104">
        <ele>1295.000000</ele>
        <time>2017-11-05T02:27:24Z</time>
      </trkpt>
      <trkpt lat="34.311361" lon="-117.432127">
        <ele>1295.296875</ele>
        <time>2017-11-05T02:27:26Z</time>
      </trkpt>
      <trkpt lat="34.311307" lon="-117.432174">
        <ele>1295.699219</ele>
        <time>2017-11-05T02:27:27Z</time>
      </trkpt>
      <trkpt lat="34.31128" lon="-117.432186">
        <ele>1296.699219</ele>
        <time>2017-11-05T02:27:30Z</time>
      </trkpt>
      <trkpt lat="34.31119" lon="-117.432221">
        <ele>1297.097656</ele>
        <time>2017-11-05T02:27:31Z</time>
      </trkpt>
      <trkpt lat="34.311163" lon="-117.432221">
        <ele>1297.699219</ele>
        <time>2017-11-05T02:27:34Z</time>
      </trkpt>
      <trkpt lat="34.311073" lon="-117.432233">
        <ele>1298.000000</ele>
        <time>2017-11-05T02:27:35Z</time>
      </trkpt>
      <trkpt lat="34.311037" lon="-117.432245">
        <ele>1298.500000</ele>
        <time>2017-11-05T02:27:37Z</time>
      </trkpt>
      <trkpt lat="34.310974" lon="-117.43228">
        <ele>1298.898438</ele>
        <time>2017-11-05T02:27:38Z</time>
      </trkpt>
      <trkpt lat="34.31095" lon="-117.432308">
        <ele>1300.199219</ele>
        <time>2017-11-05T02:27:40Z</time>
      </trkpt>
      <trkpt lat="34.310893" lon="-117.43235">
        <ele>1300.699219</ele>
        <time>2017-11-05T02:27:41Z</time>
      </trkpt>
      <trkpt lat="34.310867" lon="-117.43238">
        <ele>1301.097656</ele>
        <time>2017-11-05T02:27:43Z</time>
      </trkpt>
      <trkpt lat="34.310812" lon="-117.432421">
        <ele>1301.398438</ele>
        <time>2017-11-05T02:27:44Z</time>
      </trkpt>
      <trkpt lat="34.310794" lon="-117.432456">
        <ele>1301.699219</ele>
        <time>2017-11-05T02:27:46Z</time>
      </trkpt>
      <trkpt lat="34.310767" lon="-117.432538">
        <ele>1301.597656</ele>
        <time>2017-11-05T02:27:47Z</time>
      </trkpt>
      <trkpt lat="34.310728" lon="-117.432646">
        <ele>1302.500000</ele>
        <time>2017-11-05T02:27:49Z</time>
      </trkpt>
      <trkpt lat="34.310722" lon="-117.432679">
        <ele>1303.699219</ele>
        <time>2017-11-05T02:27:51Z</time>
      </trkpt>
      <trkpt lat="34.310686" lon="-117.432785">
        <ele>1304.296875</ele>
        <time>2017-11-05T02:27:52Z</time>
      </trkpt>
      <trkpt lat="34.310659" lon="-117.432832">
        <ele>1305.296875</ele>
        <time>2017-11-05T02:27:54Z</time>
      </trkpt>
      <trkpt lat="34.310578" lon="-117.432844">
        <ele>1305.597656</ele>
        <time>2017-11-05T02:27:55Z</time>
      </trkpt>
      <trkpt lat="34.310542" lon="-117.432856">
        <ele>1307.296875</ele>
        <time>2017-11-05T02:27:57Z</time>
      </trkpt>
      <trkpt lat="34.310468" lon="-117.43284">
        <ele>1307.699219</ele>
        <time>2017-11-05T02:27:58Z</time>
      </trkpt>
      <trkpt lat="34.310425" lon="-117.432844">
        <ele>1308.898438</ele>
        <time>2017-11-05T02:28:01Z</time>
      </trkpt>
      <trkpt lat="34.310371" lon="-117.43282">
        <ele>1309.699219</ele>
        <time>2017-11-05T02:28:02Z</time>
      </trkpt>
      <trkpt lat="34.310249" lon="-117.432757">
        <ele>1311.500000</ele>
        <time>2017-11-05T02:28:05Z</time>
      </trkpt>
      <trkpt lat="34.310218" lon="-117.432726">
        <ele>1312.398438</ele>
        <time>2017-11-05T02:28:07Z</time>
      </trkpt>
      <trkpt lat="34.310146" lon="-117.432644">
        <ele>1312.796875</ele>
        <time>2017-11-05T02:28:08Z</time>
      </trkpt>
      <trkpt lat="34.310083" lon="-117.432562">
        <ele>1313.000000</ele>
        <time>2017-11-05T02:28:10Z</time>
      </trkpt>
      <trkpt lat="34.310056" lon="-117.432527">
        <ele>1313.097656</ele>
        <time>2017-11-05T02:28:11Z</time>
      </trkpt>
      <trkpt lat="34.310011" lon="-117.43248">
        <ele>1313.296875</ele>
        <time>2017-11-05T02:28:12Z</time>
      </trkpt>
      <trkpt lat="34.309966" lon="-117.43248">
        <ele>1313.699219</ele>
        <time>2017-11-05T02:28:13Z</time>
      </trkpt>
      <trkpt lat="34.309912" lon="-117.43248">
        <ele>1314.296875</ele>
        <time>2017-11-05T02:28:14Z</time>
      </trkpt>
      <trkpt lat="34.309864" lon="-117.432466">
        <ele>1315.398438</ele>
        <time>2017-11-05T02:28:15Z</time>
      </trkpt>
      <trkpt lat="34.309813" lon="-117.432468">
        <ele>1316.199219</ele>
        <time>2017-11-05T02:28:16Z</time>
      </trkpt>
      <trkpt lat="34.309768" lon="-117.432468">
        <ele>1317.000000</ele>
        <time>2017-11-05T02:28:17Z</time>
      </trkpt>
      <trkpt lat="34.309719" lon="-117.432442">
        <ele>1318.097656</ele>
        <time>2017-11-05T02:28:19Z</time>
      </trkpt>
      <trkpt lat="34.309642" lon="-117.432409">
        <ele>1318.500000</ele>
        <time>2017-11-05T02:28:20Z</time>
      </trkpt>
      <trkpt lat="34.309597" lon="-117.432397">
        <ele>1318.898438</ele>
        <time>2017-11-05T02:28:21Z</time>
      </trkpt>
      <trkpt lat="34.309543" lon="-117.432374">
        <ele>1319.398438</ele>
        <time>2017-11-05T02:28:22Z</time>
      </trkpt>
      <trkpt lat="34.309498" lon="-117.432346">
        <ele>1320.000000</ele>
        <time>2017-11-05T02:28:23Z</time>
      </trkpt>
      <trkpt lat="34.309444" lon="-117.432327">
        <ele>1320.597656</ele>
        <time>2017-11-05T02:28:24Z</time>
      </trkpt>
      <trkpt lat="34.309399" lon="-117.432304">
        <ele>1321.199219</ele>
        <time>2017-11-05T02:28:25Z</time>
      </trkpt>
      <trkpt lat="34.309354" lon="-117.432292">
        <ele>1322.597656</ele>
        <time>2017-11-05T02:28:27Z</time>
      </trkpt>
      <trkpt lat="34.309286" lon="-117.432251">
        <ele>1323.097656</ele>
        <time>2017-11-05T02:28:28Z</time>
      </trkpt>
      <trkpt lat="34.309264" lon="-117.432221">
        <ele>1324.296875</ele>
        <time>2017-11-05T02:28:39Z</time>
      </trkpt>
      <trkpt lat="34.309228" lon="-117.432163">
        <ele>1324.796875</ele>
        <time>2017-11-05T02:28:41Z</time>
      </trkpt>
      <trkpt lat="34.30921" lon="-117.432104">
        <ele>1325.097656</ele>
        <time>2017-11-05T02:28:44Z</time>
      </trkpt>
      <trkpt lat="34.309192" lon="-117.432045">
        <ele>1325.199219</ele>
        <time>2017-11-05T02:28:46Z</time>
      </trkpt>
      <trkpt lat="34.309183" lon="-117.431998">
        <ele>1325.199219</ele>
        <time>2017-11-05T02:28:48Z</time>
      </trkpt>
      <trkpt lat="34.309149" lon="-117.43188">
        <ele>1326.097656</ele>
        <time>2017-11-05T02:28:51Z</time>
      </trkpt>
      <trkpt lat="34.309147" lon="-117.431857">
        <ele>1327.097656</ele>
        <time>2017-11-05T02:28:54Z</time>
      </trkpt>
      <trkpt lat="34.309111" lon="-117.43174">
        <ele>1327.296875</ele>
        <time>2017-11-05T02:28:55Z</time>
      </trkpt>
      <trkpt lat="34.309075" lon="-117.431622">
        <ele>1327.699219</ele>
        <time>2017-11-05T02:28:58Z</time>
      </trkpt>
      <trkpt lat="34.309053" lon="-117.431592">
        <ele>1328.398438</ele>
        <time>2017-11-05T02:29:01Z</time>
      </trkpt>
      <trkpt lat="34.309014" lon="-117.431514">
        <ele>1328.699219</ele>
        <time>2017-11-05T02:29:02Z</time>
      </trkpt>
      <trkpt lat="34.309003" lon="-117.431481">
        <ele>1329.398438</ele>
        <time>2017-11-05T02:29:05Z</time>
      </trkpt>
      <trkpt lat="34.308958" lon="-117.431399">
        <ele>1329.898438</ele>
        <time>2017-11-05T02:29:06Z</time>
      </trkpt>
      <trkpt lat="34.308949" lon="-117.431364">
        <ele>1330.199219</ele>
        <time>2017-11-05T02:29:09Z</time>
      </trkpt>
      <trkpt lat="34.308886" lon="-117.431281">
        <ele>1330.398438</ele>
        <time>2017-11-05T02:29:10Z</time>
      </trkpt>
      <trkpt lat="34.30885" lon="-117.431258">
        <ele>1331.296875</ele>
        <time>2017-11-05T02:29:12Z</time>
      </trkpt>
      <trkpt lat="34.308724" lon="-117.431164">
        <ele>1332.296875</ele>
        <time>2017-11-05T02:29:14Z</time>
      </trkpt>
      <trkpt lat="34.30867" lon="-117.431152">
        <ele>1332.898438</ele>
        <time>2017-11-05T02:29:15Z</time>
      </trkpt>
      <trkpt lat="34.308625" lon="-117.431152">
        <ele>1333.199219</ele>
        <time>2017-11-05T02:29:16Z</time>
      </trkpt>
      <trkpt lat="34.308578" lon="-117.43113">
        <ele>1334.500000</ele>
        <time>2017-11-05T02:29:18Z</time>
      </trkpt>
      <trkpt lat="34.308499" lon="-117.431152">
        <ele>1335.000000</ele>
        <time>2017-11-05T02:29:19Z</time>
      </trkpt>
      <trkpt lat="34.308445" lon="-117.431176">
        <ele>1335.296875</ele>
        <time>2017-11-05T02:29:20Z</time>
      </trkpt>
      <trkpt lat="34.308361" lon="-117.431219">
        <ele>1335.699219</ele>
        <time>2017-11-05T02:29:22Z</time>
      </trkpt>
      <trkpt lat="34.30831" lon="-117.431234">
        <ele>1336.000000</ele>
        <time>2017-11-05T02:29:23Z</time>
      </trkpt>
      <trkpt lat="34.308157" lon="-117.431293">
        <ele>1336.398438</ele>
        <time>2017-11-05T02:29:26Z</time>
      </trkpt>
      <trkpt lat="34.308112" lon="-117.431293">
        <ele>1336.597656</ele>
        <time>2017-11-05T02:29:28Z</time>
      </trkpt>
      <trkpt lat="34.30804" lon="-117.431234">
        <ele>1336.500000</ele>
        <time>2017-11-05T02:29:29Z</time>
      </trkpt>
      <trkpt lat="34.307923" lon="-117.431152">
        <ele>1337.796875</ele>
        <time>2017-11-05T02:29:32Z</time>
      </trkpt>
      <trkpt lat="34.307887" lon="-117.431117">
        <ele>1339.000000</ele>
        <time>2017-11-05T02:29:34Z</time>
      </trkpt>
      <trkpt lat="34.307806" lon="-117.431105">
        <ele>1339.500000</ele>
        <time>2017-11-05T02:29:35Z</time>
      </trkpt>
      <trkpt lat="34.307761" lon="-117.431105">
        <ele>1340.398438</ele>
        <time>2017-11-05T02:29:37Z</time>
      </trkpt>
      <trkpt lat="34.30768" lon="-117.431093">
        <ele>1340.699219</ele>
        <time>2017-11-05T02:29:38Z</time>
      </trkpt>
      <trkpt lat="34.307644" lon="-117.431093">
        <ele>1341.597656</ele>
        <time>2017-11-05T02:29:40Z</time>
      </trkpt>
      <trkpt lat="34.307562" lon="-117.431073">
        <ele>1342.000000</ele>
        <time>2017-11-05T02:29:41Z</time>
      </trkpt>
      <trkpt lat="34.307527" lon="-117.431082">
        <ele>1342.699219</ele>
        <time>2017-11-05T02:29:43Z</time>
      </trkpt>
      <trkpt lat="34.307461" lon="-117.431063">
        <ele>1343.000000</ele>
        <time>2017-11-05T02:29:44Z</time>
      </trkpt>
      <trkpt lat="34.307437" lon="-117.43107">
        <ele>1343.898438</ele>
        <time>2017-11-05T02:29:48Z</time>
      </trkpt>
      <trkpt lat="34.307356" lon="-117.431046">
        <ele>1344.097656</ele>
        <time>2017-11-05T02:29:49Z</time>
      </trkpt>
      <trkpt lat="34.307338" lon="-117.431046">
        <ele>1344.500000</ele>
        <time>2017-11-05T02:29:53Z</time>
      </trkpt>
      <trkpt lat="34.307275" lon="-117.430976">
        <ele>1344.699219</ele>
        <time>2017-11-05T02:29:54Z</time>
      </trkpt>
      <trkpt lat="34.307266" lon="-117.430941">
        <ele>1344.500000</ele>
        <time>2017-11-05T02:29:57Z</time>
      </trkpt>
      <trkpt lat="34.307248" lon="-117.430858">
        <ele>1344.500000</ele>
        <time>2017-11-05T02:29:58Z</time>
      </trkpt>
      <trkpt lat="34.307248" lon="-117.430823">
        <ele>1345.000000</ele>
        <time>2017-11-05T02:30:01Z</time>
      </trkpt>
      <trkpt lat="34.307223" lon="-117.430732">
        <ele>1345.097656</ele>
        <time>2017-11-05T02:30:02Z</time>
      </trkpt>
      <trkpt lat="34.307221" lon="-117.430706">
        <ele>1345.000000</ele>
        <time>2017-11-05T02:30:05Z</time>
      </trkpt>
      <trkpt lat="34.307176" lon="-117.430612">
        <ele>1345.000000</ele>
        <time>2017-11-05T02:30:06Z</time>
      </trkpt>
      <trkpt lat="34.307155" lon="-117.430587">
        <ele>1345.398438</ele>
        <time>2017-11-05T02:30:10Z</time>
      </trkpt>
      <trkpt lat="34.307104" lon="-117.430541">
        <ele>1345.500000</ele>
        <time>2017-11-05T02:30:11Z</time>
      </trkpt>
      <trkpt lat="34.307068" lon="-117.430518">
        <ele>1346.398438</ele>
        <time>2017-11-05T02:30:13Z</time>
      </trkpt>
      <trkpt lat="34.306987" lon="-117.430518">
        <ele>1347.000000</ele>
        <time>2017-11-05T02:30:14Z</time>
      </trkpt>
      <trkpt lat="34.306949" lon="-117.430517">
        <ele>1348.000000</ele>
        <time>2017-11-05T02:30:16Z</time>
      </trkpt>
      <trkpt lat="34.306879" lon="-117.430553">
        <ele>1348.597656</ele>
        <time>2017-11-05T02:30:17Z</time>
      </trkpt>
      <trkpt lat="34.30679" lon="-117.430606">
        <ele>1349.597656</ele>
        <time>2017-11-05T02:30:20Z</time>
      </trkpt>
      <trkpt lat="34.306771" lon="-117.430612">
        <ele>1350.898438</ele>
        <time>2017-11-05T02:30:24Z</time>
      </trkpt>
      <trkpt lat="34.306681" lon="-117.43067">
        <ele>1351.699219</ele>
        <time>2017-11-05T02:30:25Z</time>
      </trkpt>
      <trkpt lat="34.306654" lon="-117.430682">
        <ele>1352.199219</ele>
        <time>2017-11-05T02:30:28Z</time>
      </trkpt>
      <trkpt lat="34.306564" lon="-117.430659">
        <ele>1352.597656</ele>
        <time>2017-11-05T02:30:29Z</time>
      </trkpt>
      <trkpt lat="34.306537" lon="-117.430647">
        <ele>1353.000000</ele>
        <time>2017-11-05T02:30:31Z</time>
      </trkpt>
      <trkpt lat="34.306411" lon="-117.430576">
        <ele>1354.296875</ele>
        <time>2017-11-05T02:30:34Z</time>
      </trkpt>
      <trkpt lat="34.306312" lon="-117.430518">
        <ele>1356.097656</ele>
        <time>2017-11-05T02:30:37Z</time>
      </trkpt>
      <trkpt lat="34.306286" lon="-117.430499">
        <ele>1357.199219</ele>
        <time>2017-11-05T02:30:39Z</time>
      </trkpt>
      <trkpt lat="34.306222" lon="-117.430471">
        <ele>1357.597656</ele>
        <time>2017-11-05T02:30:40Z</time>
      </trkpt>
      <trkpt lat="34.306186" lon="-117.430482">
        <ele>1358.398438</ele>
        <time>2017-11-05T02:30:42Z</time>
      </trkpt>
      <trkpt lat="34.306132" lon="-117.430529">
        <ele>1358.500000</ele>
        <time>2017-11-05T02:30:43Z</time>
      </trkpt>
      <trkpt lat="34.306096" lon="-117.430565">
        <ele>1358.699219</ele>
        <time>2017-11-05T02:30:44Z</time>
      </trkpt>
      <trkpt lat="34.306069" lon="-117.430612">
        <ele>1359.398438</ele>
        <time>2017-11-05T02:30:46Z</time>
      </trkpt>
      <trkpt lat="34.305997" lon="-117.430753">
        <ele>1359.796875</ele>
        <time>2017-11-05T02:30:48Z</time>
      </trkpt>
      <trkpt lat="34.305979" lon="-117.4308">
        <ele>1359.898438</ele>
        <time>2017-11-05T02:30:50Z</time>
      </trkpt>
      <trkpt lat="34.305946" lon="-117.430857">
        <ele>1359.699219</ele>
        <time>2017-11-05T02:30:56Z</time>
      </trkpt>
      <trkpt lat="34.305898" lon="-117.430952">
        <ele>1360.500000</ele>
        <time>2017-11-05T02:30:59Z</time>
      </trkpt>
      <trkpt lat="34.305898" lon="-117.430964">
        <ele>1361.000000</ele>
        <time>2017-11-05T02:31:11Z</time>
      </trkpt>
      <trkpt lat="34.305835" lon="-117.431035">
        <ele>1360.597656</ele>
        <time>2017-11-05T02:32:31Z</time>
      </trkpt>
      <trkpt lat="34.305772" lon="-117.431117">
        <ele>1362.296875</ele>
        <time>2017-11-05T02:33:09Z</time>
      </trkpt>
      <trkpt lat="34.305772" lon="-117.431117">
        <ele>1362.296875</ele>
        <time>2017-11-05T02:33:09Z</time>
      </trkpt>
    </trkseg>
    <trkseg>
      <trkpt lat="34.305772" lon="-117.431117">
        <ele>1361.500000</ele>
        <time>2017-11-05T02:34:05Z</time>
      </trkpt>
      <trkpt lat="34.305682" lon="-117.431223">
        <ele>1363.199219</ele>
        <time>2017-11-05T02:34:43Z</time>
      </trkpt>
      <trkpt lat="34.305574" lon="-117.431293">
        <ele>1365.699219</ele>
        <time>2017-11-05T02:36:12Z</time>
      </trkpt>
      <trkpt lat="34.305556" lon="-117.431305">
        <ele>1366.097656</ele>
        <time>2017-11-05T02:36:18Z</time>
      </trkpt>
      <trkpt lat="34.305452" lon="-117.431364">
        <ele>1367.000000</ele>
        <time>2017-11-05T02:36:21Z</time>
      </trkpt>
      <trkpt lat="34.305439" lon="-117.431364">
        <ele>1369.296875</ele>
        <time>2017-11-05T02:36:26Z</time>
      </trkpt>
      <trkpt lat="34.305349" lon="-117.431399">
        <ele>1369.898438</ele>
        <time>2017-11-05T02:36:27Z</time>
      </trkpt>
      <trkpt lat="34.305331" lon="-117.431399">
        <ele>1372.000000</ele>
        <time>2017-11-05T02:36:32Z</time>
      </trkpt>
      <trkpt lat="34.305259" lon="-117.431422">
        <ele>1372.597656</ele>
        <time>2017-11-05T02:36:33Z</time>
      </trkpt>
      <trkpt lat="34.305241" lon="-117.431429">
        <ele>1375.500000</ele>
        <time>2017-11-05T02:36:38Z</time>
      </trkpt>
      <trkpt lat="34.305169" lon="-117.431446">
        <ele>1376.000000</ele>
        <time>2017-11-05T02:36:39Z</time>
      </trkpt>
      <trkpt lat="34.305124" lon="-117.431481">
        <ele>1376.796875</ele>
        <time>2017-11-05T02:36:41Z</time>
      </trkpt>
      <trkpt lat="34.305016" lon="-117.431563">
        <ele>1377.796875</ele>
        <time>2017-11-05T02:36:46Z</time>
      </trkpt>
      <trkpt lat="34.305007" lon="-117.431575">
        <ele>1379.500000</ele>
        <time>2017-11-05T02:37:09Z</time>
      </trkpt>
      <trkpt lat="34.304935" lon="-117.431634">
        <ele>1379.898438</ele>
        <time>2017-11-05T02:38:14Z</time>
      </trkpt>
      <trkpt lat="34.304926" lon="-117.431646">
        <ele>1379.199219</ele>
        <time>2017-11-05T02:38:46Z</time>
      </trkpt>
      <trkpt lat="34.30486" lon="-117.4317">
        <ele>1378.500000</ele>
        <time>2017-11-05T02:39:04Z</time>
      </trkpt>
      <trkpt lat="34.304737" lon="-117.431751">
        <ele>1379.097656</ele>
        <time>2017-11-05T02:39:06Z</time>
      </trkpt>
      <trkpt lat="34.304728" lon="-117.431751">
        <ele>1380.000000</ele>
        <time>2017-11-05T02:39:14Z</time>
      </trkpt>
      <trkpt lat="34.304647" lon="-117.431734">
        <ele>1379.898438</ele>
        <time>2017-11-05T02:39:16Z</time>
      </trkpt>
      <trkpt lat="34.304638" lon="-117.431728">
        <ele>1378.796875</ele>
        <time>2017-11-05T02:39:39Z</time>
      </trkpt>
      <trkpt lat="34.304566" lon="-117.431646">
        <ele>1378.796875</ele>
        <time>2017-11-05T02:39:40Z</time>
      </trkpt>
      <trkpt lat="34.304494" lon="-117.431563">
        <ele>1382.796875</ele>
        <time>2017-11-05T02:39:56Z</time>
      </trkpt>
      <trkpt lat="34.304476" lon="-117.431552">
        <ele>1384.699219</ele>
        <time>2017-11-05T02:40:01Z</time>
      </trkpt>
      <trkpt lat="34.304395" lon="-117.4315">
        <ele>1385.000000</ele>
        <time>2017-11-05T02:40:02Z</time>
      </trkpt>
      <trkpt lat="34.304377" lon="-117.431505">
        <ele>1385.699219</ele>
        <time>2017-11-05T02:40:06Z</time>
      </trkpt>
      <trkpt lat="34.304305" lon="-117.431493">
        <ele>1386.097656</ele>
        <time>2017-11-05T02:40:07Z</time>
      </trkpt>
      <trkpt lat="34.304287" lon="-117.431493">
        <ele>1389.699219</ele>
        <time>2017-11-05T02:40:14Z</time>
      </trkpt>
      <trkpt lat="34.304206" lon="-117.431516">
        <ele>1391.199219</ele>
        <time>2017-11-05T02:40:29Z</time>
      </trkpt>
      <trkpt lat="34.304197" lon="-117.431516">
        <ele>1392.796875</ele>
        <time>2017-11-05T02:40:35Z</time>
      </trkpt>
      <trkpt lat="34.304116" lon="-117.431552">
        <ele>1393.199219</ele>
        <time>2017-11-05T02:40:36Z</time>
      </trkpt>
      <trkpt lat="34.304098" lon="-117.431563">
        <ele>1394.699219</ele>
        <time>2017-11-05T02:40:40Z</time>
      </trkpt>
      <trkpt lat="34.304035" lon="-117.43161">
        <ele>1395.097656</ele>
        <time>2017-11-05T02:40:41Z</time>
      </trkpt>
      <trkpt lat="34.304017" lon="-117.431634">
        <ele>1395.398438</ele>
        <time>2017-11-05T02:40:44Z</time>
      </trkpt>
      <trkpt lat="34.303963" lon="-117.431728">
        <ele>1394.898438</ele>
        <time>2017-11-05T02:40:46Z</time>
      </trkpt>
      <trkpt lat="34.303954" lon="-117.431751">
        <ele>1395.199219</ele>
        <time>2017-11-05T02:40:49Z</time>
      </trkpt>
      <trkpt lat="34.3039" lon="-117.431838">
        <ele>1395.597656</ele>
        <time>2017-11-05T02:40:50Z</time>
      </trkpt>
      <trkpt lat="34.303828" lon="-117.431963">
        <ele>1398.398438</ele>
        <time>2017-11-05T02:40:55Z</time>
      </trkpt>
      <trkpt lat="34.30381" lon="-117.431998">
        <ele>1400.597656</ele>
        <time>2017-11-05T02:40:58Z</time>
      </trkpt>
      <trkpt lat="34.303765" lon="-117.432057">
        <ele>1401.097656</ele>
        <time>2017-11-05T02:40:59Z</time>
      </trkpt>
      <trkpt lat="34.303738" lon="-117.432069">
        <ele>1401.796875</ele>
        <time>2017-11-05T02:41:02Z</time>
      </trkpt>
      <trkpt lat="34.303657" lon="-117.432104">
        <ele>1401.898438</ele>
        <time>2017-11-05T02:41:03Z</time>
      </trkpt>
      <trkpt lat="34.303513" lon="-117.432139">
        <ele>1401.898438</ele>
        <time>2017-11-05T02:41:04Z</time>
      </trkpt>
      <trkpt lat="34.303486" lon="-117.432151">
        <ele>1402.296875</ele>
        <time>2017-11-05T02:41:06Z</time>
      </trkpt>
      <trkpt lat="34.303423" lon="-117.432163">
        <ele>1402.398438</ele>
        <time>2017-11-05T02:41:08Z</time>
      </trkpt>
      <trkpt lat="34.303387" lon="-117.432198">
        <ele>1403.296875</ele>
        <time>2017-11-05T02:41:10Z</time>
      </trkpt>
      <trkpt lat="34.303306" lon="-117.43228">
        <ele>1404.000000</ele>
        <time>2017-11-05T02:41:13Z</time>
      </trkpt>
      <trkpt lat="34.303279" lon="-117.432315">
        <ele>1404.597656</ele>
        <time>2017-11-05T02:41:15Z</time>
      </trkpt>
      <trkpt lat="34.303234" lon="-117.432362">
        <ele>1405.296875</ele>
        <time>2017-11-05T02:41:17Z</time>
      </trkpt>
      <trkpt lat="34.303189" lon="-117.432409">
        <ele>1406.398438</ele>
        <time>2017-11-05T02:41:19Z</time>
      </trkpt>
      <trkpt lat="34.303153" lon="-117.432456">
        <ele>1406.398438</ele>
        <time>2017-11-05T02:41:21Z</time>
      </trkpt>
      <trkpt lat="34.303117" lon="-117.432491">
        <ele>1406.898438</ele>
        <time>2017-11-05T02:41:24Z</time>
      </trkpt>
      <trkpt lat="34.303072" lon="-117.432538">
        <ele>1407.296875</ele>
        <time>2017-11-05T02:41:26Z</time>
      </trkpt>
      <trkpt lat="34.303045" lon="-117.432585">
        <ele>1407.000000</ele>
        <time>2017-11-05T02:41:29Z</time>
      </trkpt>
      <trkpt lat="34.303" lon="-117.432632">
        <ele>1407.199219</ele>
        <time>2017-11-05T02:41:31Z</time>
      </trkpt>
      <trkpt lat="34.302955" lon="-117.432679">
        <ele>1407.296875</ele>
        <time>2017-11-05T02:41:33Z</time>
      </trkpt>
      <trkpt lat="34.302891" lon="-117.432757">
        <ele>1408.199219</ele>
        <time>2017-11-05T02:41:38Z</time>
      </trkpt>
      <trkpt lat="34.302883" lon="-117.432773">
        <ele>1409.500000</ele>
        <time>2017-11-05T02:41:59Z</time>
      </trkpt>
      <trkpt lat="34.30282" lon="-117.432832">
        <ele>1408.296875</ele>
        <time>2017-11-05T02:42:01Z</time>
      </trkpt>
      <trkpt lat="34.302811" lon="-117.432856">
        <ele>1408.898438</ele>
        <time>2017-11-05T02:42:06Z</time>
      </trkpt>
      <trkpt lat="34.302757" lon="-117.432914">
        <ele>1410.597656</ele>
        <time>2017-11-05T02:42:14Z</time>
      </trkpt>
      <trkpt lat="34.302676" lon="-117.433008">
        <ele>1411.000000</ele>
        <time>2017-11-05T02:42:23Z</time>
      </trkpt>
      <trkpt lat="34.302658" lon="-117.433008">
        <ele>1410.398438</ele>
        <time>2017-11-05T02:42:33Z</time>
      </trkpt>
      <trkpt lat="34.302586" lon="-117.433032">
        <ele>1409.796875</ele>
        <time>2017-11-05T02:42:47Z</time>
      </trkpt>
      <trkpt lat="34.302496" lon="-117.433055">
        <ele>1409.699219</ele>
        <time>2017-11-05T02:43:11Z</time>
      </trkpt>
      <trkpt lat="34.302487" lon="-117.433055">
        <ele>1412.097656</ele>
        <time>2017-11-05T02:43:17Z</time>
      </trkpt>
      <trkpt lat="34.302405" lon="-117.433081">
        <ele>1412.500000</ele>
        <time>2017-11-05T02:43:18Z</time>
      </trkpt>
      <trkpt lat="34.302388" lon="-117.433079">
        <ele>1415.898438</ele>
        <time>2017-11-05T02:43:24Z</time>
      </trkpt>
      <trkpt lat="34.302325" lon="-117.433138">
        <ele>1416.199219</ele>
        <time>2017-11-05T02:43:25Z</time>
      </trkpt>
      <trkpt lat="34.302318" lon="-117.433151">
        <ele>1418.898438</ele>
        <time>2017-11-05T02:43:30Z</time>
      </trkpt>
      <trkpt lat="34.302262" lon="-117.43322">
        <ele>1419.296875</ele>
        <time>2017-11-05T02:43:31Z</time>
      </trkpt>
      <trkpt lat="34.301983" lon="-117.43302">
        <ele>1419.597656</ele>
        <time>2017-11-05T02:43:32Z</time>
      </trkpt>
      <trkpt lat="34.30183" lon="-117.433079">
        <ele>1420.296875</ele>
        <time>2017-11-05T02:43:34Z</time>
      </trkpt>
      <trkpt lat="34.30183" lon="-117.433067">
        <ele>1427.097656</ele>
        <time>2017-11-05T02:44:14Z</time>
      </trkpt>
      <trkpt lat="34.301785" lon="-117.432973">
        <ele>1427.398438</ele>
        <time>2017-11-05T02:44:15Z</time>
      </trkpt>
      <trkpt lat="34.301776" lon="-117.432961">
        <ele>1427.199219</ele>
        <time>2017-11-05T02:44:46Z</time>
      </trkpt>
      <trkpt lat="34.301659" lon="-117.432938">
        <ele>1427.296875</ele>
        <time>2017-11-05T02:44:47Z</time>
      </trkpt>
      <trkpt lat="34.30165" lon="-117.43295">
        <ele>1429.699219</ele>
        <time>2017-11-05T02:45:03Z</time>
      </trkpt>
      <trkpt lat="34.301596" lon="-117.433032">
        <ele>1430.000000</ele>
        <time>2017-11-05T02:45:04Z</time>
      </trkpt>
      <trkpt lat="34.301584" lon="-117.433039">
        <ele>1431.597656</ele>
        <time>2017-11-05T02:45:10Z</time>
      </trkpt>
      <trkpt lat="34.301533" lon="-117.433114">
        <ele>1432.296875</ele>
        <time>2017-11-05T02:45:12Z</time>
      </trkpt>
      <trkpt lat="34.301524" lon="-117.433126">
        <ele>1434.199219</ele>
        <time>2017-11-05T02:45:18Z</time>
      </trkpt>
      <trkpt lat="34.301452" lon="-117.433185">
        <ele>1434.699219</ele>
        <time>2017-11-05T02:45:19Z</time>
      </trkpt>
      <trkpt lat="34.301443" lon="-117.433185">
        <ele>1436.000000</ele>
        <time>2017-11-05T02:45:25Z</time>
      </trkpt>
      <trkpt lat="34.301272" lon="-117.433196">
        <ele>1436.199219</ele>
        <time>2017-11-05T02:45:27Z</time>
      </trkpt>
      <trkpt lat="34.301263" lon="-117.433185">
        <ele>1438.199219</ele>
        <time>2017-11-05T02:45:34Z</time>
      </trkpt>
      <trkpt lat="34.301173" lon="-117.433173">
        <ele>1438.500000</ele>
        <time>2017-11-05T02:45:35Z</time>
      </trkpt>
      <trkpt lat="34.30116" lon="-117.433166">
        <ele>1440.500000</ele>
        <time>2017-11-05T02:45:41Z</time>
      </trkpt>
      <trkpt lat="34.301074" lon="-117.433185">
        <ele>1440.898438</ele>
        <time>2017-11-05T02:45:42Z</time>
      </trkpt>
      <trkpt lat="34.301056" lon="-117.433185">
        <ele>1442.000000</ele>
        <time>2017-11-05T02:45:47Z</time>
      </trkpt>
      <trkpt lat="34.300966" lon="-117.432832">
        <ele>1442.398438</ele>
        <time>2017-11-05T02:45:49Z</time>
      </trkpt>
      <trkpt lat="34.300939" lon="-117.432809">
        <ele>1442.796875</ele>
        <time>2017-11-05T02:45:53Z</time>
      </trkpt>
      <trkpt lat="34.300858" lon="-117.43275">
        <ele>1443.199219</ele>
        <time>2017-11-05T02:45:56Z</time>
      </trkpt>
      <trkpt lat="34.300849" lon="-117.432738">
        <ele>1444.500000</ele>
        <time>2017-11-05T02:46:02Z</time>
      </trkpt>
      <trkpt lat="34.300768" lon="-117.432644">
        <ele>1445.398438</ele>
        <time>2017-11-05T02:46:05Z</time>
      </trkpt>
      <trkpt lat="34.30075" lon="-117.432644">
        <ele>1446.597656</ele>
        <time>2017-11-05T02:46:10Z</time>
      </trkpt>
      <trkpt lat="34.300687" lon="-117.432585">
        <ele>1446.898438</ele>
        <time>2017-11-05T02:46:11Z</time>
      </trkpt>
      <trkpt lat="34.300669" lon="-117.432585">
        <ele>1449.898438</ele>
        <time>2017-11-05T02:46:17Z</time>
      </trkpt>
      <trkpt lat="34.300588" lon="-117.432562">
        <ele>1450.199219</ele>
        <time>2017-11-05T02:46:18Z</time>
      </trkpt>
      <trkpt lat="34.300579" lon="-117.432562">
        <ele>1451.597656</ele>
        <time>2017-11-05T02:46:24Z</time>
      </trkpt>
      <trkpt lat="34.300498" lon="-117.432538">
        <ele>1451.796875</ele>
        <time>2017-11-05T02:46:25Z</time>
      </trkpt>
      <trkpt lat="34.300489" lon="-117.432538">
        <ele>1452.898438</ele>
        <time>2017-11-05T02:46:30Z</time>
      </trkpt>
      <trkpt lat="34.300399" lon="-117.432515">
        <ele>1453.296875</ele>
        <time>2017-11-05T02:46:31Z</time>
      </trkpt>
      <trkpt lat="34.300381" lon="-117.432503">
        <ele>1454.398438</ele>
        <time>2017-11-05T02:46:35Z</time>
      </trkpt>
      <trkpt lat="34.3003" lon="-117.43248">
        <ele>1454.699219</ele>
        <time>2017-11-05T02:46:36Z</time>
      </trkpt>
      <trkpt lat="34.299976" lon="-117.432491">
        <ele>1454.898438</ele>
        <time>2017-11-05T02:46:37Z</time>
      </trkpt>
      <trkpt lat="34.299976" lon="-117.432468">
        <ele>1455.097656</ele>
        <time>2017-11-05T02:46:46Z</time>
      </trkpt>
      <trkpt lat="34.299962" lon="-117.432356">
        <ele>1455.296875</ele>
        <time>2017-11-05T02:46:47Z</time>
      </trkpt>
      <trkpt lat="34.299967" lon="-117.432339">
        <ele>1455.097656</ele>
        <time>2017-11-05T02:46:52Z</time>
      </trkpt>
      <trkpt lat="34.29996" lon="-117.432243">
        <ele>1456.000000</ele>
        <time>2017-11-05T02:46:55Z</time>
      </trkpt>
      <trkpt lat="34.300039" lon="-117.432468">
        <ele>1456.199219</ele>
        <time>2017-11-05T02:46:56Z</time>
      </trkpt>
      <trkpt lat="34.299967" lon="-117.432468">
        <ele>1456.398438</ele>
        <time>2017-11-05T02:46:59Z</time>
      </trkpt>
      <trkpt lat="34.299967" lon="-117.432397">
        <ele>1456.597656</ele>
        <time>2017-11-05T02:47:01Z</time>
      </trkpt>
      <trkpt lat="34.299958" lon="-117.432257">
        <ele>1457.597656</ele>
        <time>2017-11-05T02:47:05Z</time>
      </trkpt>
      <trkpt lat="34.299961" lon="-117.432238">
        <ele>1458.796875</ele>
        <time>2017-11-05T02:47:10Z</time>
      </trkpt>
      <trkpt lat="34.299979" lon="-117.432147">
        <ele>1459.000000</ele>
        <time>2017-11-05T02:47:11Z</time>
      </trkpt>
      <trkpt lat="34.299976" lon="-117.432127">
        <ele>1458.796875</ele>
        <time>2017-11-05T02:47:30Z</time>
      </trkpt>
      <trkpt lat="34.300003" lon="-117.432022">
        <ele>1459.000000</ele>
        <time>2017-11-05T02:47:31Z</time>
      </trkpt>
      <trkpt lat="34.300037" lon="-117.431854">
        <ele>1461.000000</ele>
        <time>2017-11-05T02:47:37Z</time>
      </trkpt>
      <trkpt lat="34.300039" lon="-117.431822">
        <ele>1462.398438</ele>
        <time>2017-11-05T02:47:40Z</time>
      </trkpt>
      <trkpt lat="34.30003" lon="-117.431728">
        <ele>1462.796875</ele>
        <time>2017-11-05T02:47:41Z</time>
      </trkpt>
      <trkpt lat="34.30003" lon="-117.431693">
        <ele>1463.296875</ele>
        <time>2017-11-05T02:47:43Z</time>
      </trkpt>
      <trkpt lat="34.300021" lon="-117.431607">
        <ele>1463.898438</ele>
        <time>2017-11-05T02:47:45Z</time>
      </trkpt>
      <trkpt lat="34.30003" lon="-117.431552">
        <ele>1464.500000</ele>
        <time>2017-11-05T02:47:47Z</time>
      </trkpt>
      <trkpt lat="34.300057" lon="-117.431481">
        <ele>1464.296875</ele>
        <time>2017-11-05T02:47:48Z</time>
      </trkpt>
      <trkpt lat="34.300066" lon="-117.431446">
        <ele>1464.500000</ele>
        <time>2017-11-05T02:47:50Z</time>
      </trkpt>
      <trkpt lat="34.300084" lon="-117.431364">
        <ele>1464.597656</ele>
        <time>2017-11-05T02:47:51Z</time>
      </trkpt>
      <trkpt lat="34.300102" lon="-117.431328">
        <ele>1465.199219</ele>
        <time>2017-11-05T02:47:53Z</time>
      </trkpt>
      <trkpt lat="34.300123" lon="-117.431241">
        <ele>1465.500000</ele>
        <time>2017-11-05T02:47:54Z</time>
      </trkpt>
      <trkpt lat="34.300129" lon="-117.431199">
        <ele>1466.199219</ele>
        <time>2017-11-05T02:47:56Z</time>
      </trkpt>
      <trkpt lat="34.300156" lon="-117.431105">
        <ele>1466.500000</ele>
        <time>2017-11-05T02:47:57Z</time>
      </trkpt>
      <trkpt lat="34.300201" lon="-117.430964">
        <ele>1467.699219</ele>
        <time>2017-11-05T02:48:00Z</time>
      </trkpt>
      <trkpt lat="34.300204" lon="-117.430923">
        <ele>1468.500000</ele>
        <time>2017-11-05T02:48:02Z</time>
      </trkpt>
      <trkpt lat="34.300213" lon="-117.430825">
        <ele>1468.898438</ele>
        <time>2017-11-05T02:48:03Z</time>
      </trkpt>
      <trkpt lat="34.30021" lon="-117.430776">
        <ele>1469.796875</ele>
        <time>2017-11-05T02:48:05Z</time>
      </trkpt>
      <trkpt lat="34.300219" lon="-117.430682">
        <ele>1470.097656</ele>
        <time>2017-11-05T02:48:06Z</time>
      </trkpt>
      <trkpt lat="34.300228" lon="-117.430635">
        <ele>1471.296875</ele>
        <time>2017-11-05T02:48:08Z</time>
      </trkpt>
      <trkpt lat="34.300228" lon="-117.430529">
        <ele>1471.699219</ele>
        <time>2017-11-05T02:48:09Z</time>
      </trkpt>
      <trkpt lat="34.300219" lon="-117.430482">
        <ele>1472.097656</ele>
        <time>2017-11-05T02:48:10Z</time>
      </trkpt>
      <trkpt lat="34.300201" lon="-117.430424">
        <ele>1472.796875</ele>
        <time>2017-11-05T02:48:11Z</time>
      </trkpt>
      <trkpt lat="34.300183" lon="-117.430377">
        <ele>1474.398438</ele>
        <time>2017-11-05T02:48:13Z</time>
      </trkpt>
      <trkpt lat="34.300156" lon="-117.430283">
        <ele>1475.199219</ele>
        <time>2017-11-05T02:48:14Z</time>
      </trkpt>
      <trkpt lat="34.300129" lon="-117.430236">
        <ele>1476.398438</ele>
        <time>2017-11-05T02:48:16Z</time>
      </trkpt>
      <trkpt lat="34.300074" lon="-117.430163">
        <ele>1476.500000</ele>
        <time>2017-11-05T02:48:17Z</time>
      </trkpt>
      <trkpt lat="34.299868" lon="-117.429895">
        <ele>1479.000000</ele>
        <time>2017-11-05T02:48:24Z</time>
      </trkpt>
      <trkpt lat="34.299868" lon="-117.42986">
        <ele>1480.000000</ele>
        <time>2017-11-05T02:48:26Z</time>
      </trkpt>
      <trkpt lat="34.299859" lon="-117.429754">
        <ele>1480.296875</ele>
        <time>2017-11-05T02:48:27Z</time>
      </trkpt>
      <trkpt lat="34.299859" lon="-117.429707">
        <ele>1480.699219</ele>
        <time>2017-11-05T02:48:29Z</time>
      </trkpt>
      <trkpt lat="34.29985" lon="-117.429637">
        <ele>1481.097656</ele>
        <time>2017-11-05T02:48:31Z</time>
      </trkpt>
      <trkpt lat="34.299859" lon="-117.429566">
        <ele>1481.597656</ele>
        <time>2017-11-05T02:48:33Z</time>
      </trkpt>
      <trkpt lat="34.299886" lon="-117.42939">
        <ele>1482.199219</ele>
        <time>2017-11-05T02:48:37Z</time>
      </trkpt>
      <trkpt lat="34.299886" lon="-117.429355">
        <ele>1482.898438</ele>
        <time>2017-11-05T02:48:39Z</time>
      </trkpt>
      <trkpt lat="34.299904" lon="-117.429261">
        <ele>1483.500000</ele>
        <time>2017-11-05T02:48:40Z</time>
      </trkpt>
      <trkpt lat="34.299904" lon="-117.429225">
        <ele>1483.898438</ele>
        <time>2017-11-05T02:48:42Z</time>
      </trkpt>
      <trkpt lat="34.299922" lon="-117.429131">
        <ele>1484.296875</ele>
        <time>2017-11-05T02:48:43Z</time>
      </trkpt>
      <trkpt lat="34.299931" lon="-117.429073">
        <ele>1485.796875</ele>
        <time>2017-11-05T02:48:45Z</time>
      </trkpt>
      <trkpt lat="34.299958" lon="-117.429002">
        <ele>1486.597656</ele>
        <time>2017-11-05T02:48:46Z</time>
      </trkpt>
      <trkpt lat="34.299976" lon="-117.428955">
        <ele>1486.699219</ele>
        <time>2017-11-05T02:48:48Z</time>
      </trkpt>
      <trkpt lat="34.300021" lon="-117.428885">
        <ele>1487.199219</ele>
        <time>2017-11-05T02:48:49Z</time>
      </trkpt>
      <trkpt lat="34.300066" lon="-117.428861">
        <ele>1488.500000</ele>
        <time>2017-11-05T02:48:52Z</time>
      </trkpt>
      <trkpt lat="34.300139" lon="-117.428818">
        <ele>1487.796875</ele>
        <time>2017-11-05T02:48:53Z</time>
      </trkpt>
      <trkpt lat="34.300156" lon="-117.428814">
        <ele>1488.398438</ele>
        <time>2017-11-05T02:48:55Z</time>
      </trkpt>
      <trkpt lat="34.300228" lon="-117.428838">
        <ele>1488.398438</ele>
        <time>2017-11-05T02:48:56Z</time>
      </trkpt>
      <trkpt lat="34.300561" lon="-117.428955">
        <ele>1492.398438</ele>
        <time>2017-11-05T02:49:06Z</time>
      </trkpt>
      <trkpt lat="34.300606" lon="-117.428943">
        <ele>1492.398438</ele>
        <time>2017-11-05T02:49:08Z</time>
      </trkpt>
      <trkpt lat="34.300651" lon="-117.428885">
        <ele>1492.597656</ele>
        <time>2017-11-05T02:49:09Z</time>
      </trkpt>
      <trkpt lat="34.30066" lon="-117.428849">
        <ele>1492.597656</ele>
        <time>2017-11-05T02:49:11Z</time>
      </trkpt>
      <trkpt lat="34.300669" lon="-117.428767">
        <ele>1492.796875</ele>
        <time>2017-11-05T02:49:12Z</time>
      </trkpt>
      <trkpt lat="34.30066" lon="-117.428708">
        <ele>1493.000000</ele>
        <time>2017-11-05T02:49:13Z</time>
      </trkpt>
      <trkpt lat="34.300648" lon="-117.42866">
        <ele>1493.597656</ele>
        <time>2017-11-05T02:49:15Z</time>
      </trkpt>
      <trkpt lat="34.300624" lon="-117.428567">
        <ele>1494.000000</ele>
        <time>2017-11-05T02:49:16Z</time>
      </trkpt>
      <trkpt lat="34.300601" lon="-117.428531">
        <ele>1494.699219</ele>
        <time>2017-11-05T02:49:18Z</time>
      </trkpt>
      <trkpt lat="34.300543" lon="-117.428415">
        <ele>1495.500000</ele>
        <time>2017-11-05T02:49:20Z</time>
      </trkpt>
      <trkpt lat="34.300516" lon="-117.428356">
        <ele>1495.898438</ele>
        <time>2017-11-05T02:49:21Z</time>
      </trkpt>
      <trkpt lat="34.300489" lon="-117.428327">
        <ele>1496.500000</ele>
        <time>2017-11-05T02:49:23Z</time>
      </trkpt>
      <trkpt lat="34.300437" lon="-117.428278">
        <ele>1497.898438</ele>
        <time>2017-11-05T02:49:25Z</time>
      </trkpt>
      <trkpt lat="34.30039" lon="-117.428238">
        <ele>1498.500000</ele>
        <time>2017-11-05T02:49:26Z</time>
      </trkpt>
      <trkpt lat="34.300354" lon="-117.428215">
        <ele>1498.398438</ele>
        <time>2017-11-05T02:49:28Z</time>
      </trkpt>
      <trkpt lat="34.300282" lon="-117.428202">
        <ele>1498.398438</ele>
        <time>2017-11-05T02:49:29Z</time>
      </trkpt>
      <trkpt lat="34.300246" lon="-117.428203">
        <ele>1498.597656</ele>
        <time>2017-11-05T02:49:31Z</time>
      </trkpt>
      <trkpt lat="34.300174" lon="-117.428191">
        <ele>1498.699219</ele>
        <time>2017-11-05T02:49:32Z</time>
      </trkpt>
      <trkpt lat="34.300143" lon="-117.428177">
        <ele>1499.000000</ele>
        <time>2017-11-05T02:49:34Z</time>
      </trkpt>
      <trkpt lat="34.300084" lon="-117.428133">
        <ele>1499.597656</ele>
        <time>2017-11-05T02:49:35Z</time>
      </trkpt>
      <trkpt lat="34.299985" lon="-117.428074">
        <ele>1500.000000</ele>
        <time>2017-11-05T02:49:38Z</time>
      </trkpt>
      <trkpt lat="34.299958" lon="-117.42805">
        <ele>1500.699219</ele>
        <time>2017-11-05T02:49:40Z</time>
      </trkpt>
      <trkpt lat="34.299906" lon="-117.427986">
        <ele>1501.097656</ele>
        <time>2017-11-05T02:49:41Z</time>
      </trkpt>
      <trkpt lat="34.299886" lon="-117.427968">
        <ele>1502.296875</ele>
        <time>2017-11-05T02:49:43Z</time>
      </trkpt>
      <trkpt lat="34.299841" lon="-117.427909">
        <ele>1502.898438</ele>
        <time>2017-11-05T02:49:44Z</time>
      </trkpt>
      <trkpt lat="34.299688" lon="-117.42771">
        <ele>1505.898438</ele>
        <time>2017-11-05T02:49:50Z</time>
      </trkpt>
      <trkpt lat="34.299553" lon="-117.427545">
        <ele>1508.000000</ele>
        <time>2017-11-05T02:49:55Z</time>
      </trkpt>
      <trkpt lat="34.299481" lon="-117.42746">
        <ele>1508.796875</ele>
        <time>2017-11-05T02:49:58Z</time>
      </trkpt>
      <trkpt lat="34.299463" lon="-117.427428">
        <ele>1509.000000</ele>
        <time>2017-11-05T02:50:00Z</time>
      </trkpt>
      <trkpt lat="34.299436" lon="-117.427357">
        <ele>1509.097656</ele>
        <time>2017-11-05T02:50:01Z</time>
      </trkpt>
      <trkpt lat="34.299427" lon="-117.42731">
        <ele>1509.398438</ele>
        <time>2017-11-05T02:50:03Z</time>
      </trkpt>
      <trkpt lat="34.299436" lon="-117.42724">
        <ele>1509.199219</ele>
        <time>2017-11-05T02:50:04Z</time>
      </trkpt>
      <trkpt lat="34.299454" lon="-117.427205">
        <ele>1510.398438</ele>
        <time>2017-11-05T02:50:06Z</time>
      </trkpt>
      <trkpt lat="34.299508" lon="-117.427142">
        <ele>1511.097656</ele>
        <time>2017-11-05T02:50:07Z</time>
      </trkpt>
      <trkpt lat="34.299616" lon="-117.427005">
        <ele>1514.796875</ele>
        <time>2017-11-05T02:50:12Z</time>
      </trkpt>
      <trkpt lat="34.299643" lon="-117.426981">
        <ele>1516.000000</ele>
        <time>2017-11-05T02:50:14Z</time>
      </trkpt>
      <trkpt lat="34.299688" lon="-117.426887">
        <ele>1516.199219</ele>
        <time>2017-11-05T02:50:15Z</time>
      </trkpt>
      <trkpt lat="34.299697" lon="-117.42684">
        <ele>1516.398438</ele>
        <time>2017-11-05T02:50:17Z</time>
      </trkpt>
      <trkpt lat="34.299697" lon="-117.426735">
        <ele>1517.000000</ele>
        <time>2017-11-05T02:50:18Z</time>
      </trkpt>
      <trkpt lat="34.299679" lon="-117.426688">
        <ele>1518.199219</ele>
        <time>2017-11-05T02:50:20Z</time>
      </trkpt>
      <trkpt lat="34.299652" lon="-117.426594">
        <ele>1518.296875</ele>
        <time>2017-11-05T02:50:21Z</time>
      </trkpt>
      <trkpt lat="34.299616" lon="-117.426582">
        <ele>1518.199219</ele>
        <time>2017-11-05T02:50:23Z</time>
      </trkpt>
      <trkpt lat="34.299544" lon="-117.42657">
        <ele>1518.699219</ele>
        <time>2017-11-05T02:50:24Z</time>
      </trkpt>
      <trkpt lat="34.299508" lon="-117.426558">
        <ele>1520.000000</ele>
        <time>2017-11-05T02:50:26Z</time>
      </trkpt>
      <trkpt lat="34.299427" lon="-117.426547">
        <ele>1520.500000</ele>
        <time>2017-11-05T02:50:27Z</time>
      </trkpt>
      <trkpt lat="34.299391" lon="-117.426547">
        <ele>1521.500000</ele>
        <time>2017-11-05T02:50:29Z</time>
      </trkpt>
      <trkpt lat="34.299305" lon="-117.426564">
        <ele>1522.000000</ele>
        <time>2017-11-05T02:50:30Z</time>
      </trkpt>
      <trkpt lat="34.299274" lon="-117.426558">
        <ele>1523.000000</ele>
        <time>2017-11-05T02:50:32Z</time>
      </trkpt>
      <trkpt lat="34.299211" lon="-117.42657">
        <ele>1523.500000</ele>
        <time>2017-11-05T02:50:33Z</time>
      </trkpt>
      <trkpt lat="34.299184" lon="-117.42657">
        <ele>1524.898438</ele>
        <time>2017-11-05T02:50:36Z</time>
      </trkpt>
      <trkpt lat="34.299112" lon="-117.426582">
        <ele>1525.296875</ele>
        <time>2017-11-05T02:50:37Z</time>
      </trkpt>
      <trkpt lat="34.299008" lon="-117.42659">
        <ele>1525.699219</ele>
        <time>2017-11-05T02:50:41Z</time>
      </trkpt>
      <trkpt lat="34.298986" lon="-117.426582">
        <ele>1525.796875</ele>
        <time>2017-11-05T02:50:44Z</time>
      </trkpt>
      <trkpt lat="34.298923" lon="-117.426511">
        <ele>1526.097656</ele>
        <time>2017-11-05T02:50:45Z</time>
      </trkpt>
      <trkpt lat="34.298914" lon="-117.426488">
        <ele>1526.296875</ele>
        <time>2017-11-05T02:50:48Z</time>
      </trkpt>
      <trkpt lat="34.29886" lon="-117.426394">
        <ele>1526.398438</ele>
        <time>2017-11-05T02:50:49Z</time>
      </trkpt>
      <trkpt lat="34.298866" lon="-117.426368">
        <ele>1527.500000</ele>
        <time>2017-11-05T02:50:52Z</time>
      </trkpt>
      <trkpt lat="34.298896" lon="-117.426206">
        <ele>1527.097656</ele>
        <time>2017-11-05T02:50:54Z</time>
      </trkpt>
      <trkpt lat="34.298914" lon="-117.426171">
        <ele>1527.398438</ele>
        <time>2017-11-05T02:50:56Z</time>
      </trkpt>
      <trkpt lat="34.298932" lon="-117.426088">
        <ele>1527.898438</ele>
        <time>2017-11-05T02:50:57Z</time>
      </trkpt>
      <trkpt lat="34.298923" lon="-117.426053">
        <ele>1528.898438</ele>
        <time>2017-11-05T02:50:59Z</time>
      </trkpt>
      <trkpt lat="34.298889" lon="-117.425954">
        <ele>1529.500000</ele>
        <time>2017-11-05T02:51:00Z</time>
      </trkpt>
      <trkpt lat="34.298878" lon="-117.425912">
        <ele>1530.699219</ele>
        <time>2017-11-05T02:51:02Z</time>
      </trkpt>
      <trkpt lat="34.298824" lon="-117.425853">
        <ele>1531.000000</ele>
        <time>2017-11-05T02:51:03Z</time>
      </trkpt>
      <trkpt lat="34.298795" lon="-117.425831">
        <ele>1530.597656</ele>
        <time>2017-11-05T02:51:05Z</time>
      </trkpt>
      <trkpt lat="34.298734" lon="-117.425783">
        <ele>1531.000000</ele>
        <time>2017-11-05T02:51:06Z</time>
      </trkpt>
      <trkpt lat="34.298712" lon="-117.425777">
        <ele>1535.296875</ele>
        <time>2017-11-05T02:52:52Z</time>
      </trkpt>
      <trkpt lat="34.298644" lon="-117.425759">
        <ele>1535.398438</ele>
        <time>2017-11-05T02:52:54Z</time>
      </trkpt>
      <trkpt lat="34.298615" lon="-117.425766">
        <ele>1534.796875</ele>
        <time>2017-11-05T02:52:58Z</time>
      </trkpt>
      <trkpt lat="34.298509" lon="-117.425795">
        <ele>1534.597656</ele>
        <time>2017-11-05T02:53:01Z</time>
      </trkpt>
      <trkpt lat="34.298482" lon="-117.425795">
        <ele>1533.796875</ele>
        <time>2017-11-05T02:53:05Z</time>
      </trkpt>
      <trkpt lat="34.29841" lon="-117.425842">
        <ele>1533.699219</ele>
        <time>2017-11-05T02:53:06Z</time>
      </trkpt>
      <trkpt lat="34.298396" lon="-117.42585">
        <ele>1532.597656</ele>
        <time>2017-11-05T02:53:11Z</time>
      </trkpt>
      <trkpt lat="34.298314" lon="-117.425877">
        <ele>1532.796875</ele>
        <time>2017-11-05T02:53:12Z</time>
      </trkpt>
      <trkpt lat="34.298302" lon="-117.425877">
        <ele>1532.699219</ele>
        <time>2017-11-05T02:53:16Z</time>
      </trkpt>
      <trkpt lat="34.298221" lon="-117.425842">
        <ele>1532.699219</ele>
        <time>2017-11-05T02:53:17Z</time>
      </trkpt>
      <trkpt lat="34.298203" lon="-117.42583">
        <ele>1533.199219</ele>
        <time>2017-11-05T02:53:21Z</time>
      </trkpt>
      <trkpt lat="34.298158" lon="-117.425748">
        <ele>1533.199219</ele>
        <time>2017-11-05T02:53:22Z</time>
      </trkpt>
      <trkpt lat="34.298145" lon="-117.425723">
        <ele>1534.000000</ele>
        <time>2017-11-05T02:53:25Z</time>
      </trkpt>
      <trkpt lat="34.298122" lon="-117.425642">
        <ele>1534.398438</ele>
        <time>2017-11-05T02:53:27Z</time>
      </trkpt>
      <trkpt lat="34.298086" lon="-117.425521">
        <ele>1535.699219</ele>
        <time>2017-11-05T02:53:32Z</time>
      </trkpt>
      <trkpt lat="34.298086" lon="-117.425489">
        <ele>1536.597656</ele>
        <time>2017-11-05T02:53:35Z</time>
      </trkpt>
      <trkpt lat="34.298104" lon="-117.425384">
        <ele>1536.898438</ele>
        <time>2017-11-05T02:53:36Z</time>
      </trkpt>
      <trkpt lat="34.298104" lon="-117.425348">
        <ele>1538.000000</ele>
        <time>2017-11-05T02:53:39Z</time>
      </trkpt>
      <trkpt lat="34.298123" lon="-117.42525">
        <ele>1538.296875</ele>
        <time>2017-11-05T02:53:40Z</time>
      </trkpt>
      <trkpt lat="34.298122" lon="-117.425207">
        <ele>1539.199219</ele>
        <time>2017-11-05T02:53:42Z</time>
      </trkpt>
      <trkpt lat="34.29814" lon="-117.425125">
        <ele>1539.699219</ele>
        <time>2017-11-05T02:53:43Z</time>
      </trkpt>
      <trkpt lat="34.298129" lon="-117.42509">
        <ele>1540.597656</ele>
        <time>2017-11-05T02:53:45Z</time>
      </trkpt>
      <trkpt lat="34.298104" lon="-117.424996">
        <ele>1540.597656</ele>
        <time>2017-11-05T02:53:46Z</time>
      </trkpt>
      <trkpt lat="34.298086" lon="-117.424949">
        <ele>1540.199219</ele>
        <time>2017-11-05T02:53:48Z</time>
      </trkpt>
      <trkpt lat="34.298032" lon="-117.424902">
        <ele>1539.898438</ele>
        <time>2017-11-05T02:53:49Z</time>
      </trkpt>
      <trkpt lat="34.297942" lon="-117.424831">
        <ele>1540.097656</ele>
        <time>2017-11-05T02:53:53Z</time>
      </trkpt>
      <trkpt lat="34.297924" lon="-117.424808">
        <ele>1540.296875</ele>
        <time>2017-11-05T02:53:55Z</time>
      </trkpt>
      <trkpt lat="34.297867" lon="-117.424768">
        <ele>1540.398438</ele>
        <time>2017-11-05T02:53:57Z</time>
      </trkpt>
      <trkpt lat="34.297777" lon="-117.424719">
        <ele>1541.199219</ele>
        <time>2017-11-05T02:53:59Z</time>
      </trkpt>
      <trkpt lat="34.297681" lon="-117.424667">
        <ele>1541.796875</ele>
        <time>2017-11-05T02:54:02Z</time>
      </trkpt>
      <trkpt lat="34.297645" lon="-117.424655">
        <ele>1542.296875</ele>
        <time>2017-11-05T02:54:04Z</time>
      </trkpt>
      <trkpt lat="34.297591" lon="-117.42462">
        <ele>1542.597656</ele>
        <time>2017-11-05T02:54:05Z</time>
      </trkpt>
      <trkpt lat="34.297564" lon="-117.424596">
        <ele>1543.296875</ele>
        <time>2017-11-05T02:54:07Z</time>
      </trkpt>
      <trkpt lat="34.297429" lon="-117.424479">
        <ele>1544.500000</ele>
        <time>2017-11-05T02:54:11Z</time>
      </trkpt>
      <trkpt lat="34.297402" lon="-117.424444">
        <ele>1545.199219</ele>
        <time>2017-11-05T02:54:13Z</time>
      </trkpt>
      <trkpt lat="34.297393" lon="-117.424338">
        <ele>1545.500000</ele>
        <time>2017-11-05T02:54:14Z</time>
      </trkpt>
      <trkpt lat="34.297384" lon="-117.424303">
        <ele>1546.199219</ele>
        <time>2017-11-05T02:54:16Z</time>
      </trkpt>
      <trkpt lat="34.297375" lon="-117.42422">
        <ele>1546.796875</ele>
        <time>2017-11-05T02:54:17Z</time>
      </trkpt>
      <trkpt lat="34.297365" lon="-117.424185">
        <ele>1548.296875</ele>
        <time>2017-11-05T02:54:19Z</time>
      </trkpt>
      <trkpt lat="34.297357" lon="-117.424091">
        <ele>1549.296875</ele>
        <time>2017-11-05T02:54:20Z</time>
      </trkpt>
      <trkpt lat="34.297346" lon="-117.424048">
        <ele>1549.699219</ele>
        <time>2017-11-05T02:54:22Z</time>
      </trkpt>
      <trkpt lat="34.297339" lon="-117.423962">
        <ele>1549.097656</ele>
        <time>2017-11-05T02:54:23Z</time>
      </trkpt>
      <trkpt lat="34.29733" lon="-117.423915">
        <ele>1550.296875</ele>
        <time>2017-11-05T02:54:25Z</time>
      </trkpt>
      <trkpt lat="34.29733" lon="-117.423797">
        <ele>1550.796875</ele>
        <time>2017-11-05T02:54:26Z</time>
      </trkpt>
      <trkpt lat="34.297345" lon="-117.423754">
        <ele>1551.097656</ele>
        <time>2017-11-05T02:54:28Z</time>
      </trkpt>
      <trkpt lat="34.297384" lon="-117.423703">
        <ele>1551.597656</ele>
        <time>2017-11-05T02:54:30Z</time>
      </trkpt>
      <trkpt lat="34.297447" lon="-117.423645">
        <ele>1551.597656</ele>
        <time>2017-11-05T02:54:31Z</time>
      </trkpt>
      <trkpt lat="34.297529" lon="-117.423578">
        <ele>1552.000000</ele>
        <time>2017-11-05T02:54:33Z</time>
      </trkpt>
      <trkpt lat="34.297681" lon="-117.423457">
        <ele>1553.398438</ele>
        <time>2017-11-05T02:54:38Z</time>
      </trkpt>
      <trkpt lat="34.297699" lon="-117.423433">
        <ele>1554.500000</ele>
        <time>2017-11-05T02:54:41Z</time>
      </trkpt>
      <trkpt lat="34.297744" lon="-117.423351">
        <ele>1554.199219</ele>
        <time>2017-11-05T02:54:42Z</time>
      </trkpt>
      <trkpt lat="34.297735" lon="-117.423316">
        <ele>1554.898438</ele>
        <time>2017-11-05T02:54:44Z</time>
      </trkpt>
      <trkpt lat="34.297726" lon="-117.42321">
        <ele>1554.796875</ele>
        <time>2017-11-05T02:54:45Z</time>
      </trkpt>
      <trkpt lat="34.297701" lon="-117.423166">
        <ele>1554.097656</ele>
        <time>2017-11-05T02:54:47Z</time>
      </trkpt>
      <trkpt lat="34.297663" lon="-117.423116">
        <ele>1553.296875</ele>
        <time>2017-11-05T02:54:49Z</time>
      </trkpt>
      <trkpt lat="34.297591" lon="-117.423022">
        <ele>1553.296875</ele>
        <time>2017-11-05T02:54:51Z</time>
      </trkpt>
      <trkpt lat="34.297555" lon="-117.422999">
        <ele>1553.097656</ele>
        <time>2017-11-05T02:54:53Z</time>
      </trkpt>
      <trkpt lat="34.297474" lon="-117.422952">
        <ele>1553.097656</ele>
        <time>2017-11-05T02:54:54Z</time>
      </trkpt>
      <trkpt lat="34.297429" lon="-117.422952">
        <ele>1553.296875</ele>
        <time>2017-11-05T02:54:56Z</time>
      </trkpt>
      <trkpt lat="34.297366" lon="-117.422975">
        <ele>1553.199219</ele>
        <time>2017-11-05T02:54:57Z</time>
      </trkpt>
      <trkpt lat="34.297321" lon="-117.422987">
        <ele>1553.199219</ele>
        <time>2017-11-05T02:54:59Z</time>
      </trkpt>
      <trkpt lat="34.297256" lon="-117.423056">
        <ele>1553.296875</ele>
        <time>2017-11-05T02:55:00Z</time>
      </trkpt>
      <trkpt lat="34.297159" lon="-117.423151">
        <ele>1553.500000</ele>
        <time>2017-11-05T02:55:03Z</time>
      </trkpt>
      <trkpt lat="34.297132" lon="-117.423187">
        <ele>1553.898438</ele>
        <time>2017-11-05T02:55:05Z</time>
      </trkpt>
      <trkpt lat="34.297078" lon="-117.423245">
        <ele>1554.199219</ele>
        <time>2017-11-05T02:55:06Z</time>
      </trkpt>
      <trkpt lat="34.297051" lon="-117.423269">
        <ele>1554.500000</ele>
        <time>2017-11-05T02:55:08Z</time>
      </trkpt>
      <trkpt lat="34.296988" lon="-117.423269">
        <ele>1554.699219</ele>
        <time>2017-11-05T02:55:09Z</time>
      </trkpt>
      <trkpt lat="34.296952" lon="-117.423269">
        <ele>1555.500000</ele>
        <time>2017-11-05T02:55:11Z</time>
      </trkpt>
      <trkpt lat="34.296889" lon="-117.423245">
        <ele>1555.296875</ele>
        <time>2017-11-05T02:55:12Z</time>
      </trkpt>
      <trkpt lat="34.296862" lon="-117.423222">
        <ele>1554.699219</ele>
        <time>2017-11-05T02:55:14Z</time>
      </trkpt>
      <trkpt lat="34.296808" lon="-117.423175">
        <ele>1554.898438</ele>
        <time>2017-11-05T02:55:15Z</time>
      </trkpt>
      <trkpt lat="34.296781" lon="-117.423163">
        <ele>1555.000000</ele>
        <time>2017-11-05T02:55:17Z</time>
      </trkpt>
      <trkpt lat="34.296718" lon="-117.423104">
        <ele>1554.898438</ele>
        <time>2017-11-05T02:55:18Z</time>
      </trkpt>
      <trkpt lat="34.296689" lon="-117.423076">
        <ele>1554.796875</ele>
        <time>2017-11-05T02:55:20Z</time>
      </trkpt>
      <trkpt lat="34.296619" lon="-117.423022">
        <ele>1554.597656</ele>
        <time>2017-11-05T02:55:21Z</time>
      </trkpt>
      <trkpt lat="34.296583" lon="-117.422987">
        <ele>1554.699219</ele>
        <time>2017-11-05T02:55:23Z</time>
      </trkpt>
      <trkpt lat="34.296538" lon="-117.42294">
        <ele>1554.898438</ele>
        <time>2017-11-05T02:55:24Z</time>
      </trkpt>
      <trkpt lat="34.296502" lon="-117.422916">
        <ele>1554.796875</ele>
        <time>2017-11-05T02:55:26Z</time>
      </trkpt>
      <trkpt lat="34.296447" lon="-117.422867">
        <ele>1554.898438</ele>
        <time>2017-11-05T02:55:27Z</time>
      </trkpt>
      <trkpt lat="34.296412" lon="-117.422846">
        <ele>1555.199219</ele>
        <time>2017-11-05T02:55:29Z</time>
      </trkpt>
      <trkpt lat="34.296355" lon="-117.422787">
        <ele>1555.199219</ele>
        <time>2017-11-05T02:55:30Z</time>
      </trkpt>
      <trkpt lat="34.296331" lon="-117.422764">
        <ele>1555.000000</ele>
        <time>2017-11-05T02:55:32Z</time>
      </trkpt>
      <trkpt lat="34.296196" lon="-117.422646">
        <ele>1554.898438</ele>
        <time>2017-11-05T02:55:35Z</time>
      </trkpt>
      <trkpt lat="34.296159" lon="-117.422617">
        <ele>1555.097656</ele>
        <time>2017-11-05T02:55:37Z</time>
      </trkpt>
      <trkpt lat="34.296099" lon="-117.422555">
        <ele>1555.398438</ele>
        <time>2017-11-05T02:55:38Z</time>
      </trkpt>
      <trkpt lat="34.296079" lon="-117.422529">
        <ele>1555.699219</ele>
        <time>2017-11-05T02:55:40Z</time>
      </trkpt>
      <trkpt lat="34.296033" lon="-117.422468">
        <ele>1555.898438</ele>
        <time>2017-11-05T02:55:41Z</time>
      </trkpt>
      <trkpt lat="34.296016" lon="-117.422423">
        <ele>1557.500000</ele>
        <time>2017-11-05T02:55:43Z</time>
      </trkpt>
      <trkpt lat="34.295973" lon="-117.422298">
        <ele>1559.500000</ele>
        <time>2017-11-05T02:55:46Z</time>
      </trkpt>
      <trkpt lat="34.295926" lon="-117.422164">
        <ele>1560.398438</ele>
        <time>2017-11-05T02:55:50Z</time>
      </trkpt>
      <trkpt lat="34.295926" lon="-117.422129">
        <ele>1560.296875</ele>
        <time>2017-11-05T02:55:53Z</time>
      </trkpt>
      <trkpt lat="34.295928" lon="-117.421856">
        <ele>1560.199219</ele>
        <time>2017-11-05T02:56:03Z</time>
      </trkpt>
      <trkpt lat="34.295926" lon="-117.421847">
        <ele>1559.296875</ele>
        <time>2017-11-05T02:57:04Z</time>
      </trkpt>
      <trkpt lat="34.295953" lon="-117.42173">
        <ele>1559.597656</ele>
        <time>2017-11-05T02:57:10Z</time>
      </trkpt>
      <trkpt lat="34.295962" lon="-117.421718">
        <ele>1562.097656</ele>
        <time>2017-11-05T02:57:49Z</time>
      </trkpt>
      <trkpt lat="34.296007" lon="-117.421612">
        <ele>1562.199219</ele>
        <time>2017-11-05T02:57:50Z</time>
      </trkpt>
      <trkpt lat="34.296018" lon="-117.421596">
        <ele>1565.000000</ele>
        <time>2017-11-05T02:58:13Z</time>
      </trkpt>
      <trkpt lat="34.296106" lon="-117.421412">
        <ele>1565.296875</ele>
        <time>2017-11-05T02:58:16Z</time>
      </trkpt>
      <trkpt lat="34.296106" lon="-117.421401">
        <ele>1568.699219</ele>
        <time>2017-11-05T02:58:23Z</time>
      </trkpt>
      <trkpt lat="34.296154" lon="-117.421317">
        <ele>1569.000000</ele>
        <time>2017-11-05T02:58:24Z</time>
      </trkpt>
      <trkpt lat="34.296205" lon="-117.421213">
        <ele>1569.796875</ele>
        <time>2017-11-05T02:58:30Z</time>
      </trkpt>
      <trkpt lat="34.296214" lon="-117.421192">
        <ele>1570.398438</ele>
        <time>2017-11-05T02:58:34Z</time>
      </trkpt>
      <trkpt lat="34.295926" lon="-117.421037">
        <ele>1570.500000</ele>
        <time>2017-11-05T02:58:35Z</time>
      </trkpt>
      <trkpt lat="34.295917" lon="-117.421025">
        <ele>1571.597656</ele>
        <time>2017-11-05T02:58:40Z</time>
      </trkpt>
      <trkpt lat="34.295863" lon="-117.420919">
        <ele>1571.898438</ele>
        <time>2017-11-05T02:58:41Z</time>
      </trkpt>
      <trkpt lat="34.295818" lon="-117.420813">
        <ele>1573.097656</ele>
        <time>2017-11-05T02:58:45Z</time>
      </trkpt>
      <trkpt lat="34.2958" lon="-117.420802">
        <ele>1573.398438</ele>
        <time>2017-11-05T02:58:49Z</time>
      </trkpt>
      <trkpt lat="34.295764" lon="-117.420684">
        <ele>1573.398438</ele>
        <time>2017-11-05T02:58:50Z</time>
      </trkpt>
      <trkpt lat="34.295768" lon="-117.42066">
        <ele>1573.199219</ele>
        <time>2017-11-05T02:58:54Z</time>
      </trkpt>
      <trkpt lat="34.295782" lon="-117.420567">
        <ele>1573.000000</ele>
        <time>2017-11-05T02:58:55Z</time>
      </trkpt>
      <trkpt lat="34.295782" lon="-117.420543">
        <ele>1572.199219</ele>
        <time>2017-11-05T02:58:59Z</time>
      </trkpt>
      <trkpt lat="34.295782" lon="-117.420426">
        <ele>1572.000000</ele>
        <time>2017-11-05T02:59:00Z</time>
      </trkpt>
      <trkpt lat="34.295818" lon="-117.420402">
        <ele>1571.398438</ele>
        <time>2017-11-05T02:59:04Z</time>
      </trkpt>
      <trkpt lat="34.295809" lon="-117.42032">
        <ele>1571.000000</ele>
        <time>2017-11-05T02:59:06Z</time>
      </trkpt>
      <trkpt lat="34.295836" lon="-117.420285">
        <ele>1570.500000</ele>
        <time>2017-11-05T02:59:10Z</time>
      </trkpt>
      <trkpt lat="34.295836" lon="-117.420202">
        <ele>1568.597656</ele>
        <time>2017-11-05T03:01:23Z</time>
      </trkpt>
      <trkpt lat="34.295836" lon="-117.420202">
        <ele>1568.597656</ele>
        <time>2017-11-05T03:01:23Z</time>
      </trkpt>
    </trkseg>
    <trkseg>
      <trkpt lat="34.295881" lon="-117.42005">
        <ele>1571.796875</ele>
        <time>2017-11-05T03:03:48Z</time>
      </trkpt>
      <trkpt lat="34.295764" lon="-117.419768">
        <ele>1572.796875</ele>
        <time>2017-11-05T03:04:23Z</time>
      </trkpt>
      <trkpt lat="34.295755" lon="-117.419732">
        <ele>1573.097656</ele>
        <time>2017-11-05T03:04:24Z</time>
      </trkpt>
      <trkpt lat="34.296061" lon="-117.419568">
        <ele>1573.296875</ele>
        <time>2017-11-05T03:04:25Z</time>
      </trkpt>
      <trkpt lat="34.29607" lon="-117.419544">
        <ele>1574.597656</ele>
        <time>2017-11-05T03:04:29Z</time>
      </trkpt>
      <trkpt lat="34.296088" lon="-117.419462">
        <ele>1575.699219</ele>
        <time>2017-11-05T03:04:31Z</time>
      </trkpt>
      <trkpt lat="34.296097" lon="-117.419439">
        <ele>1578.597656</ele>
        <time>2017-11-05T03:04:38Z</time>
      </trkpt>
      <trkpt lat="34.296115" lon="-117.419345">
        <ele>1579.097656</ele>
        <time>2017-11-05T03:04:39Z</time>
      </trkpt>
      <trkpt lat="34.296061" lon="-117.419333">
        <ele>1579.000000</ele>
        <time>2017-11-05T03:05:03Z</time>
      </trkpt>
      <trkpt lat="34.296061" lon="-117.419251">
        <ele>1579.597656</ele>
        <time>2017-11-05T03:05:05Z</time>
      </trkpt>
      <trkpt lat="34.296088" lon="-117.419215">
        <ele>1580.699219</ele>
        <time>2017-11-05T03:05:10Z</time>
      </trkpt>
      <trkpt lat="34.296036" lon="-117.419127">
        <ele>1580.898438</ele>
        <time>2017-11-05T03:05:11Z</time>
      </trkpt>
      <trkpt lat="34.296025" lon="-117.419121">
        <ele>1577.199219</ele>
        <time>2017-11-05T03:05:47Z</time>
      </trkpt>
      <trkpt lat="34.295908" lon="-117.419051">
        <ele>1577.000000</ele>
        <time>2017-11-05T03:05:48Z</time>
      </trkpt>
      <trkpt lat="34.295926" lon="-117.418992">
        <ele>1576.699219</ele>
        <time>2017-11-05T03:05:51Z</time>
      </trkpt>
      <trkpt lat="34.295845" lon="-117.418957">
        <ele>1576.699219</ele>
        <time>2017-11-05T03:05:52Z</time>
      </trkpt>
      <trkpt lat="34.295827" lon="-117.418969">
        <ele>1576.000000</ele>
        <time>2017-11-05T03:05:56Z</time>
      </trkpt>
      <trkpt lat="34.295755" lon="-117.419016">
        <ele>1575.296875</ele>
        <time>2017-11-05T03:05:58Z</time>
      </trkpt>
      <trkpt lat="34.295737" lon="-117.418957">
        <ele>1574.699219</ele>
        <time>2017-11-05T03:06:01Z</time>
      </trkpt>
      <trkpt lat="34.295683" lon="-117.418945">
        <ele>1574.699219</ele>
        <time>2017-11-05T03:06:02Z</time>
      </trkpt>
      <trkpt lat="34.295647" lon="-117.419004">
        <ele>1573.898438</ele>
        <time>2017-11-05T03:06:06Z</time>
      </trkpt>
      <trkpt lat="34.295422" lon="-117.419157">
        <ele>1573.699219</ele>
        <time>2017-11-05T03:06:07Z</time>
      </trkpt>
      <trkpt lat="34.29541" lon="-117.41914">
        <ele>1572.796875</ele>
        <time>2017-11-05T03:06:31Z</time>
      </trkpt>
      <trkpt lat="34.295476" lon="-117.418969">
        <ele>1572.699219</ele>
        <time>2017-11-05T03:06:32Z</time>
      </trkpt>
      <trkpt lat="34.295458" lon="-117.418969">
        <ele>1572.500000</ele>
        <time>2017-11-05T03:06:34Z</time>
      </trkpt>
      <trkpt lat="34.295359" lon="-117.419063">
        <ele>1572.699219</ele>
        <time>2017-11-05T03:06:35Z</time>
      </trkpt>
      <trkpt lat="34.295348" lon="-117.41905">
        <ele>1573.398438</ele>
        <time>2017-11-05T03:08:22Z</time>
      </trkpt>
      <trkpt lat="34.295278" lon="-117.418992">
        <ele>1573.500000</ele>
        <time>2017-11-05T03:08:23Z</time>
      </trkpt>
      <trkpt lat="34.295266" lon="-117.418986">
        <ele>1572.199219</ele>
        <time>2017-11-05T03:08:32Z</time>
      </trkpt>
      <trkpt lat="34.295206" lon="-117.418907">
        <ele>1572.296875</ele>
        <time>2017-11-05T03:08:33Z</time>
      </trkpt>
      <trkpt lat="34.295206" lon="-117.418898">
        <ele>1572.000000</ele>
        <time>2017-11-05T03:08:41Z</time>
      </trkpt>
      <trkpt lat="34.295177" lon="-117.41878">
        <ele>1571.597656</ele>
        <time>2017-11-05T03:08:42Z</time>
      </trkpt>
      <trkpt lat="34.295179" lon="-117.418757">
        <ele>1571.000000</ele>
        <time>2017-11-05T03:08:49Z</time>
      </trkpt>
      <trkpt lat="34.29517" lon="-117.418663">
        <ele>1571.199219</ele>
        <time>2017-11-05T03:08:51Z</time>
      </trkpt>
      <trkpt lat="34.295161" lon="-117.41864">
        <ele>1571.699219</ele>
        <time>2017-11-05T03:09:00Z</time>
      </trkpt>
      <trkpt lat="34.295152" lon="-117.418464">
        <ele>1571.500000</ele>
        <time>2017-11-05T03:09:01Z</time>
      </trkpt>
      <trkpt lat="34.295148" lon="-117.418449">
        <ele>1571.796875</ele>
        <time>2017-11-05T03:09:07Z</time>
      </trkpt>
      <trkpt lat="34.295152" lon="-117.418346">
        <ele>1571.796875</ele>
        <time>2017-11-05T03:09:08Z</time>
      </trkpt>
      <trkpt lat="34.295152" lon="-117.418323">
        <ele>1572.000000</ele>
        <time>2017-11-05T03:09:12Z</time>
      </trkpt>
      <trkpt lat="34.29514" lon="-117.418205">
        <ele>1572.000000</ele>
        <time>2017-11-05T03:09:14Z</time>
      </trkpt>
      <trkpt lat="34.295143" lon="-117.418193">
        <ele>1572.199219</ele>
        <time>2017-11-05T03:09:19Z</time>
      </trkpt>
      <trkpt lat="34.295143" lon="-117.418088">
        <ele>1572.296875</ele>
        <time>2017-11-05T03:09:20Z</time>
      </trkpt>
      <trkpt lat="34.295135" lon="-117.41807">
        <ele>1572.097656</ele>
        <time>2017-11-05T03:09:26Z</time>
      </trkpt>
      <trkpt lat="34.295134" lon="-117.417958">
        <ele>1572.000000</ele>
        <time>2017-11-05T03:09:27Z</time>
      </trkpt>
      <trkpt lat="34.295134" lon="-117.417806">
        <ele>1573.699219</ele>
        <time>2017-11-05T03:10:09Z</time>
      </trkpt>
      <trkpt lat="34.295125" lon="-117.417782">
        <ele>1574.500000</ele>
        <time>2017-11-05T03:10:18Z</time>
      </trkpt>
      <trkpt lat="34.295125" lon="-117.417665">
        <ele>1574.699219</ele>
        <time>2017-11-05T03:10:19Z</time>
      </trkpt>
      <trkpt lat="34.295121" lon="-117.417637">
        <ele>1575.500000</ele>
        <time>2017-11-05T03:10:24Z</time>
      </trkpt>
      <trkpt lat="34.295125" lon="-117.417547">
        <ele>1575.699219</ele>
        <time>2017-11-05T03:10:25Z</time>
      </trkpt>
      <trkpt lat="34.295117" lon="-117.417521">
        <ele>1576.296875</ele>
        <time>2017-11-05T03:10:28Z</time>
      </trkpt>
      <trkpt lat="34.295116" lon="-117.41743">
        <ele>1576.597656</ele>
        <time>2017-11-05T03:10:29Z</time>
      </trkpt>
      <trkpt lat="34.295109" lon="-117.417299">
        <ele>1577.796875</ele>
        <time>2017-11-05T03:10:36Z</time>
      </trkpt>
      <trkpt lat="34.295116" lon="-117.417289">
        <ele>1578.500000</ele>
        <time>2017-11-05T03:10:42Z</time>
      </trkpt>
      <trkpt lat="34.295089" lon="-117.417171">
        <ele>1578.699219</ele>
        <time>2017-11-05T03:10:43Z</time>
      </trkpt>
      <trkpt lat="34.295077" lon="-117.417155">
        <ele>1581.097656</ele>
        <time>2017-11-05T03:10:48Z</time>
      </trkpt>
      <trkpt lat="34.295035" lon="-117.417067">
        <ele>1581.296875</ele>
        <time>2017-11-05T03:10:49Z</time>
      </trkpt>
      <trkpt lat="34.295026" lon="-117.417042">
        <ele>1582.296875</ele>
        <time>2017-11-05T03:10:52Z</time>
      </trkpt>
      <trkpt lat="34.29499" lon="-117.416971">
        <ele>1583.097656</ele>
        <time>2017-11-05T03:10:54Z</time>
      </trkpt>
      <trkpt lat="34.294972" lon="-117.416924">
        <ele>1584.500000</ele>
        <time>2017-11-05T03:10:57Z</time>
      </trkpt>
      <trkpt lat="34.294943" lon="-117.416873">
        <ele>1584.699219</ele>
        <time>2017-11-05T03:11:00Z</time>
      </trkpt>
      <trkpt lat="34.294914" lon="-117.416814">
        <ele>1584.699219</ele>
        <time>2017-11-05T03:11:02Z</time>
      </trkpt>
      <trkpt lat="34.294886" lon="-117.416779">
        <ele>1584.097656</ele>
        <time>2017-11-05T03:11:06Z</time>
      </trkpt>
      <trkpt lat="34.294837" lon="-117.416725">
        <ele>1583.097656</ele>
        <time>2017-11-05T03:11:08Z</time>
      </trkpt>
      <trkpt lat="34.294811" lon="-117.416684">
        <ele>1582.199219</ele>
        <time>2017-11-05T03:11:12Z</time>
      </trkpt>
      <trkpt lat="34.294774" lon="-117.416643">
        <ele>1582.000000</ele>
        <time>2017-11-05T03:11:15Z</time>
      </trkpt>
      <trkpt lat="34.294697" lon="-117.41654">
        <ele>1582.000000</ele>
        <time>2017-11-05T03:11:22Z</time>
      </trkpt>
      <trkpt lat="34.294693" lon="-117.416537">
        <ele>1583.296875</ele>
        <time>2017-11-05T03:11:27Z</time>
      </trkpt>
      <trkpt lat="34.29463" lon="-117.416455">
        <ele>1583.398438</ele>
        <time>2017-11-05T03:11:28Z</time>
      </trkpt>
      <trkpt lat="34.294618" lon="-117.416434">
        <ele>1585.398438</ele>
        <time>2017-11-05T03:11:33Z</time>
      </trkpt>
      <trkpt lat="34.294586" lon="-117.416336">
        <ele>1586.000000</ele>
        <time>2017-11-05T03:11:34Z</time>
      </trkpt>
      <trkpt lat="34.294585" lon="-117.416325">
        <ele>1590.296875</ele>
        <time>2017-11-05T03:11:55Z</time>
      </trkpt>
      <trkpt lat="34.294549" lon="-117.416208">
        <ele>1590.000000</ele>
        <time>2017-11-05T03:12:09Z</time>
      </trkpt>
      <trkpt lat="34.29454" lon="-117.416196">
        <ele>1589.699219</ele>
        <time>2017-11-05T03:12:17Z</time>
      </trkpt>
      <trkpt lat="34.294521" lon="-117.41609">
        <ele>1589.898438</ele>
        <time>2017-11-05T03:12:18Z</time>
      </trkpt>
      <trkpt lat="34.294522" lon="-117.416079">
        <ele>1591.296875</ele>
        <time>2017-11-05T03:12:36Z</time>
      </trkpt>
      <trkpt lat="34.294504" lon="-117.415973">
        <ele>1591.500000</ele>
        <time>2017-11-05T03:12:38Z</time>
      </trkpt>
      <trkpt lat="34.294504" lon="-117.415961">
        <ele>1592.199219</ele>
        <time>2017-11-05T03:12:46Z</time>
      </trkpt>
      <trkpt lat="34.294459" lon="-117.415867">
        <ele>1592.398438</ele>
        <time>2017-11-05T03:12:47Z</time>
      </trkpt>
      <trkpt lat="34.294441" lon="-117.415855">
        <ele>1595.199219</ele>
        <time>2017-11-05T03:12:51Z</time>
      </trkpt>
      <trkpt lat="34.29436" lon="-117.415785">
        <ele>1595.898438</ele>
        <time>2017-11-05T03:12:52Z</time>
      </trkpt>
      <trkpt lat="34.294341" lon="-117.415768">
        <ele>1598.097656</ele>
        <time>2017-11-05T03:12:55Z</time>
      </trkpt>
      <trkpt lat="34.294288" lon="-117.415703">
        <ele>1599.097656</ele>
        <time>2017-11-05T03:12:56Z</time>
      </trkpt>
      <trkpt lat="34.29427" lon="-117.415679">
        <ele>1600.796875</ele>
        <time>2017-11-05T03:12:59Z</time>
      </trkpt>
      <trkpt lat="34.294231" lon="-117.41559">
        <ele>1601.097656</ele>
        <time>2017-11-05T03:13:00Z</time>
      </trkpt>
      <trkpt lat="34.294234" lon="-117.415573">
        <ele>1601.500000</ele>
        <time>2017-11-05T03:13:01Z</time>
      </trkpt>
      <trkpt lat="34.294207" lon="-117.415444">
        <ele>1601.699219</ele>
        <time>2017-11-05T03:13:02Z</time>
      </trkpt>
      <trkpt lat="34.294203" lon="-117.415414">
        <ele>1602.597656</ele>
        <time>2017-11-05T03:13:06Z</time>
      </trkpt>
      <trkpt lat="34.294522" lon="-117.415256">
        <ele>1602.597656</ele>
        <time>2017-11-05T03:13:07Z</time>
      </trkpt>
      <trkpt lat="34.294531" lon="-117.415221">
        <ele>1603.296875</ele>
        <time>2017-11-05T03:13:10Z</time>
      </trkpt>
      <trkpt lat="34.294549" lon="-117.415139">
        <ele>1604.000000</ele>
        <time>2017-11-05T03:13:12Z</time>
      </trkpt>
      <trkpt lat="34.294549" lon="-117.415092">
        <ele>1604.199219</ele>
        <time>2017-11-05T03:13:15Z</time>
      </trkpt>
      <trkpt lat="34.294531" lon="-117.415021">
        <ele>1604.699219</ele>
        <time>2017-11-05T03:13:17Z</time>
      </trkpt>
      <trkpt lat="34.294513" lon="-117.414986">
        <ele>1605.898438</ele>
        <time>2017-11-05T03:13:22Z</time>
      </trkpt>
      <trkpt lat="34.294477" lon="-117.414904">
        <ele>1606.097656</ele>
        <time>2017-11-05T03:13:24Z</time>
      </trkpt>
      <trkpt lat="34.294459" lon="-117.41488">
        <ele>1606.199219</ele>
        <time>2017-11-05T03:13:28Z</time>
      </trkpt>
      <trkpt lat="34.294126" lon="-117.414892">
        <ele>1606.199219</ele>
        <time>2017-11-05T03:13:29Z</time>
      </trkpt>
      <trkpt lat="34.294117" lon="-117.414876">
        <ele>1606.097656</ele>
        <time>2017-11-05T03:13:32Z</time>
      </trkpt>
      <trkpt lat="34.294423" lon="-117.414727">
        <ele>1606.199219</ele>
        <time>2017-11-05T03:13:33Z</time>
      </trkpt>
      <trkpt lat="34.294423" lon="-117.414704">
        <ele>1606.398438</ele>
        <time>2017-11-05T03:13:34Z</time>
      </trkpt>
      <trkpt lat="34.294108" lon="-117.414763">
        <ele>1606.296875</ele>
        <time>2017-11-05T03:13:36Z</time>
      </trkpt>
      <trkpt lat="34.294099" lon="-117.414716">
        <ele>1606.500000</ele>
        <time>2017-11-05T03:13:37Z</time>
      </trkpt>
      <trkpt lat="34.294405" lon="-117.41461">
        <ele>1606.199219</ele>
        <time>2017-11-05T03:13:40Z</time>
      </trkpt>
      <trkpt lat="34.294081" lon="-117.414598">
        <ele>1605.898438</ele>
        <time>2017-11-05T03:13:41Z</time>
      </trkpt>
      <trkpt lat="34.294073" lon="-117.414563">
        <ele>1605.699219</ele>
        <time>2017-11-05T03:13:42Z</time>
      </trkpt>
      <trkpt lat="34.294081" lon="-117.414446">
        <ele>1605.500000</ele>
        <time>2017-11-05T03:13:43Z</time>
      </trkpt>
      <trkpt lat="34.294082" lon="-117.414416">
        <ele>1603.796875</ele>
        <time>2017-11-05T03:13:46Z</time>
      </trkpt>
      <trkpt lat="34.294081" lon="-117.414316">
        <ele>1603.398438</ele>
        <time>2017-11-05T03:13:47Z</time>
      </trkpt>
      <trkpt lat="34.294099" lon="-117.414293">
        <ele>1603.097656</ele>
        <time>2017-11-05T03:13:50Z</time>
      </trkpt>
      <trkpt lat="34.294144" lon="-117.414222">
        <ele>1603.097656</ele>
        <time>2017-11-05T03:13:51Z</time>
      </trkpt>
      <trkpt lat="34.294216" lon="-117.414105">
        <ele>1603.500000</ele>
        <time>2017-11-05T03:13:57Z</time>
      </trkpt>
      <trkpt lat="34.294234" lon="-117.41407">
        <ele>1604.199219</ele>
        <time>2017-11-05T03:13:59Z</time>
      </trkpt>
      <trkpt lat="34.294279" lon="-117.413999">
        <ele>1605.199219</ele>
        <time>2017-11-05T03:14:00Z</time>
      </trkpt>
      <trkpt lat="34.294302" lon="-117.413963">
        <ele>1605.500000</ele>
        <time>2017-11-05T03:14:02Z</time>
      </trkpt>
      <trkpt lat="34.294342" lon="-117.413882">
        <ele>1605.898438</ele>
        <time>2017-11-05T03:14:03Z</time>
      </trkpt>
      <trkpt lat="34.294353" lon="-117.413846">
        <ele>1606.699219</ele>
        <time>2017-11-05T03:14:05Z</time>
      </trkpt>
      <trkpt lat="34.294378" lon="-117.413776">
        <ele>1607.000000</ele>
        <time>2017-11-05T03:14:06Z</time>
      </trkpt>
      <trkpt lat="34.294387" lon="-117.413741">
        <ele>1607.500000</ele>
        <time>2017-11-05T03:14:08Z</time>
      </trkpt>
      <trkpt lat="34.294405" lon="-117.413658">
        <ele>1607.796875</ele>
        <time>2017-11-05T03:14:09Z</time>
      </trkpt>
      <trkpt lat="34.294405" lon="-117.413611">
        <ele>1608.000000</ele>
        <time>2017-11-05T03:14:11Z</time>
      </trkpt>
      <trkpt lat="34.294416" lon="-117.413516">
        <ele>1608.199219</ele>
        <time>2017-11-05T03:14:12Z</time>
      </trkpt>
      <trkpt lat="34.294405" lon="-117.41347">
        <ele>1608.597656</ele>
        <time>2017-11-05T03:14:14Z</time>
      </trkpt>
      <trkpt lat="34.294378" lon="-117.413341">
        <ele>1609.097656</ele>
        <time>2017-11-05T03:14:16Z</time>
      </trkpt>
      <trkpt lat="34.29436" lon="-117.413294">
        <ele>1609.199219</ele>
        <time>2017-11-05T03:14:18Z</time>
      </trkpt>
      <trkpt lat="34.294351" lon="-117.413199">
        <ele>1609.296875</ele>
        <time>2017-11-05T03:14:19Z</time>
      </trkpt>
      <trkpt lat="34.294351" lon="-117.413153">
        <ele>1609.500000</ele>
        <time>2017-11-05T03:14:21Z</time>
      </trkpt>
      <trkpt lat="34.294369" lon="-117.413047">
        <ele>1609.699219</ele>
        <time>2017-11-05T03:14:22Z</time>
      </trkpt>
      <trkpt lat="34.294389" lon="-117.413011">
        <ele>1610.000000</ele>
        <time>2017-11-05T03:14:24Z</time>
      </trkpt>
      <trkpt lat="34.294513" lon="-117.412789">
        <ele>1610.500000</ele>
        <time>2017-11-05T03:14:28Z</time>
      </trkpt>
      <trkpt lat="34.294531" lon="-117.412742">
        <ele>1610.699219</ele>
        <time>2017-11-05T03:14:30Z</time>
      </trkpt>
      <trkpt lat="34.294576" lon="-117.41266">
        <ele>1610.898438</ele>
        <time>2017-11-05T03:14:31Z</time>
      </trkpt>
      <trkpt lat="34.294594" lon="-117.412624">
        <ele>1611.500000</ele>
        <time>2017-11-05T03:14:33Z</time>
      </trkpt>
      <trkpt lat="34.29463" lon="-117.41253">
        <ele>1611.898438</ele>
        <time>2017-11-05T03:14:34Z</time>
      </trkpt>
      <trkpt lat="34.294648" lon="-117.412484">
        <ele>1612.597656</ele>
        <time>2017-11-05T03:14:36Z</time>
      </trkpt>
      <trkpt lat="34.294648" lon="-117.41239">
        <ele>1612.796875</ele>
        <time>2017-11-05T03:14:37Z</time>
      </trkpt>
      <trkpt lat="34.294648" lon="-117.412343">
        <ele>1613.500000</ele>
        <time>2017-11-05T03:14:39Z</time>
      </trkpt>
      <trkpt lat="34.294639" lon="-117.412249">
        <ele>1614.000000</ele>
        <time>2017-11-05T03:14:40Z</time>
      </trkpt>
      <trkpt lat="34.294625" lon="-117.41222">
        <ele>1614.597656</ele>
        <time>2017-11-05T03:14:42Z</time>
      </trkpt>
      <trkpt lat="34.294585" lon="-117.412137">
        <ele>1614.898438</ele>
        <time>2017-11-05T03:14:43Z</time>
      </trkpt>
      <trkpt lat="34.294567" lon="-117.412108">
        <ele>1615.296875</ele>
        <time>2017-11-05T03:14:45Z</time>
      </trkpt>
      <trkpt lat="34.294522" lon="-117.412037">
        <ele>1614.898438</ele>
        <time>2017-11-05T03:14:46Z</time>
      </trkpt>
      <trkpt lat="34.294495" lon="-117.412002">
        <ele>1614.398438</ele>
        <time>2017-11-05T03:14:48Z</time>
      </trkpt>
      <trkpt lat="34.294432" lon="-117.411967">
        <ele>1614.199219</ele>
        <time>2017-11-05T03:14:49Z</time>
      </trkpt>
      <trkpt lat="34.294405" lon="-117.411953">
        <ele>1613.898438</ele>
        <time>2017-11-05T03:14:51Z</time>
      </trkpt>
      <trkpt lat="34.294261" lon="-117.411896">
        <ele>1612.500000</ele>
        <time>2017-11-05T03:14:55Z</time>
      </trkpt>
      <trkpt lat="34.294243" lon="-117.411896">
        <ele>1611.597656</ele>
        <time>2017-11-05T03:14:58Z</time>
      </trkpt>
      <trkpt lat="34.293915" lon="-117.4119">
        <ele>1611.000000</ele>
        <time>2017-11-05T03:15:09Z</time>
      </trkpt>
      <trkpt lat="34.293892" lon="-117.411908">
        <ele>1610.898438</ele>
        <time>2017-11-05T03:15:12Z</time>
      </trkpt>
      <trkpt lat="34.293703" lon="-117.411978">
        <ele>1610.296875</ele>
        <time>2017-11-05T03:15:16Z</time>
      </trkpt>
      <trkpt lat="34.293658" lon="-117.412002">
        <ele>1609.898438</ele>
        <time>2017-11-05T03:15:18Z</time>
      </trkpt>
      <trkpt lat="34.293586" lon="-117.41199">
        <ele>1609.796875</ele>
        <time>2017-11-05T03:15:19Z</time>
      </trkpt>
      <trkpt lat="34.29355" lon="-117.411978">
        <ele>1609.296875</ele>
        <time>2017-11-05T03:15:21Z</time>
      </trkpt>
      <trkpt lat="34.293496" lon="-117.411931">
        <ele>1609.097656</ele>
        <time>2017-11-05T03:15:22Z</time>
      </trkpt>
      <trkpt lat="34.293475" lon="-117.411902">
        <ele>1607.796875</ele>
        <time>2017-11-05T03:15:25Z</time>
      </trkpt>
      <trkpt lat="34.293415" lon="-117.411814">
        <ele>1607.597656</ele>
        <time>2017-11-05T03:15:26Z</time>
      </trkpt>
      <trkpt lat="34.293388" lon="-117.41179">
        <ele>1606.898438</ele>
        <time>2017-11-05T03:15:28Z</time>
      </trkpt>
      <trkpt lat="34.293343" lon="-117.41172">
        <ele>1606.500000</ele>
        <time>2017-11-05T03:15:29Z</time>
      </trkpt>
      <trkpt lat="34.293322" lon="-117.411685">
        <ele>1605.699219</ele>
        <time>2017-11-05T03:15:31Z</time>
      </trkpt>
      <trkpt lat="34.293278" lon="-117.411593">
        <ele>1604.597656</ele>
        <time>2017-11-05T03:15:33Z</time>
      </trkpt>
      <trkpt lat="34.293271" lon="-117.411541">
        <ele>1605.199219</ele>
        <time>2017-11-05T03:15:36Z</time>
      </trkpt>
      <trkpt lat="34.29328" lon="-117.411438">
        <ele>1605.398438</ele>
        <time>2017-11-05T03:15:37Z</time>
      </trkpt>
      <trkpt lat="34.293298" lon="-117.411403">
        <ele>1604.699219</ele>
        <time>2017-11-05T03:15:39Z</time>
      </trkpt>
      <trkpt lat="34.293334" lon="-117.411332">
        <ele>1604.398438</ele>
        <time>2017-11-05T03:15:40Z</time>
      </trkpt>
      <trkpt lat="34.293352" lon="-117.411285">
        <ele>1603.699219</ele>
        <time>2017-11-05T03:15:42Z</time>
      </trkpt>
      <trkpt lat="34.293406" lon="-117.411179">
        <ele>1603.699219</ele>
        <time>2017-11-05T03:15:43Z</time>
      </trkpt>
      <trkpt lat="34.293403" lon="-117.41113">
        <ele>1603.097656</ele>
        <time>2017-11-05T03:15:45Z</time>
      </trkpt>
      <trkpt lat="34.293406" lon="-117.411027">
        <ele>1602.898438</ele>
        <time>2017-11-05T03:15:46Z</time>
      </trkpt>
      <trkpt lat="34.293388" lon="-117.41098">
        <ele>1601.398438</ele>
        <time>2017-11-05T03:15:48Z</time>
      </trkpt>
      <trkpt lat="34.293262" lon="-117.410651">
        <ele>1599.199219</ele>
        <time>2017-11-05T03:15:54Z</time>
      </trkpt>
      <trkpt lat="34.293199" lon="-117.410486">
        <ele>1597.398438</ele>
        <time>2017-11-05T03:15:57Z</time>
      </trkpt>
      <trkpt lat="34.293172" lon="-117.410439">
        <ele>1596.898438</ele>
        <time>2017-11-05T03:15:58Z</time>
      </trkpt>
      <trkpt lat="34.293136" lon="-117.410392">
        <ele>1596.597656</ele>
        <time>2017-11-05T03:15:59Z</time>
      </trkpt>
      <trkpt lat="34.293109" lon="-117.410345">
        <ele>1596.000000</ele>
        <time>2017-11-05T03:16:00Z</time>
      </trkpt>
      <trkpt lat="34.292983" lon="-117.410157">
        <ele>1593.398438</ele>
        <time>2017-11-05T03:16:04Z</time>
      </trkpt>
      <trkpt lat="34.292947" lon="-117.41011">
        <ele>1593.000000</ele>
        <time>2017-11-05T03:16:05Z</time>
      </trkpt>
      <trkpt lat="34.292938" lon="-117.410052">
        <ele>1592.699219</ele>
        <time>2017-11-05T03:16:06Z</time>
      </trkpt>
      <trkpt lat="34.29292" lon="-117.409993">
        <ele>1592.097656</ele>
        <time>2017-11-05T03:16:07Z</time>
      </trkpt>
      <trkpt lat="34.292911" lon="-117.409934">
        <ele>1591.597656</ele>
        <time>2017-11-05T03:16:08Z</time>
      </trkpt>
      <trkpt lat="34.292893" lon="-117.409887">
        <ele>1591.296875</ele>
        <time>2017-11-05T03:16:09Z</time>
      </trkpt>
      <trkpt lat="34.292884" lon="-117.409828">
        <ele>1590.796875</ele>
        <time>2017-11-05T03:16:10Z</time>
      </trkpt>
      <trkpt lat="34.292875" lon="-117.40977">
        <ele>1590.699219</ele>
        <time>2017-11-05T03:16:11Z</time>
      </trkpt>
      <trkpt lat="34.292854" lon="-117.409715">
        <ele>1590.296875</ele>
        <time>2017-11-05T03:16:13Z</time>
      </trkpt>
      <trkpt lat="34.292839" lon="-117.409652">
        <ele>1590.597656</ele>
        <time>2017-11-05T03:16:15Z</time>
      </trkpt>
      <trkpt lat="34.292812" lon="-117.409617">
        <ele>1590.398438</ele>
        <time>2017-11-05T03:16:17Z</time>
      </trkpt>
      <trkpt lat="34.292767" lon="-117.409582">
        <ele>1589.699219</ele>
        <time>2017-11-05T03:16:19Z</time>
      </trkpt>
      <trkpt lat="34.292713" lon="-117.409558">
        <ele>1588.398438</ele>
        <time>2017-11-05T03:16:21Z</time>
      </trkpt>
      <trkpt lat="34.292659" lon="-117.409558">
        <ele>1588.000000</ele>
        <time>2017-11-05T03:16:22Z</time>
      </trkpt>
      <trkpt lat="34.292623" lon="-117.409558">
        <ele>1587.500000</ele>
        <time>2017-11-05T03:16:24Z</time>
      </trkpt>
      <trkpt lat="34.292569" lon="-117.40957">
        <ele>1587.097656</ele>
        <time>2017-11-05T03:16:25Z</time>
      </trkpt>
      <trkpt lat="34.292533" lon="-117.40957">
        <ele>1586.097656</ele>
        <time>2017-11-05T03:16:27Z</time>
      </trkpt>
      <trkpt lat="34.292479" lon="-117.409582">
        <ele>1585.296875</ele>
        <time>2017-11-05T03:16:29Z</time>
      </trkpt>
      <trkpt lat="34.292425" lon="-117.409558">
        <ele>1585.000000</ele>
        <time>2017-11-05T03:16:30Z</time>
      </trkpt>
      <trkpt lat="34.292389" lon="-117.409546">
        <ele>1584.296875</ele>
        <time>2017-11-05T03:16:33Z</time>
      </trkpt>
      <trkpt lat="34.292335" lon="-117.409488">
        <ele>1584.500000</ele>
        <time>2017-11-05T03:16:34Z</time>
      </trkpt>
      <trkpt lat="34.292317" lon="-117.409452">
        <ele>1585.097656</ele>
        <time>2017-11-05T03:16:37Z</time>
      </trkpt>
      <trkpt lat="34.292308" lon="-117.409347">
        <ele>1585.296875</ele>
        <time>2017-11-05T03:16:38Z</time>
      </trkpt>
      <trkpt lat="34.292296" lon="-117.409311">
        <ele>1585.097656</ele>
        <time>2017-11-05T03:16:41Z</time>
      </trkpt>
      <trkpt lat="34.292299" lon="-117.409229">
        <ele>1585.097656</ele>
        <time>2017-11-05T03:17:35Z</time>
      </trkpt>
      <trkpt lat="34.292308" lon="-117.40917">
        <ele>1585.000000</ele>
        <time>2017-11-05T03:17:37Z</time>
      </trkpt>
      <trkpt lat="34.292326" lon="-117.409112">
        <ele>1586.097656</ele>
        <time>2017-11-05T03:17:39Z</time>
      </trkpt>
      <trkpt lat="34.292344" lon="-117.409041">
        <ele>1586.296875</ele>
        <time>2017-11-05T03:17:40Z</time>
      </trkpt>
      <trkpt lat="34.292353" lon="-117.408994">
        <ele>1586.500000</ele>
        <time>2017-11-05T03:17:42Z</time>
      </trkpt>
      <trkpt lat="34.292353" lon="-117.408924">
        <ele>1586.398438</ele>
        <time>2017-11-05T03:17:44Z</time>
      </trkpt>
      <trkpt lat="34.292333" lon="-117.408849">
        <ele>1586.296875</ele>
        <time>2017-11-05T03:17:45Z</time>
      </trkpt>
      <trkpt lat="34.292326" lon="-117.408818">
        <ele>1586.296875</ele>
        <time>2017-11-05T03:17:48Z</time>
      </trkpt>
      <trkpt lat="34.292261" lon="-117.408766">
        <ele>1585.597656</ele>
        <time>2017-11-05T03:17:49Z</time>
      </trkpt>
      <trkpt lat="34.292245" lon="-117.408759">
        <ele>1584.398438</ele>
        <time>2017-11-05T03:17:52Z</time>
      </trkpt>
      <trkpt lat="34.292155" lon="-117.408747">
        <ele>1583.898438</ele>
        <time>2017-11-05T03:17:53Z</time>
      </trkpt>
      <trkpt lat="34.292119" lon="-117.408747">
        <ele>1583.000000</ele>
        <time>2017-11-05T03:17:55Z</time>
      </trkpt>
      <trkpt lat="34.292038" lon="-117.408747">
        <ele>1582.796875</ele>
        <time>2017-11-05T03:17:56Z</time>
      </trkpt>
      <trkpt lat="34.291993" lon="-117.408736">
        <ele>1581.500000</ele>
        <time>2017-11-05T03:17:58Z</time>
      </trkpt>
      <trkpt lat="34.291912" lon="-117.408724">
        <ele>1581.000000</ele>
        <time>2017-11-05T03:17:59Z</time>
      </trkpt>
      <trkpt lat="34.291885" lon="-117.408677">
        <ele>1580.699219</ele>
        <time>2017-11-05T03:18:01Z</time>
      </trkpt>
      <trkpt lat="34.29184" lon="-117.408606">
        <ele>1580.398438</ele>
        <time>2017-11-05T03:18:02Z</time>
      </trkpt>
      <trkpt lat="34.291822" lon="-117.408571">
        <ele>1579.597656</ele>
        <time>2017-11-05T03:18:04Z</time>
      </trkpt>
      <trkpt lat="34.291771" lon="-117.408497">
        <ele>1579.398438</ele>
        <time>2017-11-05T03:18:05Z</time>
      </trkpt>
      <trkpt lat="34.29175" lon="-117.408465">
        <ele>1578.597656</ele>
        <time>2017-11-05T03:18:07Z</time>
      </trkpt>
      <trkpt lat="34.291687" lon="-117.408395">
        <ele>1578.199219</ele>
        <time>2017-11-05T03:18:08Z</time>
      </trkpt>
      <trkpt lat="34.291651" lon="-117.408383">
        <ele>1576.898438</ele>
        <time>2017-11-05T03:18:10Z</time>
      </trkpt>
      <trkpt lat="34.291588" lon="-117.408339">
        <ele>1576.296875</ele>
        <time>2017-11-05T03:18:11Z</time>
      </trkpt>
      <trkpt lat="34.291552" lon="-117.408324">
        <ele>1574.699219</ele>
        <time>2017-11-05T03:18:13Z</time>
      </trkpt>
      <trkpt lat="34.291495" lon="-117.408285">
        <ele>1573.699219</ele>
        <time>2017-11-05T03:18:15Z</time>
      </trkpt>
      <trkpt lat="34.291455" lon="-117.408251">
        <ele>1573.199219</ele>
        <time>2017-11-05T03:18:17Z</time>
      </trkpt>
      <trkpt lat="34.291417" lon="-117.408172">
        <ele>1574.898438</ele>
        <time>2017-11-05T03:20:21Z</time>
      </trkpt>
      <trkpt lat="34.291417" lon="-117.408172">
        <ele>1574.898438</ele>
        <time>2017-11-05T03:20:21Z</time>
      </trkpt>
    </trkseg>
    <trkseg>
      <trkpt lat="34.29139" lon="-117.408019">
        <ele>1573.199219</ele>
        <time>2017-11-05T03:20:54Z</time>
      </trkpt>
      <trkpt lat="34.29139" lon="-117.40789">
        <ele>1570.597656</ele>
        <time>2017-11-05T03:21:07Z</time>
      </trkpt>
      <trkpt lat="34.291399" lon="-117.407866">
        <ele>1570.796875</ele>
        <time>2017-11-05T03:21:11Z</time>
      </trkpt>
      <trkpt lat="34.291426" lon="-117.407784">
        <ele>1570.898438</ele>
        <time>2017-11-05T03:21:12Z</time>
      </trkpt>
      <trkpt lat="34.291426" lon="-117.407761">
        <ele>1571.500000</ele>
        <time>2017-11-05T03:21:21Z</time>
      </trkpt>
      <trkpt lat="34.291442" lon="-117.407665">
        <ele>1571.796875</ele>
        <time>2017-11-05T03:21:23Z</time>
      </trkpt>
      <trkpt lat="34.291435" lon="-117.407643">
        <ele>1572.898438</ele>
        <time>2017-11-05T03:21:28Z</time>
      </trkpt>
      <trkpt lat="34.29139" lon="-117.407549">
        <ele>1573.500000</ele>
        <time>2017-11-05T03:21:29Z</time>
      </trkpt>
      <trkpt lat="34.291336" lon="-117.407432">
        <ele>1576.296875</ele>
        <time>2017-11-05T03:21:35Z</time>
      </trkpt>
      <trkpt lat="34.291318" lon="-117.407408">
        <ele>1578.296875</ele>
        <time>2017-11-05T03:21:39Z</time>
      </trkpt>
      <trkpt lat="34.291282" lon="-117.407326">
        <ele>1579.000000</ele>
        <time>2017-11-05T03:21:40Z</time>
      </trkpt>
      <trkpt lat="34.291266" lon="-117.407307">
        <ele>1581.597656</ele>
        <time>2017-11-05T03:21:44Z</time>
      </trkpt>
      <trkpt lat="34.291223" lon="-117.407217">
        <ele>1582.398438</ele>
        <time>2017-11-05T03:21:45Z</time>
      </trkpt>
      <trkpt lat="34.291219" lon="-117.407197">
        <ele>1585.500000</ele>
        <time>2017-11-05T03:21:49Z</time>
      </trkpt>
      <trkpt lat="34.291183" lon="-117.407091">
        <ele>1585.597656</ele>
        <time>2017-11-05T03:21:50Z</time>
      </trkpt>
      <trkpt lat="34.291144" lon="-117.406983">
        <ele>1587.597656</ele>
        <time>2017-11-05T03:21:54Z</time>
      </trkpt>
      <trkpt lat="34.291444" lon="-117.406832">
        <ele>1588.000000</ele>
        <time>2017-11-05T03:21:55Z</time>
      </trkpt>
      <trkpt lat="34.291444" lon="-117.406809">
        <ele>1589.699219</ele>
        <time>2017-11-05T03:21:59Z</time>
      </trkpt>
      <trkpt lat="34.291471" lon="-117.406727">
        <ele>1590.000000</ele>
        <time>2017-11-05T03:22:00Z</time>
      </trkpt>
      <trkpt lat="34.29148" lon="-117.406703">
        <ele>1591.500000</ele>
        <time>2017-11-05T03:22:06Z</time>
      </trkpt>
      <trkpt lat="34.291489" lon="-117.406609">
        <ele>1591.500000</ele>
        <time>2017-11-05T03:22:08Z</time>
      </trkpt>
      <trkpt lat="34.291489" lon="-117.406586">
        <ele>1590.199219</ele>
        <time>2017-11-05T03:22:17Z</time>
      </trkpt>
      <trkpt lat="34.291507" lon="-117.406492">
        <ele>1589.796875</ele>
        <time>2017-11-05T03:22:19Z</time>
      </trkpt>
      <trkpt lat="34.291381" lon="-117.406116">
        <ele>1589.699219</ele>
        <time>2017-11-05T03:22:20Z</time>
      </trkpt>
      <trkpt lat="34.29139" lon="-117.406116">
        <ele>1586.097656</ele>
        <time>2017-11-05T03:22:47Z</time>
      </trkpt>
      <trkpt lat="34.291471" lon="-117.406069">
        <ele>1585.898438</ele>
        <time>2017-11-05T03:22:48Z</time>
      </trkpt>
      <trkpt lat="34.29148" lon="-117.406057">
        <ele>1585.796875</ele>
        <time>2017-11-05T03:22:54Z</time>
      </trkpt>
      <trkpt lat="34.291543" lon="-117.405963">
        <ele>1584.699219</ele>
        <time>2017-11-05T03:22:59Z</time>
      </trkpt>
      <trkpt lat="34.291561" lon="-117.405928">
        <ele>1585.398438</ele>
        <time>2017-11-05T03:23:02Z</time>
      </trkpt>
      <trkpt lat="34.291624" lon="-117.405799">
        <ele>1586.097656</ele>
        <time>2017-11-05T03:23:06Z</time>
      </trkpt>
      <trkpt lat="34.291633" lon="-117.405787">
        <ele>1588.097656</ele>
        <time>2017-11-05T03:23:58Z</time>
      </trkpt>
      <trkpt lat="34.291678" lon="-117.405705">
        <ele>1588.398438</ele>
        <time>2017-11-05T03:24:01Z</time>
      </trkpt>
      <trkpt lat="34.291678" lon="-117.405678">
        <ele>1587.898438</ele>
        <time>2017-11-05T03:24:07Z</time>
      </trkpt>
      <trkpt lat="34.291678" lon="-117.405523">
        <ele>1588.097656</ele>
        <time>2017-11-05T03:24:11Z</time>
      </trkpt>
      <trkpt lat="34.291678" lon="-117.40554">
        <ele>1590.398438</ele>
        <time>2017-11-05T03:24:30Z</time>
      </trkpt>
      <trkpt lat="34.291678" lon="-117.405411">
        <ele>1590.597656</ele>
        <time>2017-11-05T03:24:31Z</time>
      </trkpt>
      <trkpt lat="34.291678" lon="-117.405386">
        <ele>1591.500000</ele>
        <time>2017-11-05T03:24:40Z</time>
      </trkpt>
      <trkpt lat="34.291664" lon="-117.405292">
        <ele>1591.796875</ele>
        <time>2017-11-05T03:24:41Z</time>
      </trkpt>
      <trkpt lat="34.29166" lon="-117.40527">
        <ele>1592.699219</ele>
        <time>2017-11-05T03:24:44Z</time>
      </trkpt>
      <trkpt lat="34.291966" lon="-117.40527">
        <ele>1594.296875</ele>
        <time>2017-11-05T03:24:52Z</time>
      </trkpt>
      <trkpt lat="34.292002" lon="-117.405223">
        <ele>1596.796875</ele>
        <time>2017-11-05T03:25:00Z</time>
      </trkpt>
      <trkpt lat="34.292029" lon="-117.405164">
        <ele>1598.000000</ele>
        <time>2017-11-05T03:25:03Z</time>
      </trkpt>
      <trkpt lat="34.292047" lon="-117.405117">
        <ele>1599.898438</ele>
        <time>2017-11-05T03:25:08Z</time>
      </trkpt>
      <trkpt lat="34.292083" lon="-117.405058">
        <ele>1601.398438</ele>
        <time>2017-11-05T03:25:11Z</time>
      </trkpt>
      <trkpt lat="34.292101" lon="-117.405023">
        <ele>1603.097656</ele>
        <time>2017-11-05T03:25:16Z</time>
      </trkpt>
      <trkpt lat="34.292146" lon="-117.404976">
        <ele>1604.296875</ele>
        <time>2017-11-05T03:25:19Z</time>
      </trkpt>
      <trkpt lat="34.292173" lon="-117.404941">
        <ele>1605.398438</ele>
        <time>2017-11-05T03:25:23Z</time>
      </trkpt>
      <trkpt lat="34.292209" lon="-117.404894">
        <ele>1605.296875</ele>
        <time>2017-11-05T03:25:26Z</time>
      </trkpt>
      <trkpt lat="34.292218" lon="-117.404835">
        <ele>1605.699219</ele>
        <time>2017-11-05T03:25:30Z</time>
      </trkpt>
      <trkpt lat="34.2922" lon="-117.404765">
        <ele>1605.898438</ele>
        <time>2017-11-05T03:25:33Z</time>
      </trkpt>
      <trkpt lat="34.292164" lon="-117.404729">
        <ele>1606.597656</ele>
        <time>2017-11-05T03:25:37Z</time>
      </trkpt>
      <trkpt lat="34.292119" lon="-117.404706">
        <ele>1607.898438</ele>
        <time>2017-11-05T03:25:41Z</time>
      </trkpt>
      <trkpt lat="34.292065" lon="-117.404694">
        <ele>1609.699219</ele>
        <time>2017-11-05T03:25:45Z</time>
      </trkpt>
      <trkpt lat="34.29202" lon="-117.404694">
        <ele>1608.097656</ele>
        <time>2017-11-05T03:26:22Z</time>
      </trkpt>
      <trkpt lat="34.291822" lon="-117.404706">
        <ele>1606.199219</ele>
        <time>2017-11-05T03:26:57Z</time>
      </trkpt>
      <trkpt lat="34.291804" lon="-117.404694">
        <ele>1604.796875</ele>
        <time>2017-11-05T03:27:05Z</time>
      </trkpt>
      <trkpt lat="34.291723" lon="-117.404671">
        <ele>1604.597656</ele>
        <time>2017-11-05T03:27:06Z</time>
      </trkpt>
      <trkpt lat="34.291705" lon="-117.404659">
        <ele>1603.000000</ele>
        <time>2017-11-05T03:27:20Z</time>
      </trkpt>
      <trkpt lat="34.291624" lon="-117.404612">
        <ele>1602.500000</ele>
        <time>2017-11-05T03:27:22Z</time>
      </trkpt>
      <trkpt lat="34.291615" lon="-117.4046">
        <ele>1600.597656</ele>
        <time>2017-11-05T03:27:30Z</time>
      </trkpt>
      <trkpt lat="34.291547" lon="-117.404551">
        <ele>1598.796875</ele>
        <time>2017-11-05T03:27:32Z</time>
      </trkpt>
      <trkpt lat="34.291532" lon="-117.404536">
        <ele>1596.097656</ele>
        <time>2017-11-05T03:27:41Z</time>
      </trkpt>
      <trkpt lat="34.291477" lon="-117.404469">
        <ele>1595.500000</ele>
        <time>2017-11-05T03:27:43Z</time>
      </trkpt>
      <trkpt lat="34.291463" lon="-117.404461">
        <ele>1595.199219</ele>
        <time>2017-11-05T03:27:48Z</time>
      </trkpt>
      <trkpt lat="34.291382" lon="-117.404403">
        <ele>1594.699219</ele>
        <time>2017-11-05T03:27:50Z</time>
      </trkpt>
      <trkpt lat="34.291367" lon="-117.404389">
        <ele>1593.199219</ele>
        <time>2017-11-05T03:27:54Z</time>
      </trkpt>
      <trkpt lat="34.291318" lon="-117.404305">
        <ele>1592.699219</ele>
        <time>2017-11-05T03:27:55Z</time>
      </trkpt>
      <trkpt lat="34.291306" lon="-117.404283">
        <ele>1591.398438</ele>
        <time>2017-11-05T03:27:59Z</time>
      </trkpt>
      <trkpt lat="34.291237" lon="-117.404225">
        <ele>1591.097656</ele>
        <time>2017-11-05T03:28:00Z</time>
      </trkpt>
      <trkpt lat="34.291221" lon="-117.404212">
        <ele>1588.398438</ele>
        <time>2017-11-05T03:28:04Z</time>
      </trkpt>
      <trkpt lat="34.291166" lon="-117.404139">
        <ele>1587.597656</ele>
        <time>2017-11-05T03:28:05Z</time>
      </trkpt>
      <trkpt lat="34.291156" lon="-117.404113">
        <ele>1586.398438</ele>
        <time>2017-11-05T03:28:08Z</time>
      </trkpt>
      <trkpt lat="34.291133" lon="-117.404027">
        <ele>1586.097656</ele>
        <time>2017-11-05T03:28:09Z</time>
      </trkpt>
      <trkpt lat="34.291128" lon="-117.403999">
        <ele>1585.296875</ele>
        <time>2017-11-05T03:28:12Z</time>
      </trkpt>
      <trkpt lat="34.291042" lon="-117.403602">
        <ele>1585.500000</ele>
        <time>2017-11-05T03:28:23Z</time>
      </trkpt>
      <trkpt lat="34.291037" lon="-117.403483">
        <ele>1585.398438</ele>
        <time>2017-11-05T03:28:27Z</time>
      </trkpt>
      <trkpt lat="34.291038" lon="-117.403453">
        <ele>1584.796875</ele>
        <time>2017-11-05T03:28:30Z</time>
      </trkpt>
      <trkpt lat="34.291049" lon="-117.403179">
        <ele>1583.597656</ele>
        <time>2017-11-05T03:28:38Z</time>
      </trkpt>
      <trkpt lat="34.291068" lon="-117.403069">
        <ele>1582.097656</ele>
        <time>2017-11-05T03:28:44Z</time>
      </trkpt>
      <trkpt lat="34.291071" lon="-117.403061">
        <ele>1580.199219</ele>
        <time>2017-11-05T03:28:53Z</time>
      </trkpt>
      <trkpt lat="34.291092" lon="-117.402948">
        <ele>1580.097656</ele>
        <time>2017-11-05T03:28:54Z</time>
      </trkpt>
      <trkpt lat="34.291093" lon="-117.402931">
        <ele>1579.097656</ele>
        <time>2017-11-05T03:29:02Z</time>
      </trkpt>
      <trkpt lat="34.291091" lon="-117.402838">
        <ele>1579.097656</ele>
        <time>2017-11-05T03:29:03Z</time>
      </trkpt>
      <trkpt lat="34.29109" lon="-117.402818">
        <ele>1577.796875</ele>
        <time>2017-11-05T03:29:08Z</time>
      </trkpt>
      <trkpt lat="34.291075" lon="-117.402687">
        <ele>1577.000000</ele>
        <time>2017-11-05T03:29:11Z</time>
      </trkpt>
      <trkpt lat="34.291075" lon="-117.402665">
        <ele>1575.097656</ele>
        <time>2017-11-05T03:29:17Z</time>
      </trkpt>
      <trkpt lat="34.291088" lon="-117.402574">
        <ele>1575.097656</ele>
        <time>2017-11-05T03:29:18Z</time>
      </trkpt>
      <trkpt lat="34.291115" lon="-117.402307">
        <ele>1572.000000</ele>
        <time>2017-11-05T03:29:28Z</time>
      </trkpt>
      <trkpt lat="34.291219" lon="-117.401845">
        <ele>1572.597656</ele>
        <time>2017-11-05T03:29:42Z</time>
      </trkpt>
      <trkpt lat="34.291235" lon="-117.401802">
        <ele>1573.296875</ele>
        <time>2017-11-05T03:29:44Z</time>
      </trkpt>
      <trkpt lat="34.291301" lon="-117.401628">
        <ele>1574.796875</ele>
        <time>2017-11-05T03:29:47Z</time>
      </trkpt>
      <trkpt lat="34.291313" lon="-117.401584">
        <ele>1575.597656</ele>
        <time>2017-11-05T03:29:49Z</time>
      </trkpt>
      <trkpt lat="34.291399" lon="-117.401221">
        <ele>1576.000000</ele>
        <time>2017-11-05T03:29:55Z</time>
      </trkpt>
      <trkpt lat="34.291443" lon="-117.401111">
        <ele>1577.398438</ele>
        <time>2017-11-05T03:29:57Z</time>
      </trkpt>
      <trkpt lat="34.291525" lon="-117.400924">
        <ele>1578.898438</ele>
        <time>2017-11-05T03:30:01Z</time>
      </trkpt>
      <trkpt lat="34.291538" lon="-117.400873">
        <ele>1579.796875</ele>
        <time>2017-11-05T03:30:03Z</time>
      </trkpt>
      <trkpt lat="34.291556" lon="-117.400767">
        <ele>1580.398438</ele>
        <time>2017-11-05T03:30:04Z</time>
      </trkpt>
      <trkpt lat="34.291558" lon="-117.400712">
        <ele>1580.699219</ele>
        <time>2017-11-05T03:30:06Z</time>
      </trkpt>
      <trkpt lat="34.29156" lon="-117.400556">
        <ele>1581.296875</ele>
        <time>2017-11-05T03:30:08Z</time>
      </trkpt>
      <trkpt lat="34.291556" lon="-117.400507">
        <ele>1582.000000</ele>
        <time>2017-11-05T03:30:10Z</time>
      </trkpt>
      <trkpt lat="34.291531" lon="-117.400418">
        <ele>1582.398438</ele>
        <time>2017-11-05T03:30:11Z</time>
      </trkpt>
      <trkpt lat="34.291512" lon="-117.400381">
        <ele>1583.000000</ele>
        <time>2017-11-05T03:30:13Z</time>
      </trkpt>
      <trkpt lat="34.29148" lon="-117.400327">
        <ele>1585.796875</ele>
        <time>2017-11-05T03:31:04Z</time>
      </trkpt>
      <trkpt lat="34.291447" lon="-117.400301">
        <ele>1585.597656</ele>
        <time>2017-11-05T03:31:08Z</time>
      </trkpt>
      <trkpt lat="34.291406" lon="-117.400227">
        <ele>1586.199219</ele>
        <time>2017-11-05T03:31:09Z</time>
      </trkpt>
      <trkpt lat="34.291396" lon="-117.400198">
        <ele>1587.296875</ele>
        <time>2017-11-05T03:31:12Z</time>
      </trkpt>
      <trkpt lat="34.291381" lon="-117.400088">
        <ele>1587.296875</ele>
        <time>2017-11-05T03:31:13Z</time>
      </trkpt>
      <trkpt lat="34.291379" lon="-117.40005">
        <ele>1588.199219</ele>
        <time>2017-11-05T03:31:15Z</time>
      </trkpt>
      <trkpt lat="34.291367" lon="-117.399973">
        <ele>1588.296875</ele>
        <time>2017-11-05T03:31:16Z</time>
      </trkpt>
      <trkpt lat="34.291361" lon="-117.399934">
        <ele>1588.597656</ele>
        <time>2017-11-05T03:31:18Z</time>
      </trkpt>
      <trkpt lat="34.29134" lon="-117.399858">
        <ele>1589.500000</ele>
        <time>2017-11-05T03:31:19Z</time>
      </trkpt>
      <trkpt lat="34.291328" lon="-117.399824">
        <ele>1590.597656</ele>
        <time>2017-11-05T03:31:21Z</time>
      </trkpt>
      <trkpt lat="34.291297" lon="-117.399759">
        <ele>1590.898438</ele>
        <time>2017-11-05T03:31:23Z</time>
      </trkpt>
      <trkpt lat="34.291268" lon="-117.399708">
        <ele>1590.796875</ele>
        <time>2017-11-05T03:31:25Z</time>
      </trkpt>
      <trkpt lat="34.2912" lon="-117.399605">
        <ele>1591.199219</ele>
        <time>2017-11-05T03:31:28Z</time>
      </trkpt>
      <trkpt lat="34.291055" lon="-117.399416">
        <ele>1591.898438</ele>
        <time>2017-11-05T03:31:34Z</time>
      </trkpt>
      <trkpt lat="34.290971" lon="-117.399323">
        <ele>1592.898438</ele>
        <time>2017-11-05T03:31:38Z</time>
      </trkpt>
      <trkpt lat="34.290948" lon="-117.3993">
        <ele>1593.500000</ele>
        <time>2017-11-05T03:31:40Z</time>
      </trkpt>
      <trkpt lat="34.290891" lon="-117.399256">
        <ele>1593.699219</ele>
        <time>2017-11-05T03:31:41Z</time>
      </trkpt>
      <trkpt lat="34.290799" lon="-117.399191">
        <ele>1594.699219</ele>
        <time>2017-11-05T03:31:44Z</time>
      </trkpt>
      <trkpt lat="34.290764" lon="-117.399168">
        <ele>1595.796875</ele>
        <time>2017-11-05T03:31:46Z</time>
      </trkpt>
      <trkpt lat="34.290708" lon="-117.399117">
        <ele>1596.097656</ele>
        <time>2017-11-05T03:31:47Z</time>
      </trkpt>
      <trkpt lat="34.290686" lon="-117.39909">
        <ele>1596.398438</ele>
        <time>2017-11-05T03:31:49Z</time>
      </trkpt>
      <trkpt lat="34.290647" lon="-117.39903">
        <ele>1596.398438</ele>
        <time>2017-11-05T03:31:50Z</time>
      </trkpt>
      <trkpt lat="34.29063" lon="-117.398996">
        <ele>1596.796875</ele>
        <time>2017-11-05T03:31:52Z</time>
      </trkpt>
      <trkpt lat="34.29061" lon="-117.39893">
        <ele>1596.597656</ele>
        <time>2017-11-05T03:31:54Z</time>
      </trkpt>
      <trkpt lat="34.2906" lon="-117.398889">
        <ele>1596.097656</ele>
        <time>2017-11-05T03:31:58Z</time>
      </trkpt>
      <trkpt lat="34.29059" lon="-117.398819">
        <ele>1596.296875</ele>
        <time>2017-11-05T03:32:01Z</time>
      </trkpt>
      <trkpt lat="34.290585" lon="-117.398778">
        <ele>1597.097656</ele>
        <time>2017-11-05T03:32:08Z</time>
      </trkpt>
      <trkpt lat="34.29056" lon="-117.398713">
        <ele>1596.898438</ele>
        <time>2017-11-05T03:32:10Z</time>
      </trkpt>
      <trkpt lat="34.290541" lon="-117.398662">
        <ele>1596.199219</ele>
        <time>2017-11-05T03:32:12Z</time>
      </trkpt>
      <trkpt lat="34.290548" lon="-117.398582">
        <ele>1591.398438</ele>
        <time>2017-11-05T03:34:15Z</time>
      </trkpt>
      <trkpt lat="34.290548" lon="-117.398582">
        <ele>1591.398438</ele>
        <time>2017-11-05T03:34:15Z</time>
      </trkpt>
    </trkseg>
    <trkseg>
      <trkpt lat="34.290634" lon="-117.398377">
        <ele>1594.296875</ele>
        <time>2017-11-05T03:35:20Z</time>
      </trkpt>
      <trkpt lat="34.290689" lon="-117.398177">
        <ele>1598.097656</ele>
        <time>2017-11-05T03:35:35Z</time>
      </trkpt>
      <trkpt lat="34.290692" lon="-117.398159">
        <ele>1599.199219</ele>
        <time>2017-11-05T03:35:39Z</time>
      </trkpt>
      <trkpt lat="34.290699" lon="-117.398067">
        <ele>1599.597656</ele>
        <time>2017-11-05T03:35:40Z</time>
      </trkpt>
      <trkpt lat="34.290699" lon="-117.398048">
        <ele>1600.597656</ele>
        <time>2017-11-05T03:35:44Z</time>
      </trkpt>
      <trkpt lat="34.290675" lon="-117.397946">
        <ele>1600.898438</ele>
        <time>2017-11-05T03:35:45Z</time>
      </trkpt>
      <trkpt lat="34.29066" lon="-117.397915">
        <ele>1601.597656</ele>
        <time>2017-11-05T03:35:48Z</time>
      </trkpt>
      <trkpt lat="34.290622" lon="-117.39785">
        <ele>1602.000000</ele>
        <time>2017-11-05T03:35:50Z</time>
      </trkpt>
      <trkpt lat="34.290549" lon="-117.397744">
        <ele>1602.500000</ele>
        <time>2017-11-05T03:35:55Z</time>
      </trkpt>
      <trkpt lat="34.290538" lon="-117.397731">
        <ele>1602.199219</ele>
        <time>2017-11-05T03:36:00Z</time>
      </trkpt>
      <trkpt lat="34.290488" lon="-117.397659">
        <ele>1602.097656</ele>
        <time>2017-11-05T03:36:01Z</time>
      </trkpt>
      <trkpt lat="34.290478" lon="-117.397641">
        <ele>1601.398438</ele>
        <time>2017-11-05T03:36:05Z</time>
      </trkpt>
      <trkpt lat="34.290436" lon="-117.397547">
        <ele>1601.398438</ele>
        <time>2017-11-05T03:36:06Z</time>
      </trkpt>
      <trkpt lat="34.29043" lon="-117.397523">
        <ele>1600.898438</ele>
        <time>2017-11-05T03:36:10Z</time>
      </trkpt>
      <trkpt lat="34.290397" lon="-117.39737">
        <ele>1599.000000</ele>
        <time>2017-11-05T03:36:13Z</time>
      </trkpt>
      <trkpt lat="34.290355" lon="-117.397238">
        <ele>1598.199219</ele>
        <time>2017-11-05T03:36:18Z</time>
      </trkpt>
      <trkpt lat="34.290311" lon="-117.397076">
        <ele>1597.097656</ele>
        <time>2017-11-05T03:36:23Z</time>
      </trkpt>
      <trkpt lat="34.290296" lon="-117.396968">
        <ele>1596.296875</ele>
        <time>2017-11-05T03:36:26Z</time>
      </trkpt>
      <trkpt lat="34.290285" lon="-117.396768">
        <ele>1596.000000</ele>
        <time>2017-11-05T03:36:32Z</time>
      </trkpt>
      <trkpt lat="34.29029" lon="-117.396623">
        <ele>1596.898438</ele>
        <time>2017-11-05T03:36:38Z</time>
      </trkpt>
      <trkpt lat="34.290292" lon="-117.396611">
        <ele>1595.398438</ele>
        <time>2017-11-05T03:37:13Z</time>
      </trkpt>
      <trkpt lat="34.29033" lon="-117.396439">
        <ele>1595.097656</ele>
        <time>2017-11-05T03:37:24Z</time>
      </trkpt>
      <trkpt lat="34.290342" lon="-117.396374">
        <ele>1596.097656</ele>
        <time>2017-11-05T03:39:25Z</time>
      </trkpt>
      <trkpt lat="34.290342" lon="-117.396374">
        <ele>1596.097656</ele>
        <time>2017-11-05T03:39:25Z</time>
      </trkpt>
    </trkseg>
    <trkseg>
      <trkpt lat="34.29033" lon="-117.396269">
        <ele>1594.699219</ele>
        <time>2017-11-05T03:39:41Z</time>
      </trkpt>
      <trkpt lat="34.290283" lon="-117.396154">
        <ele>1592.500000</ele>
        <time>2017-11-05T03:40:47Z</time>
      </trkpt>
      <trkpt lat="34.290278" lon="-117.396147">
        <ele>1589.597656</ele>
        <time>2017-11-05T03:41:28Z</time>
      </trkpt>
      <trkpt lat="34.290227" lon="-117.396057">
        <ele>1589.199219</ele>
        <time>2017-11-05T03:41:30Z</time>
      </trkpt>
      <trkpt lat="34.290224" lon="-117.39605">
        <ele>1584.296875</ele>
        <time>2017-11-05T03:41:50Z</time>
      </trkpt>
      <trkpt lat="34.290173" lon="-117.395967">
        <ele>1583.796875</ele>
        <time>2017-11-05T03:41:52Z</time>
      </trkpt>
      <trkpt lat="34.290168" lon="-117.395962">
        <ele>1582.097656</ele>
        <time>2017-11-05T03:42:37Z</time>
      </trkpt>
      <trkpt lat="34.290106" lon="-117.395854">
        <ele>1580.898438</ele>
        <time>2017-11-05T03:42:42Z</time>
      </trkpt>
      <trkpt lat="34.290103" lon="-117.395849">
        <ele>1578.000000</ele>
        <time>2017-11-05T03:42:57Z</time>
      </trkpt>
      <trkpt lat="34.290036" lon="-117.395774">
        <ele>1577.699219</ele>
        <time>2017-11-05T03:42:58Z</time>
      </trkpt>
      <trkpt lat="34.29003" lon="-117.395768">
        <ele>1573.699219</ele>
        <time>2017-11-05T03:43:20Z</time>
      </trkpt>
      <trkpt lat="34.289969" lon="-117.395698">
        <ele>1572.796875</ele>
        <time>2017-11-05T03:43:30Z</time>
      </trkpt>
      <trkpt lat="34.289958" lon="-117.3957">
        <ele>1572.398438</ele>
        <time>2017-11-05T03:43:54Z</time>
      </trkpt>
      <trkpt lat="34.289894" lon="-117.395627">
        <ele>1572.000000</ele>
        <time>2017-11-05T03:43:55Z</time>
      </trkpt>
      <trkpt lat="34.289889" lon="-117.395623">
        <ele>1568.898438</ele>
        <time>2017-11-05T03:44:07Z</time>
      </trkpt>
      <trkpt lat="34.289825" lon="-117.39554">
        <ele>1568.296875</ele>
        <time>2017-11-05T03:44:10Z</time>
      </trkpt>
      <trkpt lat="34.289822" lon="-117.395535">
        <ele>1565.296875</ele>
        <time>2017-11-05T03:45:04Z</time>
      </trkpt>
      <trkpt lat="34.289788" lon="-117.395439">
        <ele>1565.097656</ele>
        <time>2017-11-05T03:45:05Z</time>
      </trkpt>
      <trkpt lat="34.289786" lon="-117.395431">
        <ele>1561.898438</ele>
        <time>2017-11-05T03:45:54Z</time>
      </trkpt>
      <trkpt lat="34.289751" lon="-117.395322">
        <ele>1561.296875</ele>
        <time>2017-11-05T03:45:57Z</time>
      </trkpt>
      <trkpt lat="34.289748" lon="-117.395315">
        <ele>1557.597656</ele>
        <time>2017-11-05T03:46:12Z</time>
      </trkpt>
      <trkpt lat="34.289707" lon="-117.395212">
        <ele>1557.500000</ele>
        <time>2017-11-05T03:46:14Z</time>
      </trkpt>
      <trkpt lat="34.289705" lon="-117.395203">
        <ele>1555.398438</ele>
        <time>2017-11-05T03:46:22Z</time>
      </trkpt>
      <trkpt lat="34.289624" lon="-117.394843">
        <ele>1550.898438</ele>
        <time>2017-11-05T03:46:36Z</time>
      </trkpt>
      <trkpt lat="34.289617" lon="-117.394823">
        <ele>1549.796875</ele>
        <time>2017-11-05T03:46:40Z</time>
      </trkpt>
      <trkpt lat="34.289595" lon="-117.394729">
        <ele>1549.699219</ele>
        <time>2017-11-05T03:46:41Z</time>
      </trkpt>
      <trkpt lat="34.289595" lon="-117.394704">
        <ele>1548.796875</ele>
        <time>2017-11-05T03:46:45Z</time>
      </trkpt>
      <trkpt lat="34.289611" lon="-117.394599">
        <ele>1548.500000</ele>
        <time>2017-11-05T03:46:46Z</time>
      </trkpt>
      <trkpt lat="34.28966" lon="-117.394347">
        <ele>1546.699219</ele>
        <time>2017-11-05T03:46:53Z</time>
      </trkpt>
      <trkpt lat="34.289667" lon="-117.394322">
        <ele>1545.898438</ele>
        <time>2017-11-05T03:46:57Z</time>
      </trkpt>
      <trkpt lat="34.289716" lon="-117.394124">
        <ele>1544.796875</ele>
        <time>2017-11-05T03:47:02Z</time>
      </trkpt>
      <trkpt lat="34.289719" lon="-117.3941">
        <ele>1543.296875</ele>
        <time>2017-11-05T03:47:06Z</time>
      </trkpt>
      <trkpt lat="34.289724" lon="-117.393982">
        <ele>1542.597656</ele>
        <time>2017-11-05T03:47:08Z</time>
      </trkpt>
      <trkpt lat="34.289728" lon="-117.39361">
        <ele>1538.796875</ele>
        <time>2017-11-05T03:47:27Z</time>
      </trkpt>
      <trkpt lat="34.289727" lon="-117.393612">
        <ele>1537.199219</ele>
        <time>2017-11-05T03:49:23Z</time>
      </trkpt>
      <trkpt lat="34.289727" lon="-117.393612">
        <ele>1537.199219</ele>
        <time>2017-11-05T03:49:23Z</time>
      </trkpt>
    </trkseg>
    <trkseg>
      <trkpt lat="34.289737" lon="-117.393391">
        <ele>1537.097656</ele>
        <time>2017-11-05T04:06:31Z</time>
      </trkpt>
      <trkpt lat="34.289743" lon="-117.393022">
        <ele>1538.398438</ele>
        <time>2017-11-05T04:07:01Z</time>
      </trkpt>
      <trkpt lat="34.289749" lon="-117.393021">
        <ele>1539.199219</ele>
        <time>2017-11-05T04:08:55Z</time>
      </trkpt>
      <trkpt lat="34.289749" lon="-117.393021">
        <ele>1539.199219</ele>
        <time>2017-11-05T04:08:55Z</time>
      </trkpt>
    </trkseg>
    <trkseg>
      <trkpt lat="34.289711" lon="-117.392862">
        <ele>1537.597656</ele>
        <time>2017-11-05T04:09:31Z</time>
      </trkpt>
      <trkpt lat="34.289681" lon="-117.392758">
        <ele>1535.597656</ele>
        <time>2017-11-05T04:10:02Z</time>
      </trkpt>
      <trkpt lat="34.289681" lon="-117.392752">
        <ele>1533.296875</ele>
        <time>2017-11-05T04:10:24Z</time>
      </trkpt>
      <trkpt lat="34.289707" lon="-117.392617">
        <ele>1532.597656</ele>
        <time>2017-11-05T04:10:35Z</time>
      </trkpt>
      <trkpt lat="34.289709" lon="-117.392613">
        <ele>1528.699219</ele>
        <time>2017-11-05T04:11:03Z</time>
      </trkpt>
      <trkpt lat="34.289721" lon="-117.392501">
        <ele>1528.398438</ele>
        <time>2017-11-05T04:11:04Z</time>
      </trkpt>
      <trkpt lat="34.289721" lon="-117.39249">
        <ele>1526.000000</ele>
        <time>2017-11-05T04:11:11Z</time>
      </trkpt>
      <trkpt lat="34.289733" lon="-117.39234">
        <ele>1525.199219</ele>
        <time>2017-11-05T04:11:15Z</time>
      </trkpt>
      <trkpt lat="34.289728" lon="-117.392325">
        <ele>1522.097656</ele>
        <time>2017-11-05T04:11:22Z</time>
      </trkpt>
      <trkpt lat="34.289666" lon="-117.392266">
        <ele>1521.398438</ele>
        <time>2017-11-05T04:11:24Z</time>
      </trkpt>
      <trkpt lat="34.289647" lon="-117.392255">
        <ele>1519.500000</ele>
        <time>2017-11-05T04:11:31Z</time>
      </trkpt>
      <trkpt lat="34.289516" lon="-117.39218">
        <ele>1517.898438</ele>
        <time>2017-11-05T04:11:37Z</time>
      </trkpt>
      <trkpt lat="34.289505" lon="-117.39217">
        <ele>1516.199219</ele>
        <time>2017-11-05T04:11:44Z</time>
      </trkpt>
      <trkpt lat="34.289458" lon="-117.392093">
        <ele>1515.898438</ele>
        <time>2017-11-05T04:11:45Z</time>
      </trkpt>
      <trkpt lat="34.289383" lon="-117.391965">
        <ele>1513.597656</ele>
        <time>2017-11-05T04:11:56Z</time>
      </trkpt>
      <trkpt lat="34.289264" lon="-117.39169">
        <ele>1507.597656</ele>
        <time>2017-11-05T04:12:24Z</time>
      </trkpt>
      <trkpt lat="34.289261" lon="-117.391678">
        <ele>1505.500000</ele>
        <time>2017-11-05T04:12:33Z</time>
      </trkpt>
      <trkpt lat="34.289252" lon="-117.391572">
        <ele>1505.296875</ele>
        <time>2017-11-05T04:12:34Z</time>
      </trkpt>
      <trkpt lat="34.289248" lon="-117.391559">
        <ele>1503.097656</ele>
        <time>2017-11-05T04:12:42Z</time>
      </trkpt>
      <trkpt lat="34.2892" lon="-117.39143">
        <ele>1502.296875</ele>
        <time>2017-11-05T04:12:46Z</time>
      </trkpt>
      <trkpt lat="34.289194" lon="-117.391419">
        <ele>1501.597656</ele>
        <time>2017-11-05T04:12:53Z</time>
      </trkpt>
      <trkpt lat="34.28917" lon="-117.391325">
        <ele>1501.296875</ele>
        <time>2017-11-05T04:12:54Z</time>
      </trkpt>
      <trkpt lat="34.289167" lon="-117.391301">
        <ele>1500.597656</ele>
        <time>2017-11-05T04:13:00Z</time>
      </trkpt>
      <trkpt lat="34.289141" lon="-117.391093">
        <ele>1500.796875</ele>
        <time>2017-11-05T04:13:09Z</time>
      </trkpt>
      <trkpt lat="34.289138" lon="-117.391081">
        <ele>1501.296875</ele>
        <time>2017-11-05T04:13:22Z</time>
      </trkpt>
      <trkpt lat="34.289062" lon="-117.390812">
        <ele>1502.398438</ele>
        <time>2017-11-05T04:13:41Z</time>
      </trkpt>
      <trkpt lat="34.289061" lon="-117.390793">
        <ele>1502.597656</ele>
        <time>2017-11-05T04:13:47Z</time>
      </trkpt>
      <trkpt lat="34.289052" lon="-117.390469">
        <ele>1504.500000</ele>
        <time>2017-11-05T04:13:58Z</time>
      </trkpt>
      <trkpt lat="34.289048" lon="-117.390452">
        <ele>1505.097656</ele>
        <time>2017-11-05T04:14:04Z</time>
      </trkpt>
      <trkpt lat="34.289033" lon="-117.390332">
        <ele>1504.699219</ele>
        <time>2017-11-05T04:14:06Z</time>
      </trkpt>
      <trkpt lat="34.289033" lon="-117.390323">
        <ele>1502.597656</ele>
        <time>2017-11-05T04:14:17Z</time>
      </trkpt>
      <trkpt lat="34.289047" lon="-117.390108">
        <ele>1499.500000</ele>
        <time>2017-11-05T04:14:24Z</time>
      </trkpt>
      <trkpt lat="34.289067" lon="-117.389928">
        <ele>1496.097656</ele>
        <time>2017-11-05T04:14:32Z</time>
      </trkpt>
      <trkpt lat="34.289072" lon="-117.389905">
        <ele>1494.000000</ele>
        <time>2017-11-05T04:14:37Z</time>
      </trkpt>
      <trkpt lat="34.289109" lon="-117.389812">
        <ele>1493.398438</ele>
        <time>2017-11-05T04:14:38Z</time>
      </trkpt>
      <trkpt lat="34.28912" lon="-117.389795">
        <ele>1491.296875</ele>
        <time>2017-11-05T04:14:42Z</time>
      </trkpt>
      <trkpt lat="34.289178" lon="-117.389732">
        <ele>1490.898438</ele>
        <time>2017-11-05T04:14:43Z</time>
      </trkpt>
      <trkpt lat="34.289196" lon="-117.389719">
        <ele>1489.398438</ele>
        <time>2017-11-05T04:14:47Z</time>
      </trkpt>
      <trkpt lat="34.289271" lon="-117.389668">
        <ele>1489.296875</ele>
        <time>2017-11-05T04:14:48Z</time>
      </trkpt>
      <trkpt lat="34.289288" lon="-117.389651">
        <ele>1489.000000</ele>
        <time>2017-11-05T04:14:51Z</time>
      </trkpt>
      <trkpt lat="34.289349" lon="-117.389596">
        <ele>1488.699219</ele>
        <time>2017-11-05T04:14:52Z</time>
      </trkpt>
      <trkpt lat="34.289373" lon="-117.389581">
        <ele>1489.097656</ele>
        <time>2017-11-05T04:14:55Z</time>
      </trkpt>
      <trkpt lat="34.28944" lon="-117.389545">
        <ele>1489.097656</ele>
        <time>2017-11-05T04:14:56Z</time>
      </trkpt>
      <trkpt lat="34.289461" lon="-117.38953">
        <ele>1489.597656</ele>
        <time>2017-11-05T04:14:59Z</time>
      </trkpt>
      <trkpt lat="34.289512" lon="-117.389461">
        <ele>1489.597656</ele>
        <time>2017-11-05T04:15:00Z</time>
      </trkpt>
      <trkpt lat="34.289524" lon="-117.389437">
        <ele>1488.500000</ele>
        <time>2017-11-05T04:15:04Z</time>
      </trkpt>
      <trkpt lat="34.289555" lon="-117.389353">
        <ele>1488.097656</ele>
        <time>2017-11-05T04:15:06Z</time>
      </trkpt>
      <trkpt lat="34.289561" lon="-117.389321">
        <ele>1486.000000</ele>
        <time>2017-11-05T04:15:12Z</time>
      </trkpt>
      <trkpt lat="34.289564" lon="-117.389241">
        <ele>1485.000000</ele>
        <time>2017-11-05T04:15:15Z</time>
      </trkpt>
      <trkpt lat="34.289582" lon="-117.389059">
        <ele>1479.000000</ele>
        <time>2017-11-05T04:15:31Z</time>
      </trkpt>
      <trkpt lat="34.289584" lon="-117.389048">
        <ele>1475.699219</ele>
        <time>2017-11-05T04:15:41Z</time>
      </trkpt>
      <trkpt lat="34.2896" lon="-117.388941">
        <ele>1475.500000</ele>
        <time>2017-11-05T04:15:42Z</time>
      </trkpt>
      <trkpt lat="34.289599" lon="-117.388928">
        <ele>1473.796875</ele>
        <time>2017-11-05T04:15:49Z</time>
      </trkpt>
      <trkpt lat="34.289588" lon="-117.388821">
        <ele>1473.597656</ele>
        <time>2017-11-05T04:15:50Z</time>
      </trkpt>
      <trkpt lat="34.289583" lon="-117.388803">
        <ele>1471.796875</ele>
        <time>2017-11-05T04:15:58Z</time>
      </trkpt>
      <trkpt lat="34.289546" lon="-117.388703">
        <ele>1471.199219</ele>
        <time>2017-11-05T04:16:01Z</time>
      </trkpt>
      <trkpt lat="34.289543" lon="-117.388696">
        <ele>1468.199219</ele>
        <time>2017-11-05T04:16:12Z</time>
      </trkpt>
      <trkpt lat="34.289488" lon="-117.388591">
        <ele>1467.500000</ele>
        <time>2017-11-05T04:16:15Z</time>
      </trkpt>
      <trkpt lat="34.289484" lon="-117.388584">
        <ele>1464.500000</ele>
        <time>2017-11-05T04:16:29Z</time>
      </trkpt>
      <trkpt lat="34.289425" lon="-117.388471">
        <ele>1463.796875</ele>
        <time>2017-11-05T04:16:33Z</time>
      </trkpt>
      <trkpt lat="34.289422" lon="-117.388462">
        <ele>1460.199219</ele>
        <time>2017-11-05T04:16:45Z</time>
      </trkpt>
      <trkpt lat="34.289321" lon="-117.388169">
        <ele>1455.000000</ele>
        <time>2017-11-05T04:17:01Z</time>
      </trkpt>
      <trkpt lat="34.28932" lon="-117.388157">
        <ele>1454.000000</ele>
        <time>2017-11-05T04:17:08Z</time>
      </trkpt>
      <trkpt lat="34.289293" lon="-117.388062">
        <ele>1453.597656</ele>
        <time>2017-11-05T04:17:09Z</time>
      </trkpt>
      <trkpt lat="34.289291" lon="-117.388048">
        <ele>1452.000000</ele>
        <time>2017-11-05T04:17:20Z</time>
      </trkpt>
      <trkpt lat="34.289283" lon="-117.387884">
        <ele>1451.199219</ele>
        <time>2017-11-05T04:17:26Z</time>
      </trkpt>
      <trkpt lat="34.289281" lon="-117.387861">
        <ele>1452.699219</ele>
        <time>2017-11-05T04:17:32Z</time>
      </trkpt>
      <trkpt lat="34.289283" lon="-117.387762">
        <ele>1453.000000</ele>
        <time>2017-11-05T04:17:33Z</time>
      </trkpt>
      <trkpt lat="34.289286" lon="-117.387744">
        <ele>1454.199219</ele>
        <time>2017-11-05T04:17:38Z</time>
      </trkpt>
      <trkpt lat="34.289317" lon="-117.387661">
        <ele>1453.898438</ele>
        <time>2017-11-05T04:17:40Z</time>
      </trkpt>
      <trkpt lat="34.289332" lon="-117.38764">
        <ele>1452.898438</ele>
        <time>2017-11-05T04:17:48Z</time>
      </trkpt>
      <trkpt lat="34.289389" lon="-117.387581">
        <ele>1453.000000</ele>
        <time>2017-11-05T04:17:50Z</time>
      </trkpt>
      <trkpt lat="34.289403" lon="-117.387569">
        <ele>1454.296875</ele>
        <time>2017-11-05T04:18:02Z</time>
      </trkpt>
      <trkpt lat="34.289538" lon="-117.387463">
        <ele>1454.398438</ele>
        <time>2017-11-05T04:18:09Z</time>
      </trkpt>
      <trkpt lat="34.289549" lon="-117.387456">
        <ele>1452.296875</ele>
        <time>2017-11-05T04:18:18Z</time>
      </trkpt>
      <trkpt lat="34.28967" lon="-117.387381">
        <ele>1450.597656</ele>
        <time>2017-11-05T04:18:26Z</time>
      </trkpt>
      <trkpt lat="34.289676" lon="-117.387374">
        <ele>1448.199219</ele>
        <time>2017-11-05T04:18:38Z</time>
      </trkpt>
      <trkpt lat="34.28976" lon="-117.387254">
        <ele>1446.597656</ele>
        <time>2017-11-05T04:18:44Z</time>
      </trkpt>
      <trkpt lat="34.289766" lon="-117.387241">
        <ele>1444.597656</ele>
        <time>2017-11-05T04:18:50Z</time>
      </trkpt>
      <trkpt lat="34.289801" lon="-117.387149">
        <ele>1444.296875</ele>
        <time>2017-11-05T04:18:51Z</time>
      </trkpt>
      <trkpt lat="34.289804" lon="-117.387135">
        <ele>1443.199219</ele>
        <time>2017-11-05T04:18:58Z</time>
      </trkpt>
      <trkpt lat="34.289864" lon="-117.3869">
        <ele>1441.199219</ele>
        <time>2017-11-05T04:19:18Z</time>
      </trkpt>
      <trkpt lat="34.289869" lon="-117.38689">
        <ele>1440.097656</ele>
        <time>2017-11-05T04:19:27Z</time>
      </trkpt>
      <trkpt lat="34.2899" lon="-117.386794">
        <ele>1439.796875</ele>
        <time>2017-11-05T04:19:28Z</time>
      </trkpt>
      <trkpt lat="34.289906" lon="-117.386783">
        <ele>1437.796875</ele>
        <time>2017-11-05T04:19:36Z</time>
      </trkpt>
      <trkpt lat="34.290027" lon="-117.386579">
        <ele>1435.796875</ele>
        <time>2017-11-05T04:19:52Z</time>
      </trkpt>
      <trkpt lat="34.290027" lon="-117.386573">
        <ele>1434.398438</ele>
        <time>2017-11-05T04:20:05Z</time>
      </trkpt>
      <trkpt lat="34.290017" lon="-117.386469">
        <ele>1434.199219</ele>
        <time>2017-11-05T04:20:06Z</time>
      </trkpt>
      <trkpt lat="34.290013" lon="-117.38646">
        <ele>1433.199219</ele>
        <time>2017-11-05T04:20:19Z</time>
      </trkpt>
      <trkpt lat="34.289978" lon="-117.386358">
        <ele>1433.000000</ele>
        <time>2017-11-05T04:20:21Z</time>
      </trkpt>
      <trkpt lat="34.289975" lon="-117.386352">
        <ele>1431.398438</ele>
        <time>2017-11-05T04:20:36Z</time>
      </trkpt>
      <trkpt lat="34.289945" lon="-117.386256">
        <ele>1431.097656</ele>
        <time>2017-11-05T04:20:37Z</time>
      </trkpt>
      <trkpt lat="34.289943" lon="-117.386249">
        <ele>1427.296875</ele>
        <time>2017-11-05T04:20:51Z</time>
      </trkpt>
      <trkpt lat="34.289934" lon="-117.38613">
        <ele>1426.699219</ele>
        <time>2017-11-05T04:20:53Z</time>
      </trkpt>
      <trkpt lat="34.289935" lon="-117.386119">
        <ele>1425.296875</ele>
        <time>2017-11-05T04:21:03Z</time>
      </trkpt>
      <trkpt lat="34.289937" lon="-117.386005">
        <ele>1424.898438</ele>
        <time>2017-11-05T04:21:05Z</time>
      </trkpt>
      <trkpt lat="34.289936" lon="-117.385994">
        <ele>1422.097656</ele>
        <time>2017-11-05T04:21:14Z</time>
      </trkpt>
      <trkpt lat="34.289957" lon="-117.385896">
        <ele>1422.000000</ele>
        <time>2017-11-05T04:21:15Z</time>
      </trkpt>
      <trkpt lat="34.289961" lon="-117.385882">
        <ele>1421.000000</ele>
        <time>2017-11-05T04:21:20Z</time>
      </trkpt>
      <trkpt lat="34.29" lon="-117.385799">
        <ele>1420.898438</ele>
        <time>2017-11-05T04:21:21Z</time>
      </trkpt>
      <trkpt lat="34.29001" lon="-117.38578">
        <ele>1420.796875</ele>
        <time>2017-11-05T04:21:26Z</time>
      </trkpt>
      <trkpt lat="34.29002" lon="-117.385669">
        <ele>1420.898438</ele>
        <time>2017-11-05T04:21:27Z</time>
      </trkpt>
      <trkpt lat="34.290021" lon="-117.385641">
        <ele>1421.097656</ele>
        <time>2017-11-05T04:21:32Z</time>
      </trkpt>
      <trkpt lat="34.290033" lon="-117.385549">
        <ele>1421.097656</ele>
        <time>2017-11-05T04:21:33Z</time>
      </trkpt>
      <trkpt lat="34.290036" lon="-117.38553">
        <ele>1421.000000</ele>
        <time>2017-11-05T04:21:38Z</time>
      </trkpt>
      <trkpt lat="34.290057" lon="-117.385431">
        <ele>1420.796875</ele>
        <time>2017-11-05T04:21:39Z</time>
      </trkpt>
      <trkpt lat="34.290065" lon="-117.385409">
        <ele>1419.398438</ele>
        <time>2017-11-05T04:21:43Z</time>
      </trkpt>
      <trkpt lat="34.29013" lon="-117.385208">
        <ele>1417.898438</ele>
        <time>2017-11-05T04:21:50Z</time>
      </trkpt>
      <trkpt lat="34.290135" lon="-117.385191">
        <ele>1416.500000</ele>
        <time>2017-11-05T04:21:55Z</time>
      </trkpt>
      <trkpt lat="34.290178" lon="-117.385107">
        <ele>1416.398438</ele>
        <time>2017-11-05T04:21:56Z</time>
      </trkpt>
      <trkpt lat="34.290188" lon="-117.3851">
        <ele>1417.296875</ele>
        <time>2017-11-05T04:22:33Z</time>
      </trkpt>
      <trkpt lat="34.290271" lon="-117.385075">
        <ele>1417.296875</ele>
        <time>2017-11-05T04:22:34Z</time>
      </trkpt>
      <trkpt lat="34.290282" lon="-117.385072">
        <ele>1416.500000</ele>
        <time>2017-11-05T04:22:39Z</time>
      </trkpt>
      <trkpt lat="34.290368" lon="-117.385041">
        <ele>1416.699219</ele>
        <time>2017-11-05T04:22:41Z</time>
      </trkpt>
      <trkpt lat="34.290377" lon="-117.385037">
        <ele>1417.500000</ele>
        <time>2017-11-05T04:22:52Z</time>
      </trkpt>
      <trkpt lat="34.29055" lon="-117.384962">
        <ele>1417.000000</ele>
        <time>2017-11-05T04:23:03Z</time>
      </trkpt>
      <trkpt lat="34.290561" lon="-117.384954">
        <ele>1416.699219</ele>
        <time>2017-11-05T04:23:12Z</time>
      </trkpt>
      <trkpt lat="34.290626" lon="-117.384888">
        <ele>1416.796875</ele>
        <time>2017-11-05T04:23:13Z</time>
      </trkpt>
      <trkpt lat="34.290634" lon="-117.384877">
        <ele>1418.296875</ele>
        <time>2017-11-05T04:23:18Z</time>
      </trkpt>
      <trkpt lat="34.290726" lon="-117.384764">
        <ele>1420.097656</ele>
        <time>2017-11-05T04:23:23Z</time>
      </trkpt>
      <trkpt lat="34.290737" lon="-117.384752">
        <ele>1420.699219</ele>
        <time>2017-11-05T04:23:27Z</time>
      </trkpt>
      <trkpt lat="34.290798" lon="-117.384698">
        <ele>1420.796875</ele>
        <time>2017-11-05T04:23:28Z</time>
      </trkpt>
      <trkpt lat="34.290816" lon="-117.384686">
        <ele>1421.199219</ele>
        <time>2017-11-05T04:23:32Z</time>
      </trkpt>
      <trkpt lat="34.290888" lon="-117.384649">
        <ele>1421.398438</ele>
        <time>2017-11-05T04:23:33Z</time>
      </trkpt>
      <trkpt lat="34.291039" lon="-117.38457">
        <ele>1421.796875</ele>
        <time>2017-11-05T04:23:46Z</time>
      </trkpt>
      <trkpt lat="34.291052" lon="-117.384562">
        <ele>1421.699219</ele>
        <time>2017-11-05T04:23:52Z</time>
      </trkpt>
      <trkpt lat="34.291121" lon="-117.384493">
        <ele>1421.699219</ele>
        <time>2017-11-05T04:23:53Z</time>
      </trkpt>
      <trkpt lat="34.291128" lon="-117.384483">
        <ele>1420.097656</ele>
        <time>2017-11-05T04:24:00Z</time>
      </trkpt>
      <trkpt lat="34.291194" lon="-117.384351">
        <ele>1419.296875</ele>
        <time>2017-11-05T04:24:04Z</time>
      </trkpt>
      <trkpt lat="34.291292" lon="-117.384079">
        <ele>1417.000000</ele>
        <time>2017-11-05T04:24:22Z</time>
      </trkpt>
      <trkpt lat="34.291296" lon="-117.38406">
        <ele>1417.500000</ele>
        <time>2017-11-05T04:24:27Z</time>
      </trkpt>
      <trkpt lat="34.291281" lon="-117.383961">
        <ele>1417.699219</ele>
        <time>2017-11-05T04:24:28Z</time>
      </trkpt>
      <trkpt lat="34.291277" lon="-117.383944">
        <ele>1418.296875</ele>
        <time>2017-11-05T04:24:33Z</time>
      </trkpt>
      <trkpt lat="34.291235" lon="-117.383841">
        <ele>1418.000000</ele>
        <time>2017-11-05T04:24:35Z</time>
      </trkpt>
      <trkpt lat="34.291168" lon="-117.383697">
        <ele>1415.796875</ele>
        <time>2017-11-05T04:25:10Z</time>
      </trkpt>
      <trkpt lat="34.291166" lon="-117.383688">
        <ele>1414.699219</ele>
        <time>2017-11-05T04:25:31Z</time>
      </trkpt>
      <trkpt lat="34.291152" lon="-117.383541">
        <ele>1414.699219</ele>
        <time>2017-11-05T04:25:38Z</time>
      </trkpt>
      <trkpt lat="34.291152" lon="-117.383432">
        <ele>1412.500000</ele>
        <time>2017-11-05T04:25:57Z</time>
      </trkpt>
      <trkpt lat="34.291155" lon="-117.383423">
        <ele>1409.097656</ele>
        <time>2017-11-05T04:26:10Z</time>
      </trkpt>
      <trkpt lat="34.291213" lon="-117.383196">
        <ele>1406.097656</ele>
        <time>2017-11-05T04:26:23Z</time>
      </trkpt>
      <trkpt lat="34.291214" lon="-117.383184">
        <ele>1404.796875</ele>
        <time>2017-11-05T04:26:34Z</time>
      </trkpt>
      <trkpt lat="34.291247" lon="-117.383087">
        <ele>1405.097656</ele>
        <time>2017-11-05T04:26:35Z</time>
      </trkpt>
      <trkpt lat="34.29125" lon="-117.383078">
        <ele>1403.699219</ele>
        <time>2017-11-05T04:26:47Z</time>
      </trkpt>
      <trkpt lat="34.291308" lon="-117.382997">
        <ele>1403.500000</ele>
        <time>2017-11-05T04:26:48Z</time>
      </trkpt>
      <trkpt lat="34.291312" lon="-117.382994">
        <ele>1401.796875</ele>
        <time>2017-11-05T04:27:01Z</time>
      </trkpt>
      <trkpt lat="34.291395" lon="-117.382951">
        <ele>1401.699219</ele>
        <time>2017-11-05T04:27:02Z</time>
      </trkpt>
      <trkpt lat="34.291406" lon="-117.382947">
        <ele>1401.500000</ele>
        <time>2017-11-05T04:27:22Z</time>
      </trkpt>
      <trkpt lat="34.291477" lon="-117.382898">
        <ele>1401.000000</ele>
        <time>2017-11-05T04:27:24Z</time>
      </trkpt>
      <trkpt lat="34.291487" lon="-117.382889">
        <ele>1400.398438</ele>
        <time>2017-11-05T04:27:37Z</time>
      </trkpt>
      <trkpt lat="34.291612" lon="-117.382792">
        <ele>1398.699219</ele>
        <time>2017-11-05T04:27:50Z</time>
      </trkpt>
      <trkpt lat="34.291616" lon="-117.38279">
        <ele>1395.398438</ele>
        <time>2017-11-05T04:28:10Z</time>
      </trkpt>
      <trkpt lat="34.291689" lon="-117.382729">
        <ele>1395.097656</ele>
        <time>2017-11-05T04:28:11Z</time>
      </trkpt>
      <trkpt lat="34.291693" lon="-117.382726">
        <ele>1392.699219</ele>
        <time>2017-11-05T04:28:27Z</time>
      </trkpt>
      <trkpt lat="34.291778" lon="-117.382694">
        <ele>1392.398438</ele>
        <time>2017-11-05T04:28:28Z</time>
      </trkpt>
      <trkpt lat="34.291868" lon="-117.382661">
        <ele>1389.097656</ele>
        <time>2017-11-05T04:28:46Z</time>
      </trkpt>
      <trkpt lat="34.291869" lon="-117.38266">
        <ele>1386.199219</ele>
        <time>2017-11-05T04:29:04Z</time>
      </trkpt>
      <trkpt lat="34.291956" lon="-117.382635">
        <ele>1386.296875</ele>
        <time>2017-11-05T04:29:05Z</time>
      </trkpt>
      <trkpt lat="34.291962" lon="-117.382634">
        <ele>1385.898438</ele>
        <time>2017-11-05T04:29:18Z</time>
      </trkpt>
      <trkpt lat="34.292243" lon="-117.382628">
        <ele>1382.796875</ele>
        <time>2017-11-05T04:29:37Z</time>
      </trkpt>
      <trkpt lat="34.292256" lon="-117.382631">
        <ele>1380.398438</ele>
        <time>2017-11-05T04:29:43Z</time>
      </trkpt>
      <trkpt lat="34.292345" lon="-117.382625">
        <ele>1380.199219</ele>
        <time>2017-11-05T04:29:44Z</time>
      </trkpt>
      <trkpt lat="34.29236" lon="-117.382619">
        <ele>1378.500000</ele>
        <time>2017-11-05T04:29:48Z</time>
      </trkpt>
      <trkpt lat="34.292427" lon="-117.382579">
        <ele>1378.296875</ele>
        <time>2017-11-05T04:29:49Z</time>
      </trkpt>
      <trkpt lat="34.292529" lon="-117.382507">
        <ele>1376.398438</ele>
        <time>2017-11-05T04:29:56Z</time>
      </trkpt>
      <trkpt lat="34.292541" lon="-117.382495">
        <ele>1375.097656</ele>
        <time>2017-11-05T04:30:02Z</time>
      </trkpt>
      <trkpt lat="34.292595" lon="-117.382426">
        <ele>1376.398438</ele>
        <time>2017-11-05T04:31:29Z</time>
      </trkpt>
      <trkpt lat="34.292593" lon="-117.382406">
        <ele>1376.500000</ele>
        <time>2017-11-05T04:31:51Z</time>
      </trkpt>
      <trkpt lat="34.292648" lon="-117.382326">
        <ele>1377.398438</ele>
        <time>2017-11-05T04:31:52Z</time>
      </trkpt>
      <trkpt lat="34.292657" lon="-117.382313">
        <ele>1378.000000</ele>
        <time>2017-11-05T04:31:57Z</time>
      </trkpt>
      <trkpt lat="34.292733" lon="-117.382266">
        <ele>1377.898438</ele>
        <time>2017-11-05T04:31:58Z</time>
      </trkpt>
      <trkpt lat="34.292747" lon="-117.382259">
        <ele>1377.199219</ele>
        <time>2017-11-05T04:32:07Z</time>
      </trkpt>
      <trkpt lat="34.293058" lon="-117.382102">
        <ele>1377.296875</ele>
        <time>2017-11-05T04:32:26Z</time>
      </trkpt>
      <trkpt lat="34.293071" lon="-117.382088">
        <ele>1379.296875</ele>
        <time>2017-11-05T04:32:30Z</time>
      </trkpt>
      <trkpt lat="34.293115" lon="-117.382012">
        <ele>1379.898438</ele>
        <time>2017-11-05T04:32:31Z</time>
      </trkpt>
      <trkpt lat="34.293122" lon="-117.381992">
        <ele>1382.398438</ele>
        <time>2017-11-05T04:32:35Z</time>
      </trkpt>
      <trkpt lat="34.293161" lon="-117.381888">
        <ele>1382.898438</ele>
        <time>2017-11-05T04:32:37Z</time>
      </trkpt>
      <trkpt lat="34.293171" lon="-117.381869">
        <ele>1383.097656</ele>
        <time>2017-11-05T04:32:43Z</time>
      </trkpt>
      <trkpt lat="34.293221" lon="-117.381805">
        <ele>1383.097656</ele>
        <time>2017-11-05T04:32:45Z</time>
      </trkpt>
      <trkpt lat="34.293235" lon="-117.381786">
        <ele>1382.000000</ele>
        <time>2017-11-05T04:32:56Z</time>
      </trkpt>
      <trkpt lat="34.293243" lon="-117.381698">
        <ele>1382.796875</ele>
        <time>2017-11-05T04:33:03Z</time>
      </trkpt>
      <trkpt lat="34.293236" lon="-117.381676">
        <ele>1381.699219</ele>
        <time>2017-11-05T04:33:14Z</time>
      </trkpt>
      <trkpt lat="34.293205" lon="-117.381593">
        <ele>1381.398438</ele>
        <time>2017-11-05T04:33:17Z</time>
      </trkpt>
      <trkpt lat="34.29319" lon="-117.381578">
        <ele>1377.898438</ele>
        <time>2017-11-05T04:33:29Z</time>
      </trkpt>
      <trkpt lat="34.293114" lon="-117.38148">
        <ele>1375.898438</ele>
        <time>2017-11-05T04:33:36Z</time>
      </trkpt>
      <trkpt lat="34.293111" lon="-117.381475">
        <ele>1372.898438</ele>
        <time>2017-11-05T04:33:50Z</time>
      </trkpt>
      <trkpt lat="34.293039" lon="-117.381411">
        <ele>1372.597656</ele>
        <time>2017-11-05T04:33:51Z</time>
      </trkpt>
      <trkpt lat="34.293033" lon="-117.381406">
        <ele>1369.796875</ele>
        <time>2017-11-05T04:34:01Z</time>
      </trkpt>
      <trkpt lat="34.29295" lon="-117.381353">
        <ele>1369.699219</ele>
        <time>2017-11-05T04:34:02Z</time>
      </trkpt>
      <trkpt lat="34.292937" lon="-117.381346">
        <ele>1369.398438</ele>
        <time>2017-11-05T04:34:09Z</time>
      </trkpt>
      <trkpt lat="34.292796" lon="-117.381277">
        <ele>1368.199219</ele>
        <time>2017-11-05T04:34:16Z</time>
      </trkpt>
      <trkpt lat="34.292779" lon="-117.381267">
        <ele>1366.398438</ele>
        <time>2017-11-05T04:34:21Z</time>
      </trkpt>
      <trkpt lat="34.292708" lon="-117.381207">
        <ele>1366.398438</ele>
        <time>2017-11-05T04:34:22Z</time>
      </trkpt>
      <trkpt lat="34.292692" lon="-117.381193">
        <ele>1365.000000</ele>
        <time>2017-11-05T04:34:26Z</time>
      </trkpt>
      <trkpt lat="34.292619" lon="-117.381156">
        <ele>1364.597656</ele>
        <time>2017-11-05T04:34:27Z</time>
      </trkpt>
      <trkpt lat="34.292599" lon="-117.381153">
        <ele>1363.097656</ele>
        <time>2017-11-05T04:34:31Z</time>
      </trkpt>
      <trkpt lat="34.292513" lon="-117.381151">
        <ele>1362.796875</ele>
        <time>2017-11-05T04:34:32Z</time>
      </trkpt>
      <trkpt lat="34.292488" lon="-117.381152">
        <ele>1362.097656</ele>
        <time>2017-11-05T04:34:35Z</time>
      </trkpt>
      <trkpt lat="34.292406" lon="-117.381167">
        <ele>1361.796875</ele>
        <time>2017-11-05T04:34:36Z</time>
      </trkpt>
      <trkpt lat="34.292378" lon="-117.381175">
        <ele>1360.199219</ele>
        <time>2017-11-05T04:34:39Z</time>
      </trkpt>
      <trkpt lat="34.29229" lon="-117.381175">
        <ele>1359.898438</ele>
        <time>2017-11-05T04:34:40Z</time>
      </trkpt>
      <trkpt lat="34.29226" lon="-117.381167">
        <ele>1359.000000</ele>
        <time>2017-11-05T04:34:42Z</time>
      </trkpt>
      <trkpt lat="34.292204" lon="-117.381137">
        <ele>1358.500000</ele>
        <time>2017-11-05T04:34:44Z</time>
      </trkpt>
      <trkpt lat="34.292162" lon="-117.381098">
        <ele>1358.000000</ele>
        <time>2017-11-05T04:34:47Z</time>
      </trkpt>
      <trkpt lat="34.292134" lon="-117.381054">
        <ele>1356.796875</ele>
        <time>2017-11-05T04:35:15Z</time>
      </trkpt>
      <trkpt lat="34.292112" lon="-117.380994">
        <ele>1355.796875</ele>
        <time>2017-11-05T04:35:18Z</time>
      </trkpt>
      <trkpt lat="34.292098" lon="-117.380918">
        <ele>1355.296875</ele>
        <time>2017-11-05T04:35:19Z</time>
      </trkpt>
      <trkpt lat="34.291996" lon="-117.38042">
        <ele>1350.296875</ele>
        <time>2017-11-05T04:35:35Z</time>
      </trkpt>
      <trkpt lat="34.29198" lon="-117.380272">
        <ele>1348.796875</ele>
        <time>2017-11-05T04:35:40Z</time>
      </trkpt>
      <trkpt lat="34.291974" lon="-117.380245">
        <ele>1348.000000</ele>
        <time>2017-11-05T04:35:43Z</time>
      </trkpt>
      <trkpt lat="34.291962" lon="-117.38016">
        <ele>1347.699219</ele>
        <time>2017-11-05T04:35:44Z</time>
      </trkpt>
      <trkpt lat="34.29196" lon="-117.380131">
        <ele>1346.398438</ele>
        <time>2017-11-05T04:35:47Z</time>
      </trkpt>
      <trkpt lat="34.291957" lon="-117.380038">
        <ele>1345.898438</ele>
        <time>2017-11-05T04:35:48Z</time>
      </trkpt>
      <trkpt lat="34.291953" lon="-117.380007">
        <ele>1344.699219</ele>
        <time>2017-11-05T04:35:51Z</time>
      </trkpt>
      <trkpt lat="34.291934" lon="-117.379907">
        <ele>1344.398438</ele>
        <time>2017-11-05T04:35:52Z</time>
      </trkpt>
      <trkpt lat="34.291925" lon="-117.379875">
        <ele>1343.898438</ele>
        <time>2017-11-05T04:35:55Z</time>
      </trkpt>
      <trkpt lat="34.291885" lon="-117.379793">
        <ele>1343.699219</ele>
        <time>2017-11-05T04:35:56Z</time>
      </trkpt>
      <trkpt lat="34.291872" lon="-117.379773">
        <ele>1343.398438</ele>
        <time>2017-11-05T04:35:59Z</time>
      </trkpt>
      <trkpt lat="34.291807" lon="-117.379668">
        <ele>1342.699219</ele>
        <time>2017-11-05T04:36:01Z</time>
      </trkpt>
      <trkpt lat="34.291791" lon="-117.379634">
        <ele>1341.597656</ele>
        <time>2017-11-05T04:36:03Z</time>
      </trkpt>
      <trkpt lat="34.291765" lon="-117.379562">
        <ele>1341.199219</ele>
        <time>2017-11-05T04:36:04Z</time>
      </trkpt>
      <trkpt lat="34.291754" lon="-117.379525">
        <ele>1340.296875</ele>
        <time>2017-11-05T04:36:06Z</time>
      </trkpt>
      <trkpt lat="34.291702" lon="-117.379302">
        <ele>1338.296875</ele>
        <time>2017-11-05T04:36:11Z</time>
      </trkpt>
      <trkpt lat="34.291695" lon="-117.379268">
        <ele>1336.699219</ele>
        <time>2017-11-05T04:36:14Z</time>
      </trkpt>
      <trkpt lat="34.291683" lon="-117.379158">
        <ele>1336.296875</ele>
        <time>2017-11-05T04:36:15Z</time>
      </trkpt>
      <trkpt lat="34.291682" lon="-117.37912">
        <ele>1335.000000</ele>
        <time>2017-11-05T04:36:17Z</time>
      </trkpt>
      <trkpt lat="34.291687" lon="-117.379008">
        <ele>1334.199219</ele>
        <time>2017-11-05T04:36:19Z</time>
      </trkpt>
      <trkpt lat="34.29169" lon="-117.378969">
        <ele>1333.796875</ele>
        <time>2017-11-05T04:36:21Z</time>
      </trkpt>
      <trkpt lat="34.291689" lon="-117.378894">
        <ele>1333.699219</ele>
        <time>2017-11-05T04:36:22Z</time>
      </trkpt>
      <trkpt lat="34.291683" lon="-117.378859">
        <ele>1332.699219</ele>
        <time>2017-11-05T04:36:25Z</time>
      </trkpt>
      <trkpt lat="34.291657" lon="-117.378768">
        <ele>1332.398438</ele>
        <time>2017-11-05T04:36:26Z</time>
      </trkpt>
      <trkpt lat="34.291651" lon="-117.378744">
        <ele>1331.097656</ele>
        <time>2017-11-05T04:36:30Z</time>
      </trkpt>
      <trkpt lat="34.291641" lon="-117.378657">
        <ele>1330.796875</ele>
        <time>2017-11-05T04:36:32Z</time>
      </trkpt>
      <trkpt lat="34.291639" lon="-117.378628">
        <ele>1329.296875</ele>
        <time>2017-11-05T04:36:37Z</time>
      </trkpt>
      <trkpt lat="34.291643" lon="-117.378498">
        <ele>1328.199219</ele>
        <time>2017-11-05T04:36:42Z</time>
      </trkpt>
      <trkpt lat="34.291645" lon="-117.378488">
        <ele>1326.699219</ele>
        <time>2017-11-05T04:36:49Z</time>
      </trkpt>
      <trkpt lat="34.291652" lon="-117.378388">
        <ele>1326.500000</ele>
        <time>2017-11-05T04:36:50Z</time>
      </trkpt>
      <trkpt lat="34.29165" lon="-117.378366">
        <ele>1325.296875</ele>
        <time>2017-11-05T04:36:54Z</time>
      </trkpt>
      <trkpt lat="34.291635" lon="-117.378275">
        <ele>1325.398438</ele>
        <time>2017-11-05T04:36:55Z</time>
      </trkpt>
      <trkpt lat="34.291629" lon="-117.378247">
        <ele>1324.796875</ele>
        <time>2017-11-05T04:36:58Z</time>
      </trkpt>
      <trkpt lat="34.291625" lon="-117.378153">
        <ele>1324.296875</ele>
        <time>2017-11-05T04:36:59Z</time>
      </trkpt>
      <trkpt lat="34.291633" lon="-117.378117">
        <ele>1323.398438</ele>
        <time>2017-11-05T04:37:01Z</time>
      </trkpt>
      <trkpt lat="34.29167" lon="-117.378051">
        <ele>1322.898438</ele>
        <time>2017-11-05T04:37:02Z</time>
      </trkpt>
      <trkpt lat="34.291697" lon="-117.378019">
        <ele>1321.796875</ele>
        <time>2017-11-05T04:37:04Z</time>
      </trkpt>
      <trkpt lat="34.291752" lon="-117.377965">
        <ele>1321.699219</ele>
        <time>2017-11-05T04:37:05Z</time>
      </trkpt>
      <trkpt lat="34.291777" lon="-117.377945">
        <ele>1320.097656</ele>
        <time>2017-11-05T04:37:08Z</time>
      </trkpt>
      <trkpt lat="34.291856" lon="-117.377911">
        <ele>1319.796875</ele>
        <time>2017-11-05T04:37:09Z</time>
      </trkpt>
      <trkpt lat="34.291884" lon="-117.377908">
        <ele>1318.097656</ele>
        <time>2017-11-05T04:37:12Z</time>
      </trkpt>
      <trkpt lat="34.291971" lon="-117.377917">
        <ele>1317.699219</ele>
        <time>2017-11-05T04:37:13Z</time>
      </trkpt>
      <trkpt lat="34.291999" lon="-117.377919">
        <ele>1317.000000</ele>
        <time>2017-11-05T04:37:16Z</time>
      </trkpt>
      <trkpt lat="34.292075" lon="-117.377907">
        <ele>1316.398438</ele>
        <time>2017-11-05T04:37:17Z</time>
      </trkpt>
      <trkpt lat="34.292094" lon="-117.377899">
        <ele>1315.500000</ele>
        <time>2017-11-05T04:37:21Z</time>
      </trkpt>
      <trkpt lat="34.292157" lon="-117.377833">
        <ele>1315.000000</ele>
        <time>2017-11-05T04:37:22Z</time>
      </trkpt>
      <trkpt lat="34.29217" lon="-117.377807">
        <ele>1314.000000</ele>
        <time>2017-11-05T04:37:25Z</time>
      </trkpt>
      <trkpt lat="34.292214" lon="-117.377704">
        <ele>1313.000000</ele>
        <time>2017-11-05T04:37:27Z</time>
      </trkpt>
      <trkpt lat="34.292223" lon="-117.377676">
        <ele>1311.699219</ele>
        <time>2017-11-05T04:37:30Z</time>
      </trkpt>
      <trkpt lat="34.292259" lon="-117.377595">
        <ele>1311.199219</ele>
        <time>2017-11-05T04:37:31Z</time>
      </trkpt>
      <trkpt lat="34.292424" lon="-117.37723">
        <ele>1307.199219</ele>
        <time>2017-11-05T04:37:44Z</time>
      </trkpt>
      <trkpt lat="34.29244" lon="-117.377204">
        <ele>1305.898438</ele>
        <time>2017-11-05T04:37:47Z</time>
      </trkpt>
      <trkpt lat="34.292504" lon="-117.377157">
        <ele>1306.000000</ele>
        <time>2017-11-05T04:37:48Z</time>
      </trkpt>
      <trkpt lat="34.292527" lon="-117.377148">
        <ele>1305.500000</ele>
        <time>2017-11-05T04:37:51Z</time>
      </trkpt>
      <trkpt lat="34.292642" lon="-117.377111">
        <ele>1305.597656</ele>
        <time>2017-11-05T04:37:54Z</time>
      </trkpt>
      <trkpt lat="34.292668" lon="-117.377109">
        <ele>1304.500000</ele>
        <time>2017-11-05T04:37:57Z</time>
      </trkpt>
      <trkpt lat="34.292749" lon="-117.377129">
        <ele>1304.398438</ele>
        <time>2017-11-05T04:37:58Z</time>
      </trkpt>
      <trkpt lat="34.292771" lon="-117.37714">
        <ele>1303.097656</ele>
        <time>2017-11-05T04:38:02Z</time>
      </trkpt>
      <trkpt lat="34.292844" lon="-117.377188">
        <ele>1302.296875</ele>
        <time>2017-11-05T04:38:03Z</time>
      </trkpt>
      <trkpt lat="34.292862" lon="-117.377204">
        <ele>1300.898438</ele>
        <time>2017-11-05T04:38:07Z</time>
      </trkpt>
      <trkpt lat="34.292986" lon="-117.377321">
        <ele>1301.597656</ele>
        <time>2017-11-05T04:38:11Z</time>
      </trkpt>
      <trkpt lat="34.293006" lon="-117.377332">
        <ele>1300.199219</ele>
        <time>2017-11-05T04:38:15Z</time>
      </trkpt>
      <trkpt lat="34.293077" lon="-117.377361">
        <ele>1299.898438</ele>
        <time>2017-11-05T04:38:16Z</time>
      </trkpt>
      <trkpt lat="34.293258" lon="-117.377435">
        <ele>1299.398438</ele>
        <time>2017-11-05T04:38:27Z</time>
      </trkpt>
      <trkpt lat="34.293276" lon="-117.37744">
        <ele>1299.000000</ele>
        <time>2017-11-05T04:38:31Z</time>
      </trkpt>
      <trkpt lat="34.293362" lon="-117.377478">
        <ele>1299.796875</ele>
        <time>2017-11-05T04:38:33Z</time>
      </trkpt>
      <trkpt lat="34.293383" lon="-117.377486">
        <ele>1300.500000</ele>
        <time>2017-11-05T04:38:38Z</time>
      </trkpt>
      <trkpt lat="34.293486" lon="-117.377511">
        <ele>1298.398438</ele>
        <time>2017-11-05T04:38:41Z</time>
      </trkpt>
      <trkpt lat="34.293505" lon="-117.377506">
        <ele>1297.500000</ele>
        <time>2017-11-05T04:38:45Z</time>
      </trkpt>
      <trkpt lat="34.293583" lon="-117.377491">
        <ele>1297.097656</ele>
        <time>2017-11-05T04:38:46Z</time>
      </trkpt>
      <trkpt lat="34.293604" lon="-117.377492">
        <ele>1294.097656</ele>
        <time>2017-11-05T04:38:50Z</time>
      </trkpt>
      <trkpt lat="34.293685" lon="-117.377526">
        <ele>1293.898438</ele>
        <time>2017-11-05T04:38:51Z</time>
      </trkpt>
      <trkpt lat="34.293705" lon="-117.377536">
        <ele>1292.898438</ele>
        <time>2017-11-05T04:38:54Z</time>
      </trkpt>
      <trkpt lat="34.29377" lon="-117.377583">
        <ele>1292.500000</ele>
        <time>2017-11-05T04:38:55Z</time>
      </trkpt>
      <trkpt lat="34.293788" lon="-117.377599">
        <ele>1289.296875</ele>
        <time>2017-11-05T04:38:58Z</time>
      </trkpt>
      <trkpt lat="34.293827" lon="-117.377667">
        <ele>1288.199219</ele>
        <time>2017-11-05T04:39:00Z</time>
      </trkpt>
      <trkpt lat="34.293845" lon="-117.37771">
        <ele>1287.296875</ele>
        <time>2017-11-05T04:39:03Z</time>
      </trkpt>
      <trkpt lat="34.2939" lon="-117.377827">
        <ele>1286.199219</ele>
        <time>2017-11-05T04:39:07Z</time>
      </trkpt>
      <trkpt lat="34.293914" lon="-117.377844">
        <ele>1286.000000</ele>
        <time>2017-11-05T04:39:11Z</time>
      </trkpt>
      <trkpt lat="34.293989" lon="-117.377905">
        <ele>1286.199219</ele>
        <time>2017-11-05T04:39:12Z</time>
      </trkpt>
      <trkpt lat="34.294009" lon="-117.377916">
        <ele>1285.398438</ele>
        <time>2017-11-05T04:39:15Z</time>
      </trkpt>
      <trkpt lat="34.294081" lon="-117.37794">
        <ele>1285.796875</ele>
        <time>2017-11-05T04:39:16Z</time>
      </trkpt>
      <trkpt lat="34.294105" lon="-117.377946">
        <ele>1286.500000</ele>
        <time>2017-11-05T04:39:19Z</time>
      </trkpt>
      <trkpt lat="34.294186" lon="-117.377962">
        <ele>1286.398438</ele>
        <time>2017-11-05T04:39:20Z</time>
      </trkpt>
      <trkpt lat="34.294206" lon="-117.377972">
        <ele>1285.597656</ele>
        <time>2017-11-05T04:39:24Z</time>
      </trkpt>
      <trkpt lat="34.29429" lon="-117.378022">
        <ele>1285.097656</ele>
        <time>2017-11-05T04:39:25Z</time>
      </trkpt>
      <trkpt lat="34.294422" lon="-117.378112">
        <ele>1281.699219</ele>
        <time>2017-11-05T04:39:31Z</time>
      </trkpt>
      <trkpt lat="34.294445" lon="-117.378124">
        <ele>1279.796875</ele>
        <time>2017-11-05T04:39:34Z</time>
      </trkpt>
      <trkpt lat="34.294507" lon="-117.378175">
        <ele>1279.000000</ele>
        <time>2017-11-05T04:39:35Z</time>
      </trkpt>
      <trkpt lat="34.294527" lon="-117.378194">
        <ele>1278.398438</ele>
        <time>2017-11-05T04:39:38Z</time>
      </trkpt>
      <trkpt lat="34.294597" lon="-117.378234">
        <ele>1278.097656</ele>
        <time>2017-11-05T04:39:39Z</time>
      </trkpt>
      <trkpt lat="34.294621" lon="-117.378243">
        <ele>1278.398438</ele>
        <time>2017-11-05T04:39:42Z</time>
      </trkpt>
      <trkpt lat="34.294692" lon="-117.378237">
        <ele>1277.597656</ele>
        <time>2017-11-05T04:39:43Z</time>
      </trkpt>
      <trkpt lat="34.29471" lon="-117.378232">
        <ele>1274.796875</ele>
        <time>2017-11-05T04:39:47Z</time>
      </trkpt>
      <trkpt lat="34.294772" lon="-117.378176">
        <ele>1274.199219</ele>
        <time>2017-11-05T04:39:48Z</time>
      </trkpt>
      <trkpt lat="34.294872" lon="-117.378076">
        <ele>1270.796875</ele>
        <time>2017-11-05T04:39:54Z</time>
      </trkpt>
      <trkpt lat="34.29489" lon="-117.378064">
        <ele>1269.398438</ele>
        <time>2017-11-05T04:39:58Z</time>
      </trkpt>
      <trkpt lat="34.294967" lon="-117.378044">
        <ele>1269.296875</ele>
        <time>2017-11-05T04:39:59Z</time>
      </trkpt>
      <trkpt lat="34.294984" lon="-117.378045">
        <ele>1268.296875</ele>
        <time>2017-11-05T04:40:03Z</time>
      </trkpt>
      <trkpt lat="34.295061" lon="-117.378057">
        <ele>1268.097656</ele>
        <time>2017-11-05T04:40:04Z</time>
      </trkpt>
      <trkpt lat="34.295079" lon="-117.378061">
        <ele>1267.898438</ele>
        <time>2017-11-05T04:40:08Z</time>
      </trkpt>
      <trkpt lat="34.295163" lon="-117.378069">
        <ele>1268.000000</ele>
        <time>2017-11-05T04:40:09Z</time>
      </trkpt>
      <trkpt lat="34.295185" lon="-117.378069">
        <ele>1267.699219</ele>
        <time>2017-11-05T04:40:12Z</time>
      </trkpt>
      <trkpt lat="34.295254" lon="-117.378063">
        <ele>1267.500000</ele>
        <time>2017-11-05T04:40:13Z</time>
      </trkpt>
      <trkpt lat="34.295284" lon="-117.378057">
        <ele>1267.199219</ele>
        <time>2017-11-05T04:40:15Z</time>
      </trkpt>
      <trkpt lat="34.295347" lon="-117.378039">
        <ele>1266.796875</ele>
        <time>2017-11-05T04:40:16Z</time>
      </trkpt>
      <trkpt lat="34.295378" lon="-117.378026">
        <ele>1266.398438</ele>
        <time>2017-11-05T04:40:18Z</time>
      </trkpt>
      <trkpt lat="34.295437" lon="-117.377996">
        <ele>1266.199219</ele>
        <time>2017-11-05T04:40:19Z</time>
      </trkpt>
      <trkpt lat="34.295465" lon="-117.377978">
        <ele>1265.597656</ele>
        <time>2017-11-05T04:40:22Z</time>
      </trkpt>
      <trkpt lat="34.295526" lon="-117.377932">
        <ele>1265.398438</ele>
        <time>2017-11-05T04:40:23Z</time>
      </trkpt>
      <trkpt lat="34.295541" lon="-117.377916">
        <ele>1264.398438</ele>
        <time>2017-11-05T04:40:28Z</time>
      </trkpt>
      <trkpt lat="34.29559" lon="-117.377854">
        <ele>1264.000000</ele>
        <time>2017-11-05T04:40:30Z</time>
      </trkpt>
      <trkpt lat="34.295863" lon="-117.37749">
        <ele>1263.398438</ele>
        <time>2017-11-05T04:41:09Z</time>
      </trkpt>
      <trkpt lat="34.295874" lon="-117.37747">
        <ele>1264.699219</ele>
        <time>2017-11-05T04:41:13Z</time>
      </trkpt>
      <trkpt lat="34.295901" lon="-117.377378">
        <ele>1264.796875</ele>
        <time>2017-11-05T04:41:14Z</time>
      </trkpt>
      <trkpt lat="34.295901" lon="-117.377357">
        <ele>1265.898438</ele>
        <time>2017-11-05T04:41:18Z</time>
      </trkpt>
      <trkpt lat="34.295893" lon="-117.377259">
        <ele>1266.097656</ele>
        <time>2017-11-05T04:41:19Z</time>
      </trkpt>
      <trkpt lat="34.29589" lon="-117.377242">
        <ele>1266.199219</ele>
        <time>2017-11-05T04:41:26Z</time>
      </trkpt>
      <trkpt lat="34.295874" lon="-117.377148">
        <ele>1266.296875</ele>
        <time>2017-11-05T04:41:27Z</time>
      </trkpt>
      <trkpt lat="34.295872" lon="-117.377131">
        <ele>1266.597656</ele>
        <time>2017-11-05T04:41:31Z</time>
      </trkpt>
      <trkpt lat="34.295869" lon="-117.377039">
        <ele>1266.597656</ele>
        <time>2017-11-05T04:41:32Z</time>
      </trkpt>
      <trkpt lat="34.295871" lon="-117.377009">
        <ele>1266.296875</ele>
        <time>2017-11-05T04:41:35Z</time>
      </trkpt>
      <trkpt lat="34.295895" lon="-117.376679">
        <ele>1266.398438</ele>
        <time>2017-11-05T04:41:48Z</time>
      </trkpt>
      <trkpt lat="34.295897" lon="-117.376659">
        <ele>1265.398438</ele>
        <time>2017-11-05T04:41:52Z</time>
      </trkpt>
      <trkpt lat="34.29592" lon="-117.376556">
        <ele>1265.296875</ele>
        <time>2017-11-05T04:41:53Z</time>
      </trkpt>
      <trkpt lat="34.295927" lon="-117.376531">
        <ele>1264.898438</ele>
        <time>2017-11-05T04:41:58Z</time>
      </trkpt>
      <trkpt lat="34.295973" lon="-117.376403">
        <ele>1264.699219</ele>
        <time>2017-11-05T04:42:03Z</time>
      </trkpt>
      <trkpt lat="34.295982" lon="-117.376407">
        <ele>1264.199219</ele>
        <time>2017-11-05T04:42:24Z</time>
      </trkpt>
      <trkpt lat="34.295982" lon="-117.376407">
        <ele>1264.199219</ele>
        <time>2017-11-05T04:42:24Z</time>
      </trkpt>
    </trkseg>
    <trkseg>
      <trkpt lat="34.296032" lon="-117.375922">
        <ele>1266.097656</ele>
        <time>2017-11-05T04:45:13Z</time>
      </trkpt>
      <trkpt lat="34.296024" lon="-117.375788">
        <ele>1267.699219</ele>
        <time>2017-11-05T04:45:22Z</time>
      </trkpt>
      <trkpt lat="34.296021" lon="-117.375771">
        <ele>1269.000000</ele>
        <time>2017-11-05T04:45:28Z</time>
      </trkpt>
      <trkpt lat="34.29601" lon="-117.375675">
        <ele>1269.199219</ele>
        <time>2017-11-05T04:45:29Z</time>
      </trkpt>
      <trkpt lat="34.29601" lon="-117.37566">
        <ele>1270.898438</ele>
        <time>2017-11-05T04:45:38Z</time>
      </trkpt>
      <trkpt lat="34.296024" lon="-117.375561">
        <ele>1271.000000</ele>
        <time>2017-11-05T04:45:39Z</time>
      </trkpt>
      <trkpt lat="34.296027" lon="-117.375551">
        <ele>1273.898438</ele>
        <time>2017-11-05T04:45:48Z</time>
      </trkpt>
      <trkpt lat="34.296052" lon="-117.375453">
        <ele>1274.000000</ele>
        <time>2017-11-05T04:45:49Z</time>
      </trkpt>
      <trkpt lat="34.296051" lon="-117.375441">
        <ele>1275.296875</ele>
        <time>2017-11-05T04:45:56Z</time>
      </trkpt>
      <trkpt lat="34.296053" lon="-117.375339">
        <ele>1275.398438</ele>
        <time>2017-11-05T04:45:57Z</time>
      </trkpt>
      <trkpt lat="34.296058" lon="-117.375321">
        <ele>1276.796875</ele>
        <time>2017-11-05T04:46:02Z</time>
      </trkpt>
      <trkpt lat="34.296116" lon="-117.375131">
        <ele>1279.000000</ele>
        <time>2017-11-05T04:46:11Z</time>
      </trkpt>
      <trkpt lat="34.296115" lon="-117.375117">
        <ele>1281.199219</ele>
        <time>2017-11-05T04:46:19Z</time>
      </trkpt>
      <trkpt lat="34.296146" lon="-117.375013">
        <ele>1281.699219</ele>
        <time>2017-11-05T04:46:20Z</time>
      </trkpt>
      <trkpt lat="34.296152" lon="-117.374995">
        <ele>1282.296875</ele>
        <time>2017-11-05T04:46:24Z</time>
      </trkpt>
      <trkpt lat="34.296198" lon="-117.374914">
        <ele>1282.398438</ele>
        <time>2017-11-05T04:46:25Z</time>
      </trkpt>
      <trkpt lat="34.296212" lon="-117.3749">
        <ele>1283.398438</ele>
        <time>2017-11-05T04:46:30Z</time>
      </trkpt>
      <trkpt lat="34.296297" lon="-117.374849">
        <ele>1283.398438</ele>
        <time>2017-11-05T04:46:31Z</time>
      </trkpt>
      <trkpt lat="34.296319" lon="-117.374839">
        <ele>1283.898438</ele>
        <time>2017-11-05T04:46:34Z</time>
      </trkpt>
      <trkpt lat="34.296395" lon="-117.374814">
        <ele>1284.097656</ele>
        <time>2017-11-05T04:46:35Z</time>
      </trkpt>
      <trkpt lat="34.29642" lon="-117.374808">
        <ele>1284.597656</ele>
        <time>2017-11-05T04:46:38Z</time>
      </trkpt>
      <trkpt lat="34.296613" lon="-117.374769">
        <ele>1286.398438</ele>
        <time>2017-11-05T04:46:47Z</time>
      </trkpt>
      <trkpt lat="34.296623" lon="-117.374765">
        <ele>1286.796875</ele>
        <time>2017-11-05T04:47:00Z</time>
      </trkpt>
      <trkpt lat="34.2967" lon="-117.374729">
        <ele>1286.597656</ele>
        <time>2017-11-05T04:47:02Z</time>
      </trkpt>
      <trkpt lat="34.296711" lon="-117.374715">
        <ele>1286.000000</ele>
        <time>2017-11-05T04:47:09Z</time>
      </trkpt>
      <trkpt lat="34.296754" lon="-117.374633">
        <ele>1285.898438</ele>
        <time>2017-11-05T04:47:10Z</time>
      </trkpt>
      <trkpt lat="34.296759" lon="-117.374612">
        <ele>1286.500000</ele>
        <time>2017-11-05T04:47:14Z</time>
      </trkpt>
      <trkpt lat="34.296763" lon="-117.374519">
        <ele>1286.796875</ele>
        <time>2017-11-05T04:47:15Z</time>
      </trkpt>
      <trkpt lat="34.296764" lon="-117.374408">
        <ele>1287.699219</ele>
        <time>2017-11-05T04:47:20Z</time>
      </trkpt>
      <trkpt lat="34.296762" lon="-117.374387">
        <ele>1287.097656</ele>
        <time>2017-11-05T04:47:24Z</time>
      </trkpt>
      <trkpt lat="34.29673" lon="-117.374299">
        <ele>1287.199219</ele>
        <time>2017-11-05T04:47:25Z</time>
      </trkpt>
      <trkpt lat="34.29672" lon="-117.374282">
        <ele>1287.898438</ele>
        <time>2017-11-05T04:47:29Z</time>
      </trkpt>
      <trkpt lat="34.296672" lon="-117.374211">
        <ele>1288.097656</ele>
        <time>2017-11-05T04:47:30Z</time>
      </trkpt>
      <trkpt lat="34.296398" lon="-117.373845">
        <ele>1292.000000</ele>
        <time>2017-11-05T04:47:56Z</time>
      </trkpt>
      <trkpt lat="34.296288" lon="-117.373721">
        <ele>1294.199219</ele>
        <time>2017-11-05T04:48:08Z</time>
      </trkpt>
      <trkpt lat="34.296279" lon="-117.373706">
        <ele>1294.699219</ele>
        <time>2017-11-05T04:48:15Z</time>
      </trkpt>
      <trkpt lat="34.29625" lon="-117.373614">
        <ele>1294.898438</ele>
        <time>2017-11-05T04:48:16Z</time>
      </trkpt>
      <trkpt lat="34.296206" lon="-117.373483">
        <ele>1295.796875</ele>
        <time>2017-11-05T04:48:24Z</time>
      </trkpt>
      <trkpt lat="34.296202" lon="-117.373465">
        <ele>1297.000000</ele>
        <time>2017-11-05T04:48:29Z</time>
      </trkpt>
      <trkpt lat="34.296184" lon="-117.373365">
        <ele>1297.296875</ele>
        <time>2017-11-05T04:48:30Z</time>
      </trkpt>
      <trkpt lat="34.296184" lon="-117.373346">
        <ele>1298.000000</ele>
        <time>2017-11-05T04:48:35Z</time>
      </trkpt>
      <trkpt lat="34.296201" lon="-117.373248">
        <ele>1298.097656</ele>
        <time>2017-11-05T04:48:36Z</time>
      </trkpt>
      <trkpt lat="34.296212" lon="-117.373226">
        <ele>1298.500000</ele>
        <time>2017-11-05T04:48:41Z</time>
      </trkpt>
      <trkpt lat="34.296275" lon="-117.373157">
        <ele>1298.296875</ele>
        <time>2017-11-05T04:48:42Z</time>
      </trkpt>
      <trkpt lat="34.296289" lon="-117.37315">
        <ele>1298.097656</ele>
        <time>2017-11-05T04:48:48Z</time>
      </trkpt>
      <trkpt lat="34.296365" lon="-117.373113">
        <ele>1298.097656</ele>
        <time>2017-11-05T04:48:49Z</time>
      </trkpt>
      <trkpt lat="34.296377" lon="-117.373103">
        <ele>1298.500000</ele>
        <time>2017-11-05T04:48:57Z</time>
      </trkpt>
      <trkpt lat="34.296499" lon="-117.373023">
        <ele>1298.597656</ele>
        <time>2017-11-05T04:49:15Z</time>
      </trkpt>
      <trkpt lat="34.296509" lon="-117.373018">
        <ele>1297.199219</ele>
        <time>2017-11-05T04:49:20Z</time>
      </trkpt>
      <trkpt lat="34.296592" lon="-117.372984">
        <ele>1297.000000</ele>
        <time>2017-11-05T04:49:21Z</time>
      </trkpt>
      <trkpt lat="34.296611" lon="-117.372977">
        <ele>1296.898438</ele>
        <time>2017-11-05T04:49:25Z</time>
      </trkpt>
      <trkpt lat="34.296687" lon="-117.372948">
        <ele>1296.597656</ele>
        <time>2017-11-05T04:49:26Z</time>
      </trkpt>
      <trkpt lat="34.296704" lon="-117.372939">
        <ele>1296.199219</ele>
        <time>2017-11-05T04:49:31Z</time>
      </trkpt>
      <trkpt lat="34.296758" lon="-117.372865">
        <ele>1296.296875</ele>
        <time>2017-11-05T04:49:32Z</time>
      </trkpt>
      <trkpt lat="34.296759" lon="-117.372849">
        <ele>1297.199219</ele>
        <time>2017-11-05T04:49:37Z</time>
      </trkpt>
      <trkpt lat="34.296732" lon="-117.372751">
        <ele>1297.398438</ele>
        <time>2017-11-05T04:49:38Z</time>
      </trkpt>
      <trkpt lat="34.296726" lon="-117.372732">
        <ele>1295.296875</ele>
        <time>2017-11-05T04:49:42Z</time>
      </trkpt>
      <trkpt lat="34.296713" lon="-117.372635">
        <ele>1294.597656</ele>
        <time>2017-11-05T04:49:43Z</time>
      </trkpt>
      <trkpt lat="34.296712" lon="-117.372602">
        <ele>1293.898438</ele>
        <time>2017-11-05T04:49:46Z</time>
      </trkpt>
      <trkpt lat="34.296697" lon="-117.372397">
        <ele>1293.699219</ele>
        <time>2017-11-05T04:49:55Z</time>
      </trkpt>
      <trkpt lat="34.296695" lon="-117.37239">
        <ele>1291.699219</ele>
        <time>2017-11-05T04:50:05Z</time>
      </trkpt>
      <trkpt lat="34.29665" lon="-117.372294">
        <ele>1291.500000</ele>
        <time>2017-11-05T04:50:06Z</time>
      </trkpt>
      <trkpt lat="34.296586" lon="-117.372183">
        <ele>1290.398438</ele>
        <time>2017-11-05T04:50:17Z</time>
      </trkpt>
      <trkpt lat="34.296574" lon="-117.372165">
        <ele>1290.296875</ele>
        <time>2017-11-05T04:50:21Z</time>
      </trkpt>
      <trkpt lat="34.296533" lon="-117.372085">
        <ele>1290.296875</ele>
        <time>2017-11-05T04:50:22Z</time>
      </trkpt>
      <trkpt lat="34.296526" lon="-117.372064">
        <ele>1290.398438</ele>
        <time>2017-11-05T04:50:27Z</time>
      </trkpt>
      <trkpt lat="34.296489" lon="-117.371972">
        <ele>1290.398438</ele>
        <time>2017-11-05T04:50:28Z</time>
      </trkpt>
      <trkpt lat="34.296389" lon="-117.371758">
        <ele>1290.097656</ele>
        <time>2017-11-05T04:50:51Z</time>
      </trkpt>
      <trkpt lat="34.296394" lon="-117.371756">
        <ele>1291.296875</ele>
        <time>2017-11-05T04:52:37Z</time>
      </trkpt>
      <trkpt lat="34.296394" lon="-117.371756">
        <ele>1291.296875</ele>
        <time>2017-11-05T04:52:37Z</time>
      </trkpt>
    </trkseg>
    <trkseg>
      <trkpt lat="34.296325" lon="-117.371606">
        <ele>1292.398438</ele>
        <time>2017-11-05T04:53:23Z</time>
      </trkpt>
      <trkpt lat="34.296266" lon="-117.371449">
        <ele>1292.597656</ele>
        <time>2017-11-05T04:53:37Z</time>
      </trkpt>
      <trkpt lat="34.296261" lon="-117.371439">
        <ele>1292.796875</ele>
        <time>2017-11-05T04:53:45Z</time>
      </trkpt>
      <trkpt lat="34.296229" lon="-117.371335">
        <ele>1292.898438</ele>
        <time>2017-11-05T04:53:46Z</time>
      </trkpt>
      <trkpt lat="34.296224" lon="-117.37132">
        <ele>1294.097656</ele>
        <time>2017-11-05T04:53:53Z</time>
      </trkpt>
      <trkpt lat="34.29617" lon="-117.37116">
        <ele>1295.699219</ele>
        <time>2017-11-05T04:53:59Z</time>
      </trkpt>
      <trkpt lat="34.296164" lon="-117.37115">
        <ele>1297.097656</ele>
        <time>2017-11-05T04:54:07Z</time>
      </trkpt>
      <trkpt lat="34.296145" lon="-117.371052">
        <ele>1297.296875</ele>
        <time>2017-11-05T04:54:08Z</time>
      </trkpt>
      <trkpt lat="34.296141" lon="-117.37104">
        <ele>1299.000000</ele>
        <time>2017-11-05T04:54:20Z</time>
      </trkpt>
      <trkpt lat="34.296143" lon="-117.370943">
        <ele>1299.500000</ele>
        <time>2017-11-05T04:54:23Z</time>
      </trkpt>
      <trkpt lat="34.296143" lon="-117.370929">
        <ele>1301.398438</ele>
        <time>2017-11-05T04:54:32Z</time>
      </trkpt>
      <trkpt lat="34.296159" lon="-117.370811">
        <ele>1301.699219</ele>
        <time>2017-11-05T04:54:35Z</time>
      </trkpt>
      <trkpt lat="34.296159" lon="-117.370799">
        <ele>1303.199219</ele>
        <time>2017-11-05T04:54:43Z</time>
      </trkpt>
      <trkpt lat="34.29616" lon="-117.370702">
        <ele>1303.398438</ele>
        <time>2017-11-05T04:54:44Z</time>
      </trkpt>
      <trkpt lat="34.296159" lon="-117.370689">
        <ele>1305.500000</ele>
        <time>2017-11-05T04:54:53Z</time>
      </trkpt>
      <trkpt lat="34.296141" lon="-117.370568">
        <ele>1306.296875</ele>
        <time>2017-11-05T04:54:56Z</time>
      </trkpt>
      <trkpt lat="34.296143" lon="-117.370557">
        <ele>1308.699219</ele>
        <time>2017-11-05T04:55:15Z</time>
      </trkpt>
      <trkpt lat="34.296144" lon="-117.370457">
        <ele>1308.699219</ele>
        <time>2017-11-05T04:55:16Z</time>
      </trkpt>
      <trkpt lat="34.296139" lon="-117.370445">
        <ele>1310.699219</ele>
        <time>2017-11-05T04:55:46Z</time>
      </trkpt>
      <trkpt lat="34.296123" lon="-117.370342">
        <ele>1311.199219</ele>
        <time>2017-11-05T04:55:47Z</time>
      </trkpt>
      <trkpt lat="34.296126" lon="-117.370331">
        <ele>1314.398438</ele>
        <time>2017-11-05T04:55:55Z</time>
      </trkpt>
      <trkpt lat="34.296149" lon="-117.370211">
        <ele>1316.097656</ele>
        <time>2017-11-05T04:55:57Z</time>
      </trkpt>
      <trkpt lat="34.296154" lon="-117.370199">
        <ele>1320.199219</ele>
        <time>2017-11-05T04:56:07Z</time>
      </trkpt>
      <trkpt lat="34.296167" lon="-117.370097">
        <ele>1320.597656</ele>
        <time>2017-11-05T04:56:08Z</time>
      </trkpt>
      <trkpt lat="34.296169" lon="-117.370089">
        <ele>1322.296875</ele>
        <time>2017-11-05T04:56:15Z</time>
      </trkpt>
      <trkpt lat="34.296204" lon="-117.369983">
        <ele>1322.296875</ele>
        <time>2017-11-05T04:56:16Z</time>
      </trkpt>
      <trkpt lat="34.29621" lon="-117.36997">
        <ele>1322.699219</ele>
        <time>2017-11-05T04:56:22Z</time>
      </trkpt>
      <trkpt lat="34.296257" lon="-117.369868">
        <ele>1323.296875</ele>
        <time>2017-11-05T04:56:25Z</time>
      </trkpt>
      <trkpt lat="34.296258" lon="-117.369862">
        <ele>1324.199219</ele>
        <time>2017-11-05T04:56:50Z</time>
      </trkpt>
      <trkpt lat="34.296303" lon="-117.369753">
        <ele>1324.097656</ele>
        <time>2017-11-05T04:56:51Z</time>
      </trkpt>
      <trkpt lat="34.29631" lon="-117.369735">
        <ele>1322.699219</ele>
        <time>2017-11-05T04:56:56Z</time>
      </trkpt>
      <trkpt lat="34.296322" lon="-117.369636">
        <ele>1322.296875</ele>
        <time>2017-11-05T04:56:57Z</time>
      </trkpt>
      <trkpt lat="34.296322" lon="-117.369611">
        <ele>1321.296875</ele>
        <time>2017-11-05T04:57:00Z</time>
      </trkpt>
      <trkpt lat="34.296293" lon="-117.369238">
        <ele>1321.000000</ele>
        <time>2017-11-05T04:57:17Z</time>
      </trkpt>
      <trkpt lat="34.2963" lon="-117.369205">
        <ele>1320.000000</ele>
        <time>2017-11-05T04:59:09Z</time>
      </trkpt>
      <trkpt lat="34.2963" lon="-117.369205">
        <ele>1320.000000</ele>
        <time>2017-11-05T04:59:09Z</time>
      </trkpt>
    </trkseg>
    <trkseg>
      <trkpt lat="34.296306" lon="-117.369169">
        <ele>1320.500000</ele>
        <time>2017-11-05T04:59:13Z</time>
      </trkpt>
      <trkpt lat="34.296358" lon="-117.369039">
        <ele>1321.796875</ele>
        <time>2017-11-05T04:59:28Z</time>
      </trkpt>
      <trkpt lat="34.296364" lon="-117.369031">
        <ele>1320.000000</ele>
        <time>2017-11-05T04:59:37Z</time>
      </trkpt>
      <trkpt lat="34.29643" lon="-117.36897">
        <ele>1319.796875</ele>
        <time>2017-11-05T04:59:38Z</time>
      </trkpt>
      <trkpt lat="34.29644" lon="-117.368965">
        <ele>1319.000000</ele>
        <time>2017-11-05T04:59:47Z</time>
      </trkpt>
      <trkpt lat="34.296503" lon="-117.368886">
        <ele>1319.199219</ele>
        <time>2017-11-05T04:59:48Z</time>
      </trkpt>
      <trkpt lat="34.29651" lon="-117.368876">
        <ele>1317.500000</ele>
        <time>2017-11-05T05:01:42Z</time>
      </trkpt>
      <trkpt lat="34.296595" lon="-117.368722">
        <ele>1314.199219</ele>
        <time>2017-11-05T05:01:48Z</time>
      </trkpt>
      <trkpt lat="34.296595" lon="-117.368722">
        <ele>1314.199219</ele>
        <time>2017-11-05T05:01:48Z</time>
      </trkpt>
    </trkseg>
    <trkseg>
      <trkpt lat="34.296646" lon="-117.368631">
        <ele>1312.597656</ele>
        <time>2017-11-05T05:01:53Z</time>
      </trkpt>
      <trkpt lat="34.296698" lon="-117.36849">
        <ele>1311.597656</ele>
        <time>2017-11-05T05:02:00Z</time>
      </trkpt>
      <trkpt lat="34.296705" lon="-117.368462">
        <ele>1311.097656</ele>
        <time>2017-11-05T05:02:03Z</time>
      </trkpt>
      <trkpt lat="34.296722" lon="-117.368346">
        <ele>1311.000000</ele>
        <time>2017-11-05T05:02:05Z</time>
      </trkpt>
      <trkpt lat="34.296723" lon="-117.368315">
        <ele>1310.398438</ele>
        <time>2017-11-05T05:02:08Z</time>
      </trkpt>
      <trkpt lat="34.296723" lon="-117.368234">
        <ele>1309.597656</ele>
        <time>2017-11-05T05:02:10Z</time>
      </trkpt>
      <trkpt lat="34.296717" lon="-117.368073">
        <ele>1307.796875</ele>
        <time>2017-11-05T05:02:15Z</time>
      </trkpt>
      <trkpt lat="34.296732" lon="-117.367929">
        <ele>1305.898438</ele>
        <time>2017-11-05T05:02:20Z</time>
      </trkpt>
      <trkpt lat="34.296761" lon="-117.367816">
        <ele>1305.398438</ele>
        <time>2017-11-05T05:02:24Z</time>
      </trkpt>
      <trkpt lat="34.296845" lon="-117.367567">
        <ele>1306.500000</ele>
        <time>2017-11-05T05:02:34Z</time>
      </trkpt>
      <trkpt lat="34.296888" lon="-117.367436">
        <ele>1306.796875</ele>
        <time>2017-11-05T05:02:41Z</time>
      </trkpt>
      <trkpt lat="34.296892" lon="-117.367415">
        <ele>1305.597656</ele>
        <time>2017-11-05T05:02:47Z</time>
      </trkpt>
      <trkpt lat="34.296889" lon="-117.367317">
        <ele>1305.398438</ele>
        <time>2017-11-05T05:02:48Z</time>
      </trkpt>
      <trkpt lat="34.296887" lon="-117.3673">
        <ele>1304.097656</ele>
        <time>2017-11-05T05:02:55Z</time>
      </trkpt>
      <trkpt lat="34.296859" lon="-117.367143">
        <ele>1302.597656</ele>
        <time>2017-11-05T05:03:02Z</time>
      </trkpt>
      <trkpt lat="34.296859" lon="-117.367128">
        <ele>1300.796875</ele>
        <time>2017-11-05T05:03:08Z</time>
      </trkpt>
      <trkpt lat="34.296848" lon="-117.366927">
        <ele>1298.699219</ele>
        <time>2017-11-05T05:03:15Z</time>
      </trkpt>
      <trkpt lat="34.296844" lon="-117.366871">
        <ele>1296.097656</ele>
        <time>2017-11-05T05:05:27Z</time>
      </trkpt>
      <trkpt lat="34.296844" lon="-117.366871">
        <ele>1296.097656</ele>
        <time>2017-11-05T05:05:27Z</time>
      </trkpt>
    </trkseg>
    <trkseg>
      <trkpt lat="34.29681" lon="-117.366872">
        <ele>1292.796875</ele>
        <time>2017-11-05T05:08:03Z</time>
      </trkpt>
      <trkpt lat="34.296738" lon="-117.366433">
        <ele>1298.000000</ele>
        <time>2017-11-05T05:08:43Z</time>
      </trkpt>
      <trkpt lat="34.296735" lon="-117.366421">
        <ele>1300.699219</ele>
        <time>2017-11-05T05:08:52Z</time>
      </trkpt>
      <trkpt lat="34.296718" lon="-117.36632">
        <ele>1301.097656</ele>
        <time>2017-11-05T05:08:53Z</time>
      </trkpt>
      <trkpt lat="34.296717" lon="-117.366303">
        <ele>1302.898438</ele>
        <time>2017-11-05T05:08:59Z</time>
      </trkpt>
      <trkpt lat="34.296702" lon="-117.366155">
        <ele>1304.097656</ele>
        <time>2017-11-05T05:09:03Z</time>
      </trkpt>
      <trkpt lat="34.296702" lon="-117.366142">
        <ele>1303.000000</ele>
        <time>2017-11-05T05:09:20Z</time>
      </trkpt>
      <trkpt lat="34.296703" lon="-117.366045">
        <ele>1303.796875</ele>
        <time>2017-11-05T05:09:30Z</time>
      </trkpt>
      <trkpt lat="34.296714" lon="-117.366032">
        <ele>1302.699219</ele>
        <time>2017-11-05T05:09:48Z</time>
      </trkpt>
      <trkpt lat="34.296721" lon="-117.365938">
        <ele>1302.199219</ele>
        <time>2017-11-05T05:09:51Z</time>
      </trkpt>
      <trkpt lat="34.296724" lon="-117.36592">
        <ele>1300.097656</ele>
        <time>2017-11-05T05:10:07Z</time>
      </trkpt>
      <trkpt lat="34.296724" lon="-117.365804">
        <ele>1299.500000</ele>
        <time>2017-11-05T05:10:11Z</time>
      </trkpt>
      <trkpt lat="34.296723" lon="-117.365797">
        <ele>1296.796875</ele>
        <time>2017-11-05T05:10:22Z</time>
      </trkpt>
      <trkpt lat="34.296717" lon="-117.365621">
        <ele>1294.398438</ele>
        <time>2017-11-05T05:10:30Z</time>
      </trkpt>
      <trkpt lat="34.296719" lon="-117.365613">
        <ele>1291.500000</ele>
        <time>2017-11-05T05:10:41Z</time>
      </trkpt>
      <trkpt lat="34.296721" lon="-117.365509">
        <ele>1291.199219</ele>
        <time>2017-11-05T05:10:42Z</time>
      </trkpt>
      <trkpt lat="34.296733" lon="-117.365309">
        <ele>1287.296875</ele>
        <time>2017-11-05T05:10:56Z</time>
      </trkpt>
      <trkpt lat="34.296736" lon="-117.365294">
        <ele>1285.199219</ele>
        <time>2017-11-05T05:11:02Z</time>
      </trkpt>
      <trkpt lat="34.296778" lon="-117.365157">
        <ele>1283.699219</ele>
        <time>2017-11-05T05:11:06Z</time>
      </trkpt>
      <trkpt lat="34.296814" lon="-117.36505">
        <ele>1281.796875</ele>
        <time>2017-11-05T05:11:12Z</time>
      </trkpt>
      <trkpt lat="34.296817" lon="-117.365032">
        <ele>1280.000000</ele>
        <time>2017-11-05T05:11:17Z</time>
      </trkpt>
      <trkpt lat="34.296842" lon="-117.364909">
        <ele>1279.597656</ele>
        <time>2017-11-05T05:11:19Z</time>
      </trkpt>
      <trkpt lat="34.296849" lon="-117.364889">
        <ele>1278.097656</ele>
        <time>2017-11-05T05:11:24Z</time>
      </trkpt>
      <trkpt lat="34.296863" lon="-117.364795">
        <ele>1277.597656</ele>
        <time>2017-11-05T05:11:25Z</time>
      </trkpt>
      <trkpt lat="34.296863" lon="-117.364776">
        <ele>1275.699219</ele>
        <time>2017-11-05T05:11:30Z</time>
      </trkpt>
      <trkpt lat="34.296857" lon="-117.364678">
        <ele>1275.699219</ele>
        <time>2017-11-05T05:11:31Z</time>
      </trkpt>
      <trkpt lat="34.296852" lon="-117.36466">
        <ele>1274.597656</ele>
        <time>2017-11-05T05:11:36Z</time>
      </trkpt>
      <trkpt lat="34.296784" lon="-117.364462">
        <ele>1272.296875</ele>
        <time>2017-11-05T05:11:45Z</time>
      </trkpt>
      <trkpt lat="34.296781" lon="-117.364449">
        <ele>1270.898438</ele>
        <time>2017-11-05T05:12:07Z</time>
      </trkpt>
      <trkpt lat="34.296776" lon="-117.364352">
        <ele>1270.898438</ele>
        <time>2017-11-05T05:12:11Z</time>
      </trkpt>
      <trkpt lat="34.296778" lon="-117.36434">
        <ele>1269.597656</ele>
        <time>2017-11-05T05:12:25Z</time>
      </trkpt>
      <trkpt lat="34.296806" lon="-117.364246">
        <ele>1269.296875</ele>
        <time>2017-11-05T05:12:27Z</time>
      </trkpt>
      <trkpt lat="34.296813" lon="-117.364232">
        <ele>1268.097656</ele>
        <time>2017-11-05T05:12:43Z</time>
      </trkpt>
      <trkpt lat="34.296849" lon="-117.364138">
        <ele>1268.000000</ele>
        <time>2017-11-05T05:12:44Z</time>
      </trkpt>
      <trkpt lat="34.296852" lon="-117.364127">
        <ele>1266.199219</ele>
        <time>2017-11-05T05:12:50Z</time>
      </trkpt>
      <trkpt lat="34.296876" lon="-117.364019">
        <ele>1266.097656</ele>
        <time>2017-11-05T05:12:51Z</time>
      </trkpt>
      <trkpt lat="34.296885" lon="-117.363994">
        <ele>1265.500000</ele>
        <time>2017-11-05T05:12:54Z</time>
      </trkpt>
      <trkpt lat="34.296912" lon="-117.363918">
        <ele>1265.296875</ele>
        <time>2017-11-05T05:12:55Z</time>
      </trkpt>
      <trkpt lat="34.296919" lon="-117.363887">
        <ele>1264.796875</ele>
        <time>2017-11-05T05:12:58Z</time>
      </trkpt>
      <trkpt lat="34.29693" lon="-117.363788">
        <ele>1264.597656</ele>
        <time>2017-11-05T05:12:59Z</time>
      </trkpt>
      <trkpt lat="34.296929" lon="-117.363755">
        <ele>1263.398438</ele>
        <time>2017-11-05T05:13:02Z</time>
      </trkpt>
      <trkpt lat="34.29692" lon="-117.363645">
        <ele>1263.097656</ele>
        <time>2017-11-05T05:13:03Z</time>
      </trkpt>
      <trkpt lat="34.296904" lon="-117.363512">
        <ele>1262.296875</ele>
        <time>2017-11-05T05:13:07Z</time>
      </trkpt>
      <trkpt lat="34.2969" lon="-117.363485">
        <ele>1261.500000</ele>
        <time>2017-11-05T05:13:11Z</time>
      </trkpt>
      <trkpt lat="34.296884" lon="-117.363366">
        <ele>1261.097656</ele>
        <time>2017-11-05T05:13:13Z</time>
      </trkpt>
      <trkpt lat="34.296883" lon="-117.363344">
        <ele>1260.597656</ele>
        <time>2017-11-05T05:13:18Z</time>
      </trkpt>
      <trkpt lat="34.296896" lon="-117.363251">
        <ele>1260.597656</ele>
        <time>2017-11-05T05:13:19Z</time>
      </trkpt>
      <trkpt lat="34.2969" lon="-117.363236">
        <ele>1260.199219</ele>
        <time>2017-11-05T05:13:25Z</time>
      </trkpt>
      <trkpt lat="34.296941" lon="-117.363147">
        <ele>1260.000000</ele>
        <time>2017-11-05T05:13:26Z</time>
      </trkpt>
      <trkpt lat="34.296945" lon="-117.363139">
        <ele>1261.796875</ele>
        <time>2017-11-05T05:14:14Z</time>
      </trkpt>
      <trkpt lat="34.297003" lon="-117.363054">
        <ele>1262.000000</ele>
        <time>2017-11-05T05:14:15Z</time>
      </trkpt>
      <trkpt lat="34.297009" lon="-117.363039">
        <ele>1262.296875</ele>
        <time>2017-11-05T05:14:22Z</time>
      </trkpt>
      <trkpt lat="34.297026" lon="-117.362937">
        <ele>1262.296875</ele>
        <time>2017-11-05T05:14:23Z</time>
      </trkpt>
      <trkpt lat="34.297024" lon="-117.362921">
        <ele>1262.597656</ele>
        <time>2017-11-05T05:14:30Z</time>
      </trkpt>
      <trkpt lat="34.296992" lon="-117.362811">
        <ele>1262.699219</ele>
        <time>2017-11-05T05:14:31Z</time>
      </trkpt>
      <trkpt lat="34.296986" lon="-117.362798">
        <ele>1264.199219</ele>
        <time>2017-11-05T05:14:37Z</time>
      </trkpt>
      <trkpt lat="34.296942" lon="-117.362663">
        <ele>1264.796875</ele>
        <time>2017-11-05T05:14:40Z</time>
      </trkpt>
      <trkpt lat="34.296936" lon="-117.362643">
        <ele>1265.796875</ele>
        <time>2017-11-05T05:14:45Z</time>
      </trkpt>
      <trkpt lat="34.296909" lon="-117.362529">
        <ele>1266.296875</ele>
        <time>2017-11-05T05:14:47Z</time>
      </trkpt>
      <trkpt lat="34.296853" lon="-117.362213">
        <ele>1271.699219</ele>
        <time>2017-11-05T05:15:06Z</time>
      </trkpt>
      <trkpt lat="34.296853" lon="-117.3622">
        <ele>1273.898438</ele>
        <time>2017-11-05T05:15:14Z</time>
      </trkpt>
      <trkpt lat="34.296834" lon="-117.362099">
        <ele>1274.097656</ele>
        <time>2017-11-05T05:15:15Z</time>
      </trkpt>
      <trkpt lat="34.296803" lon="-117.361974">
        <ele>1276.398438</ele>
        <time>2017-11-05T05:15:23Z</time>
      </trkpt>
      <trkpt lat="34.296798" lon="-117.361961">
        <ele>1279.199219</ele>
        <time>2017-11-05T05:15:30Z</time>
      </trkpt>
      <trkpt lat="34.29677" lon="-117.361865">
        <ele>1279.500000</ele>
        <time>2017-11-05T05:15:31Z</time>
      </trkpt>
      <trkpt lat="34.296768" lon="-117.361851">
        <ele>1281.699219</ele>
        <time>2017-11-05T05:15:37Z</time>
      </trkpt>
      <trkpt lat="34.296735" lon="-117.361631">
        <ele>1283.500000</ele>
        <time>2017-11-05T05:15:44Z</time>
      </trkpt>
      <trkpt lat="34.296727" lon="-117.3615">
        <ele>1284.500000</ele>
        <time>2017-11-05T05:15:49Z</time>
      </trkpt>
      <trkpt lat="34.296727" lon="-117.361476">
        <ele>1285.097656</ele>
        <time>2017-11-05T05:15:53Z</time>
      </trkpt>
      <trkpt lat="34.296733" lon="-117.361371">
        <ele>1285.500000</ele>
        <time>2017-11-05T05:15:54Z</time>
      </trkpt>
      <trkpt lat="34.296737" lon="-117.361345">
        <ele>1286.699219</ele>
        <time>2017-11-05T05:15:58Z</time>
      </trkpt>
      <trkpt lat="34.296755" lon="-117.361244">
        <ele>1287.000000</ele>
        <time>2017-11-05T05:15:59Z</time>
      </trkpt>
      <trkpt lat="34.296762" lon="-117.361219">
        <ele>1288.398438</ele>
        <time>2017-11-05T05:16:02Z</time>
      </trkpt>
      <trkpt lat="34.296797" lon="-117.361145">
        <ele>1289.000000</ele>
        <time>2017-11-05T05:16:03Z</time>
      </trkpt>
      <trkpt lat="34.296812" lon="-117.361121">
        <ele>1290.699219</ele>
        <time>2017-11-05T05:16:06Z</time>
      </trkpt>
      <trkpt lat="34.296845" lon="-117.361043">
        <ele>1291.097656</ele>
        <time>2017-11-05T05:16:07Z</time>
      </trkpt>
      <trkpt lat="34.296853" lon="-117.361016">
        <ele>1292.500000</ele>
        <time>2017-11-05T05:16:11Z</time>
      </trkpt>
      <trkpt lat="34.296875" lon="-117.360929">
        <ele>1292.699219</ele>
        <time>2017-11-05T05:16:13Z</time>
      </trkpt>
      <trkpt lat="34.296885" lon="-117.360908">
        <ele>1289.500000</ele>
        <time>2017-11-05T05:18:18Z</time>
      </trkpt>
      <trkpt lat="34.296885" lon="-117.360908">
        <ele>1289.500000</ele>
        <time>2017-11-05T05:18:18Z</time>
      </trkpt>
    </trkseg>
    <trkseg>
      <trkpt lat="34.296896" lon="-117.3609">
        <ele>1291.597656</ele>
        <time>2017-11-05T05:20:04Z</time>
      </trkpt>
      <trkpt lat="34.297099" lon="-117.36074">
        <ele>1287.000000</ele>
        <time>2017-11-05T05:20:20Z</time>
      </trkpt>
      <trkpt lat="34.297226" lon="-117.360672">
        <ele>1285.699219</ele>
        <time>2017-11-05T05:20:25Z</time>
      </trkpt>
      <trkpt lat="34.297253" lon="-117.360659">
        <ele>1285.000000</ele>
        <time>2017-11-05T05:20:28Z</time>
      </trkpt>
      <trkpt lat="34.297331" lon="-117.360635">
        <ele>1284.898438</ele>
        <time>2017-11-05T05:20:29Z</time>
      </trkpt>
      <trkpt lat="34.297359" lon="-117.360627">
        <ele>1285.398438</ele>
        <time>2017-11-05T05:20:32Z</time>
      </trkpt>
      <trkpt lat="34.297427" lon="-117.360583">
        <ele>1285.796875</ele>
        <time>2017-11-05T05:20:33Z</time>
      </trkpt>
      <trkpt lat="34.297443" lon="-117.360563">
        <ele>1285.597656</ele>
        <time>2017-11-05T05:20:37Z</time>
      </trkpt>
      <trkpt lat="34.297492" lon="-117.360468">
        <ele>1285.398438</ele>
        <time>2017-11-05T05:20:38Z</time>
      </trkpt>
      <trkpt lat="34.297595" lon="-117.360266">
        <ele>1285.097656</ele>
        <time>2017-11-05T05:20:44Z</time>
      </trkpt>
      <trkpt lat="34.297657" lon="-117.360187">
        <ele>1285.597656</ele>
        <time>2017-11-05T05:20:48Z</time>
      </trkpt>
      <trkpt lat="34.297668" lon="-117.360166">
        <ele>1285.097656</ele>
        <time>2017-11-05T05:20:52Z</time>
      </trkpt>
      <trkpt lat="34.297698" lon="-117.360084">
        <ele>1284.898438</ele>
        <time>2017-11-05T05:20:53Z</time>
      </trkpt>
      <trkpt lat="34.297705" lon="-117.360063">
        <ele>1283.597656</ele>
        <time>2017-11-05T05:20:57Z</time>
      </trkpt>
      <trkpt lat="34.297718" lon="-117.359973">
        <ele>1283.000000</ele>
        <time>2017-11-05T05:20:58Z</time>
      </trkpt>
      <trkpt lat="34.297718" lon="-117.359947">
        <ele>1282.796875</ele>
        <time>2017-11-05T05:21:01Z</time>
      </trkpt>
      <trkpt lat="34.297721" lon="-117.359853">
        <ele>1282.000000</ele>
        <time>2017-11-05T05:21:02Z</time>
      </trkpt>
      <trkpt lat="34.297719" lon="-117.359815">
        <ele>1280.898438</ele>
        <time>2017-11-05T05:21:04Z</time>
      </trkpt>
      <trkpt lat="34.297703" lon="-117.359606">
        <ele>1279.398438</ele>
        <time>2017-11-05T05:21:08Z</time>
      </trkpt>
      <trkpt lat="34.297621" lon="-117.359086">
        <ele>1276.796875</ele>
        <time>2017-11-05T05:21:20Z</time>
      </trkpt>
      <trkpt lat="34.297621" lon="-117.359042">
        <ele>1276.398438</ele>
        <time>2017-11-05T05:21:22Z</time>
      </trkpt>
      <trkpt lat="34.297635" lon="-117.358952">
        <ele>1276.296875</ele>
        <time>2017-11-05T05:21:23Z</time>
      </trkpt>
      <trkpt lat="34.297648" lon="-117.358908">
        <ele>1275.898438</ele>
        <time>2017-11-05T05:21:25Z</time>
      </trkpt>
      <trkpt lat="34.297678" lon="-117.358827">
        <ele>1275.898438</ele>
        <time>2017-11-05T05:21:26Z</time>
      </trkpt>
      <trkpt lat="34.29781" lon="-117.358482">
        <ele>1275.699219</ele>
        <time>2017-11-05T05:21:38Z</time>
      </trkpt>
      <trkpt lat="34.297836" lon="-117.358373">
        <ele>1275.398438</ele>
        <time>2017-11-05T05:21:43Z</time>
      </trkpt>
      <trkpt lat="34.29786" lon="-117.358216">
        <ele>1274.898438</ele>
        <time>2017-11-05T05:21:50Z</time>
      </trkpt>
      <trkpt lat="34.297862" lon="-117.358195">
        <ele>1275.398438</ele>
        <time>2017-11-05T05:22:45Z</time>
      </trkpt>
      <trkpt lat="34.297888" lon="-117.35811">
        <ele>1275.199219</ele>
        <time>2017-11-05T05:22:48Z</time>
      </trkpt>
      <trkpt lat="34.297891" lon="-117.35809">
        <ele>1273.796875</ele>
        <time>2017-11-05T05:23:35Z</time>
      </trkpt>
      <trkpt lat="34.29792" lon="-117.358001">
        <ele>1273.898438</ele>
        <time>2017-11-05T05:23:37Z</time>
      </trkpt>
      <trkpt lat="34.297926" lon="-117.357989">
        <ele>1275.296875</ele>
        <time>2017-11-05T05:23:57Z</time>
      </trkpt>
      <trkpt lat="34.29803" lon="-117.357821">
        <ele>1278.097656</ele>
        <time>2017-11-05T05:24:09Z</time>
      </trkpt>
      <trkpt lat="34.298038" lon="-117.357817">
        <ele>1277.796875</ele>
        <time>2017-11-05T05:24:18Z</time>
      </trkpt>
      <trkpt lat="34.298061" lon="-117.357718">
        <ele>1278.097656</ele>
        <time>2017-11-05T05:24:19Z</time>
      </trkpt>
      <trkpt lat="34.298063" lon="-117.35771">
        <ele>1280.500000</ele>
        <time>2017-11-05T05:24:37Z</time>
      </trkpt>
      <trkpt lat="34.298032" lon="-117.357609">
        <ele>1280.500000</ele>
        <time>2017-11-05T05:24:38Z</time>
      </trkpt>
      <trkpt lat="34.29803" lon="-117.357598">
        <ele>1280.500000</ele>
        <time>2017-11-05T05:24:49Z</time>
      </trkpt>
      <trkpt lat="34.298008" lon="-117.3575">
        <ele>1281.199219</ele>
        <time>2017-11-05T05:24:51Z</time>
      </trkpt>
      <trkpt lat="34.298003" lon="-117.357488">
        <ele>1284.097656</ele>
        <time>2017-11-05T05:25:00Z</time>
      </trkpt>
      <trkpt lat="34.297984" lon="-117.357392">
        <ele>1284.097656</ele>
        <time>2017-11-05T05:25:01Z</time>
      </trkpt>
      <trkpt lat="34.297947" lon="-117.357216">
        <ele>1284.000000</ele>
        <time>2017-11-05T05:25:14Z</time>
      </trkpt>
      <trkpt lat="34.297943" lon="-117.357202">
        <ele>1282.898438</ele>
        <time>2017-11-05T05:25:20Z</time>
      </trkpt>
      <trkpt lat="34.297908" lon="-117.357117">
        <ele>1282.500000</ele>
        <time>2017-11-05T05:25:21Z</time>
      </trkpt>
      <trkpt lat="34.297898" lon="-117.357103">
        <ele>1281.097656</ele>
        <time>2017-11-05T05:25:27Z</time>
      </trkpt>
      <trkpt lat="34.297812" lon="-117.356961">
        <ele>1280.199219</ele>
        <time>2017-11-05T05:25:36Z</time>
      </trkpt>
      <trkpt lat="34.297806" lon="-117.356957">
        <ele>1278.398438</ele>
        <time>2017-11-05T05:25:48Z</time>
      </trkpt>
      <trkpt lat="34.297759" lon="-117.356869">
        <ele>1278.296875</ele>
        <time>2017-11-05T05:25:49Z</time>
      </trkpt>
      <trkpt lat="34.297711" lon="-117.356763">
        <ele>1276.898438</ele>
        <time>2017-11-05T05:25:58Z</time>
      </trkpt>
      <trkpt lat="34.297705" lon="-117.356741">
        <ele>1276.398438</ele>
        <time>2017-11-05T05:26:02Z</time>
      </trkpt>
      <trkpt lat="34.297646" lon="-117.356499">
        <ele>1275.898438</ele>
        <time>2017-11-05T05:26:09Z</time>
      </trkpt>
      <trkpt lat="34.297604" lon="-117.356402">
        <ele>1276.296875</ele>
        <time>2017-11-05T05:26:13Z</time>
      </trkpt>
      <trkpt lat="34.297535" lon="-117.356259">
        <ele>1277.398438</ele>
        <time>2017-11-05T05:26:20Z</time>
      </trkpt>
      <trkpt lat="34.29753" lon="-117.356239">
        <ele>1277.597656</ele>
        <time>2017-11-05T05:26:30Z</time>
      </trkpt>
      <trkpt lat="34.29751" lon="-117.356154">
        <ele>1278.398438</ele>
        <time>2017-11-05T05:26:38Z</time>
      </trkpt>
      <trkpt lat="34.29745" lon="-117.355899">
        <ele>1278.097656</ele>
        <time>2017-11-05T05:26:49Z</time>
      </trkpt>
      <trkpt lat="34.297439" lon="-117.355878">
        <ele>1277.398438</ele>
        <time>2017-11-05T05:26:54Z</time>
      </trkpt>
      <trkpt lat="34.297388" lon="-117.355813">
        <ele>1276.097656</ele>
        <time>2017-11-05T05:27:16Z</time>
      </trkpt>
      <trkpt lat="34.29736" lon="-117.355803">
        <ele>1275.898438</ele>
        <time>2017-11-05T05:27:20Z</time>
      </trkpt>
      <trkpt lat="34.297299" lon="-117.355761">
        <ele>1275.597656</ele>
        <time>2017-11-05T05:27:22Z</time>
      </trkpt>
      <trkpt lat="34.297263" lon="-117.355737">
        <ele>1275.199219</ele>
        <time>2017-11-05T05:27:24Z</time>
      </trkpt>
      <trkpt lat="34.297218" lon="-117.355693">
        <ele>1275.000000</ele>
        <time>2017-11-05T05:27:25Z</time>
      </trkpt>
      <trkpt lat="34.297193" lon="-117.355666">
        <ele>1274.796875</ele>
        <time>2017-11-05T05:27:27Z</time>
      </trkpt>
      <trkpt lat="34.297152" lon="-117.355603">
        <ele>1274.500000</ele>
        <time>2017-11-05T05:27:28Z</time>
      </trkpt>
      <trkpt lat="34.297137" lon="-117.355568">
        <ele>1273.898438</ele>
        <time>2017-11-05T05:27:30Z</time>
      </trkpt>
      <trkpt lat="34.297114" lon="-117.355486">
        <ele>1273.699219</ele>
        <time>2017-11-05T05:27:31Z</time>
      </trkpt>
      <trkpt lat="34.297063" lon="-117.355306">
        <ele>1273.296875</ele>
        <time>2017-11-05T05:27:35Z</time>
      </trkpt>
      <trkpt lat="34.296968" lon="-117.355067">
        <ele>1274.097656</ele>
        <time>2017-11-05T05:27:42Z</time>
      </trkpt>
      <trkpt lat="34.296955" lon="-117.355028">
        <ele>1274.199219</ele>
        <time>2017-11-05T05:27:44Z</time>
      </trkpt>
      <trkpt lat="34.29694" lon="-117.354935">
        <ele>1274.296875</ele>
        <time>2017-11-05T05:27:45Z</time>
      </trkpt>
      <trkpt lat="34.296937" lon="-117.354886">
        <ele>1274.500000</ele>
        <time>2017-11-05T05:27:47Z</time>
      </trkpt>
      <trkpt lat="34.296926" lon="-117.354682">
        <ele>1274.796875</ele>
        <time>2017-11-05T05:27:51Z</time>
      </trkpt>
      <trkpt lat="34.296909" lon="-117.354555">
        <ele>1274.796875</ele>
        <time>2017-11-05T05:28:00Z</time>
      </trkpt>
      <trkpt lat="34.296909" lon="-117.354555">
        <ele>1273.597656</ele>
        <time>2017-11-05T05:28:27Z</time>
      </trkpt>
      <trkpt lat="34.296881" lon="-117.354437">
        <ele>1273.699219</ele>
        <time>2017-11-05T05:28:28Z</time>
      </trkpt>
      <trkpt lat="34.296842" lon="-117.35428">
        <ele>1275.500000</ele>
        <time>2017-11-05T05:28:37Z</time>
      </trkpt>
      <trkpt lat="34.296836" lon="-117.354261">
        <ele>1277.199219</ele>
        <time>2017-11-05T05:28:43Z</time>
      </trkpt>
      <trkpt lat="34.296808" lon="-117.354166">
        <ele>1277.398438</ele>
        <time>2017-11-05T05:28:44Z</time>
      </trkpt>
      <trkpt lat="34.296802" lon="-117.354145">
        <ele>1279.398438</ele>
        <time>2017-11-05T05:28:49Z</time>
      </trkpt>
      <trkpt lat="34.296797" lon="-117.354056">
        <ele>1280.296875</ele>
        <time>2017-11-05T05:28:51Z</time>
      </trkpt>
      <trkpt lat="34.296795" lon="-117.353783">
        <ele>1283.097656</ele>
        <time>2017-11-05T05:29:05Z</time>
      </trkpt>
      <trkpt lat="34.296798" lon="-117.353762">
        <ele>1282.597656</ele>
        <time>2017-11-05T05:29:10Z</time>
      </trkpt>
      <trkpt lat="34.296824" lon="-117.353675">
        <ele>1282.898438</ele>
        <time>2017-11-05T05:29:11Z</time>
      </trkpt>
      <trkpt lat="34.296832" lon="-117.353661">
        <ele>1283.097656</ele>
        <time>2017-11-05T05:29:19Z</time>
      </trkpt>
      <trkpt lat="34.296874" lon="-117.35358">
        <ele>1282.796875</ele>
        <time>2017-11-05T05:29:21Z</time>
      </trkpt>
      <trkpt lat="34.29688" lon="-117.353562">
        <ele>1282.199219</ele>
        <time>2017-11-05T05:29:31Z</time>
      </trkpt>
      <trkpt lat="34.296928" lon="-117.353484">
        <ele>1282.000000</ele>
        <time>2017-11-05T05:29:33Z</time>
      </trkpt>
      <trkpt lat="34.296942" lon="-117.35347">
        <ele>1280.500000</ele>
        <time>2017-11-05T05:29:40Z</time>
      </trkpt>
      <trkpt lat="34.297002" lon="-117.353408">
        <ele>1280.699219</ele>
        <time>2017-11-05T05:29:41Z</time>
      </trkpt>
      <trkpt lat="34.297012" lon="-117.353388">
        <ele>1281.199219</ele>
        <time>2017-11-05T05:29:47Z</time>
      </trkpt>
      <trkpt lat="34.297023" lon="-117.353289">
        <ele>1281.097656</ele>
        <time>2017-11-05T05:29:48Z</time>
      </trkpt>
      <trkpt lat="34.296993" lon="-117.353208">
        <ele>1279.796875</ele>
        <time>2017-11-05T05:31:57Z</time>
      </trkpt>
      <trkpt lat="34.296993" lon="-117.353208">
        <ele>1279.796875</ele>
        <time>2017-11-05T05:31:57Z</time>
      </trkpt>
    </trkseg>
    <trkseg>
      <trkpt lat="34.296992" lon="-117.353205">
        <ele>1279.597656</ele>
        <time>2017-11-05T05:32:16Z</time>
      </trkpt>
      <trkpt lat="34.29693" lon="-117.35302">
        <ele>1278.796875</ele>
        <time>2017-11-05T05:32:56Z</time>
      </trkpt>
      <trkpt lat="34.296919" lon="-117.352997">
        <ele>1278.199219</ele>
        <time>2017-11-05T05:33:00Z</time>
      </trkpt>
      <trkpt lat="34.296895" lon="-117.352892">
        <ele>1277.898438</ele>
        <time>2017-11-05T05:33:01Z</time>
      </trkpt>
      <trkpt lat="34.296889" lon="-117.352861">
        <ele>1277.398438</ele>
        <time>2017-11-05T05:33:04Z</time>
      </trkpt>
      <trkpt lat="34.296863" lon="-117.352762">
        <ele>1277.296875</ele>
        <time>2017-11-05T05:33:05Z</time>
      </trkpt>
      <trkpt lat="34.296853" lon="-117.352733">
        <ele>1277.199219</ele>
        <time>2017-11-05T05:33:09Z</time>
      </trkpt>
      <trkpt lat="34.296824" lon="-117.352657">
        <ele>1277.199219</ele>
        <time>2017-11-05T05:33:11Z</time>
      </trkpt>
      <trkpt lat="34.296765" lon="-117.3525">
        <ele>1276.796875</ele>
        <time>2017-11-05T05:33:18Z</time>
      </trkpt>
      <trkpt lat="34.29674" lon="-117.352392">
        <ele>1275.796875</ele>
        <time>2017-11-05T05:33:23Z</time>
      </trkpt>
      <trkpt lat="34.296715" lon="-117.352239">
        <ele>1273.097656</ele>
        <time>2017-11-05T05:33:31Z</time>
      </trkpt>
      <trkpt lat="34.296707" lon="-117.352216">
        <ele>1272.398438</ele>
        <time>2017-11-05T05:33:35Z</time>
      </trkpt>
      <trkpt lat="34.296685" lon="-117.352124">
        <ele>1272.296875</ele>
        <time>2017-11-05T05:33:36Z</time>
      </trkpt>
      <trkpt lat="34.296682" lon="-117.352101">
        <ele>1271.597656</ele>
        <time>2017-11-05T05:33:40Z</time>
      </trkpt>
      <trkpt lat="34.29667" lon="-117.351985">
        <ele>1271.500000</ele>
        <time>2017-11-05T05:33:42Z</time>
      </trkpt>
      <trkpt lat="34.296677" lon="-117.351767">
        <ele>1272.000000</ele>
        <time>2017-11-05T05:33:56Z</time>
      </trkpt>
      <trkpt lat="34.296677" lon="-117.351767">
        <ele>1270.500000</ele>
        <time>2017-11-05T05:34:52Z</time>
      </trkpt>
      <trkpt lat="34.296675" lon="-117.351652">
        <ele>1270.500000</ele>
        <time>2017-11-05T05:34:53Z</time>
      </trkpt>
      <trkpt lat="34.296674" lon="-117.351639">
        <ele>1271.199219</ele>
        <time>2017-11-05T05:34:59Z</time>
      </trkpt>
      <trkpt lat="34.296647" lon="-117.351513">
        <ele>1271.699219</ele>
        <time>2017-11-05T05:35:01Z</time>
      </trkpt>
      <trkpt lat="34.296642" lon="-117.351496">
        <ele>1272.597656</ele>
        <time>2017-11-05T05:35:07Z</time>
      </trkpt>
      <trkpt lat="34.29662" lon="-117.351381">
        <ele>1272.796875</ele>
        <time>2017-11-05T05:35:09Z</time>
      </trkpt>
      <trkpt lat="34.296618" lon="-117.351365">
        <ele>1273.500000</ele>
        <time>2017-11-05T05:35:15Z</time>
      </trkpt>
      <trkpt lat="34.296594" lon="-117.351037">
        <ele>1279.898438</ele>
        <time>2017-11-05T05:35:28Z</time>
      </trkpt>
      <trkpt lat="34.296499" lon="-117.35064">
        <ele>1276.699219</ele>
        <time>2017-11-05T05:35:51Z</time>
      </trkpt>
      <trkpt lat="34.296494" lon="-117.350617">
        <ele>1276.199219</ele>
        <time>2017-11-05T05:35:56Z</time>
      </trkpt>
      <trkpt lat="34.296461" lon="-117.350485">
        <ele>1275.500000</ele>
        <time>2017-11-05T05:36:03Z</time>
      </trkpt>
      <trkpt lat="34.29646" lon="-117.350484">
        <ele>1276.398438</ele>
        <time>2017-11-05T05:36:29Z</time>
      </trkpt>
      <trkpt lat="34.296431" lon="-117.350378">
        <ele>1276.500000</ele>
        <time>2017-11-05T05:36:30Z</time>
      </trkpt>
      <trkpt lat="34.296407" lon="-117.350272">
        <ele>1277.000000</ele>
        <time>2017-11-05T05:36:38Z</time>
      </trkpt>
      <trkpt lat="34.296407" lon="-117.350265">
        <ele>1278.500000</ele>
        <time>2017-11-05T05:36:47Z</time>
      </trkpt>
      <trkpt lat="34.296388" lon="-117.350163">
        <ele>1279.000000</ele>
        <time>2017-11-05T05:36:48Z</time>
      </trkpt>
      <trkpt lat="34.296382" lon="-117.350149">
        <ele>1280.597656</ele>
        <time>2017-11-05T05:36:54Z</time>
      </trkpt>
      <trkpt lat="34.296343" lon="-117.350056">
        <ele>1280.796875</ele>
        <time>2017-11-05T05:36:55Z</time>
      </trkpt>
      <trkpt lat="34.29634" lon="-117.350032">
        <ele>1281.000000</ele>
        <time>2017-11-05T05:37:00Z</time>
      </trkpt>
      <trkpt lat="34.296334" lon="-117.349942">
        <ele>1281.199219</ele>
        <time>2017-11-05T05:37:02Z</time>
      </trkpt>
      <trkpt lat="34.296336" lon="-117.349915">
        <ele>1281.796875</ele>
        <time>2017-11-05T05:37:09Z</time>
      </trkpt>
      <trkpt lat="34.296361" lon="-117.349824">
        <ele>1281.699219</ele>
        <time>2017-11-05T05:37:11Z</time>
      </trkpt>
      <trkpt lat="34.296372" lon="-117.349803">
        <ele>1282.000000</ele>
        <time>2017-11-05T05:37:23Z</time>
      </trkpt>
      <trkpt lat="34.296395" lon="-117.349714">
        <ele>1282.296875</ele>
        <time>2017-11-05T05:37:29Z</time>
      </trkpt>
      <trkpt lat="34.296396" lon="-117.349698">
        <ele>1283.097656</ele>
        <time>2017-11-05T05:37:44Z</time>
      </trkpt>
      <trkpt lat="34.29637" lon="-117.349609">
        <ele>1283.699219</ele>
        <time>2017-11-05T05:37:46Z</time>
      </trkpt>
      <trkpt lat="34.296364" lon="-117.349589">
        <ele>1285.296875</ele>
        <time>2017-11-05T05:37:52Z</time>
      </trkpt>
      <trkpt lat="34.296317" lon="-117.349514">
        <ele>1285.699219</ele>
        <time>2017-11-05T05:37:53Z</time>
      </trkpt>
      <trkpt lat="34.296309" lon="-117.349496">
        <ele>1287.097656</ele>
        <time>2017-11-05T05:37:57Z</time>
      </trkpt>
      <trkpt lat="34.296304" lon="-117.349396">
        <ele>1287.199219</ele>
        <time>2017-11-05T05:37:58Z</time>
      </trkpt>
      <trkpt lat="34.296303" lon="-117.349369">
        <ele>1288.199219</ele>
        <time>2017-11-05T05:38:03Z</time>
      </trkpt>
      <trkpt lat="34.296329" lon="-117.349291">
        <ele>1288.398438</ele>
        <time>2017-11-05T05:38:05Z</time>
      </trkpt>
      <trkpt lat="34.296345" lon="-117.349265">
        <ele>1289.000000</ele>
        <time>2017-11-05T05:38:12Z</time>
      </trkpt>
      <trkpt lat="34.296423" lon="-117.349118">
        <ele>1288.796875</ele>
        <time>2017-11-05T05:38:19Z</time>
      </trkpt>
      <trkpt lat="34.296424" lon="-117.349115">
        <ele>1289.796875</ele>
        <time>2017-11-05T05:38:53Z</time>
      </trkpt>
      <trkpt lat="34.296495" lon="-117.349025">
        <ele>1289.796875</ele>
        <time>2017-11-05T05:38:54Z</time>
      </trkpt>
      <trkpt lat="34.296506" lon="-117.349009">
        <ele>1290.296875</ele>
        <time>2017-11-05T05:38:59Z</time>
      </trkpt>
      <trkpt lat="34.296551" lon="-117.348938">
        <ele>1290.500000</ele>
        <time>2017-11-05T05:39:01Z</time>
      </trkpt>
      <trkpt lat="34.29657" lon="-117.348916">
        <ele>1291.097656</ele>
        <time>2017-11-05T05:39:08Z</time>
      </trkpt>
      <trkpt lat="34.296663" lon="-117.348783">
        <ele>1292.000000</ele>
        <time>2017-11-05T05:39:22Z</time>
      </trkpt>
      <trkpt lat="34.296669" lon="-117.348778">
        <ele>1288.597656</ele>
        <time>2017-11-05T05:39:38Z</time>
      </trkpt>
      <trkpt lat="34.296741" lon="-117.348692">
        <ele>1288.000000</ele>
        <time>2017-11-05T05:39:41Z</time>
      </trkpt>
      <trkpt lat="34.296745" lon="-117.348686">
        <ele>1286.398438</ele>
        <time>2017-11-05T05:39:56Z</time>
      </trkpt>
      <trkpt lat="34.296801" lon="-117.348589">
        <ele>1286.398438</ele>
        <time>2017-11-05T05:39:58Z</time>
      </trkpt>
      <trkpt lat="34.296805" lon="-117.348582">
        <ele>1286.296875</ele>
        <time>2017-11-05T05:40:17Z</time>
      </trkpt>
      <trkpt lat="34.296827" lon="-117.348484">
        <ele>1286.296875</ele>
        <time>2017-11-05T05:40:19Z</time>
      </trkpt>
      <trkpt lat="34.296829" lon="-117.348468">
        <ele>1285.898438</ele>
        <time>2017-11-05T05:40:29Z</time>
      </trkpt>
      <trkpt lat="34.296828" lon="-117.348375">
        <ele>1285.898438</ele>
        <time>2017-11-05T05:40:31Z</time>
      </trkpt>
      <trkpt lat="34.296828" lon="-117.348355">
        <ele>1284.699219</ele>
        <time>2017-11-05T05:40:47Z</time>
      </trkpt>
      <trkpt lat="34.296817" lon="-117.348267">
        <ele>1285.199219</ele>
        <time>2017-11-05T05:40:50Z</time>
      </trkpt>
      <trkpt lat="34.296818" lon="-117.34824">
        <ele>1283.699219</ele>
        <time>2017-11-05T05:41:07Z</time>
      </trkpt>
      <trkpt lat="34.296815" lon="-117.348157">
        <ele>1283.000000</ele>
        <time>2017-11-05T05:41:13Z</time>
      </trkpt>
      <trkpt lat="34.296806" lon="-117.348125">
        <ele>1277.898438</ele>
        <time>2017-11-05T05:41:23Z</time>
      </trkpt>
      <trkpt lat="34.296784" lon="-117.348044">
        <ele>1278.000000</ele>
        <time>2017-11-05T05:41:26Z</time>
      </trkpt>
      <trkpt lat="34.296772" lon="-117.34802">
        <ele>1278.000000</ele>
        <time>2017-11-05T05:41:35Z</time>
      </trkpt>
      <trkpt lat="34.29674" lon="-117.347945">
        <ele>1277.500000</ele>
        <time>2017-11-05T05:41:38Z</time>
      </trkpt>
      <trkpt lat="34.296737" lon="-117.347917">
        <ele>1275.699219</ele>
        <time>2017-11-05T05:41:48Z</time>
      </trkpt>
      <trkpt lat="34.296727" lon="-117.347835">
        <ele>1275.898438</ele>
        <time>2017-11-05T05:41:52Z</time>
      </trkpt>
      <trkpt lat="34.296725" lon="-117.347805">
        <ele>1273.796875</ele>
        <time>2017-11-05T05:42:03Z</time>
      </trkpt>
      <trkpt lat="34.29671" lon="-117.347692">
        <ele>1272.699219</ele>
        <time>2017-11-05T05:42:07Z</time>
      </trkpt>
      <trkpt lat="34.296707" lon="-117.347686">
        <ele>1271.597656</ele>
        <time>2017-11-05T05:42:22Z</time>
      </trkpt>
      <trkpt lat="34.296688" lon="-117.347578">
        <ele>1271.398438</ele>
        <time>2017-11-05T05:42:23Z</time>
      </trkpt>
      <trkpt lat="34.296688" lon="-117.347569">
        <ele>1272.296875</ele>
        <time>2017-11-05T05:42:35Z</time>
      </trkpt>
      <trkpt lat="34.296687" lon="-117.347464">
        <ele>1271.796875</ele>
        <time>2017-11-05T05:42:37Z</time>
      </trkpt>
      <trkpt lat="34.296682" lon="-117.347451">
        <ele>1267.296875</ele>
        <time>2017-11-05T05:42:51Z</time>
      </trkpt>
      <trkpt lat="34.29669" lon="-117.347351">
        <ele>1266.500000</ele>
        <time>2017-11-05T05:42:53Z</time>
      </trkpt>
      <trkpt lat="34.296694" lon="-117.347337">
        <ele>1263.796875</ele>
        <time>2017-11-05T05:43:10Z</time>
      </trkpt>
      <trkpt lat="34.296691" lon="-117.347239">
        <ele>1263.597656</ele>
        <time>2017-11-05T05:43:12Z</time>
      </trkpt>
      <trkpt lat="34.296689" lon="-117.347226">
        <ele>1262.000000</ele>
        <time>2017-11-05T05:43:24Z</time>
      </trkpt>
      <trkpt lat="34.296687" lon="-117.347125">
        <ele>1262.000000</ele>
        <time>2017-11-05T05:43:25Z</time>
      </trkpt>
      <trkpt lat="34.296693" lon="-117.347013">
        <ele>1261.796875</ele>
        <time>2017-11-05T05:43:38Z</time>
      </trkpt>
      <trkpt lat="34.296695" lon="-117.347008">
        <ele>1257.296875</ele>
        <time>2017-11-05T05:44:04Z</time>
      </trkpt>
      <trkpt lat="34.296694" lon="-117.346901">
        <ele>1256.898438</ele>
        <time>2017-11-05T05:44:05Z</time>
      </trkpt>
      <trkpt lat="34.296693" lon="-117.346896">
        <ele>1253.898438</ele>
        <time>2017-11-05T05:44:22Z</time>
      </trkpt>
      <trkpt lat="34.296694" lon="-117.346784">
        <ele>1253.500000</ele>
        <time>2017-11-05T05:44:23Z</time>
      </trkpt>
      <trkpt lat="34.29669" lon="-117.346778">
        <ele>1250.097656</ele>
        <time>2017-11-05T05:44:39Z</time>
      </trkpt>
      <trkpt lat="34.296673" lon="-117.346669">
        <ele>1250.398438</ele>
        <time>2017-11-05T05:44:41Z</time>
      </trkpt>
      <trkpt lat="34.29665" lon="-117.34656">
        <ele>1248.898438</ele>
        <time>2017-11-05T05:44:59Z</time>
      </trkpt>
      <trkpt lat="34.296651" lon="-117.346552">
        <ele>1247.898438</ele>
        <time>2017-11-05T05:45:10Z</time>
      </trkpt>
      <trkpt lat="34.296647" lon="-117.346361">
        <ele>1247.898438</ele>
        <time>2017-11-05T05:45:17Z</time>
      </trkpt>
      <trkpt lat="34.296654" lon="-117.34634">
        <ele>1247.000000</ele>
        <time>2017-11-05T05:45:39Z</time>
      </trkpt>
      <trkpt lat="34.296689" lon="-117.346263">
        <ele>1246.398438</ele>
        <time>2017-11-05T05:45:43Z</time>
      </trkpt>
      <trkpt lat="34.296702" lon="-117.346247">
        <ele>1245.699219</ele>
        <time>2017-11-05T05:45:50Z</time>
      </trkpt>
      <trkpt lat="34.296839" lon="-117.346093">
        <ele>1246.097656</ele>
        <time>2017-11-05T05:45:56Z</time>
      </trkpt>
      <trkpt lat="34.297073" lon="-117.345859">
        <ele>1244.796875</ele>
        <time>2017-11-05T05:46:09Z</time>
      </trkpt>
      <trkpt lat="34.297087" lon="-117.345838">
        <ele>1244.199219</ele>
        <time>2017-11-05T05:46:12Z</time>
      </trkpt>
      <trkpt lat="34.297123" lon="-117.345767">
        <ele>1243.398438</ele>
        <time>2017-11-05T05:46:14Z</time>
      </trkpt>
      <trkpt lat="34.297185" lon="-117.345621">
        <ele>1242.199219</ele>
        <time>2017-11-05T05:46:22Z</time>
      </trkpt>
      <trkpt lat="34.297191" lon="-117.345605">
        <ele>1240.398438</ele>
        <time>2017-11-05T05:46:30Z</time>
      </trkpt>
      <trkpt lat="34.297233" lon="-117.345515">
        <ele>1240.097656</ele>
        <time>2017-11-05T05:46:31Z</time>
      </trkpt>
      <trkpt lat="34.297238" lon="-117.345506">
        <ele>1234.000000</ele>
        <time>2017-11-05T05:46:46Z</time>
      </trkpt>
      <trkpt lat="34.297289" lon="-117.345427">
        <ele>1233.796875</ele>
        <time>2017-11-05T05:46:48Z</time>
      </trkpt>
      <trkpt lat="34.297297" lon="-117.345418">
        <ele>1231.000000</ele>
        <time>2017-11-05T05:47:11Z</time>
      </trkpt>
      <trkpt lat="34.297366" lon="-117.345371">
        <ele>1231.097656</ele>
        <time>2017-11-05T05:47:14Z</time>
      </trkpt>
      <trkpt lat="34.297375" lon="-117.345363">
        <ele>1230.699219</ele>
        <time>2017-11-05T05:47:23Z</time>
      </trkpt>
      <trkpt lat="34.297467" lon="-117.345342">
        <ele>1230.597656</ele>
        <time>2017-11-05T05:47:24Z</time>
      </trkpt>
      <trkpt lat="34.298257" lon="-117.345204">
        <ele>1228.097656</ele>
        <time>2017-11-05T05:47:56Z</time>
      </trkpt>
      <trkpt lat="34.298375" lon="-117.345189">
        <ele>1229.699219</ele>
        <time>2017-11-05T05:48:01Z</time>
      </trkpt>
      <trkpt lat="34.298394" lon="-117.345182">
        <ele>1229.796875</ele>
        <time>2017-11-05T05:48:05Z</time>
      </trkpt>
      <trkpt lat="34.298463" lon="-117.345149">
        <ele>1229.898438</ele>
        <time>2017-11-05T05:48:07Z</time>
      </trkpt>
      <trkpt lat="34.298488" lon="-117.345133">
        <ele>1228.898438</ele>
        <time>2017-11-05T05:48:14Z</time>
      </trkpt>
      <trkpt lat="34.298542" lon="-117.345078">
        <ele>1228.199219</ele>
        <time>2017-11-05T05:48:16Z</time>
      </trkpt>
      <trkpt lat="34.29856" lon="-117.345054">
        <ele>1226.597656</ele>
        <time>2017-11-05T05:48:20Z</time>
      </trkpt>
      <trkpt lat="34.298793" lon="-117.344701">
        <ele>1222.097656</ele>
        <time>2017-11-05T05:48:39Z</time>
      </trkpt>
      <trkpt lat="34.298806" lon="-117.344679">
        <ele>1221.296875</ele>
        <time>2017-11-05T05:48:42Z</time>
      </trkpt>
      <trkpt lat="34.298883" lon="-117.344543">
        <ele>1220.500000</ele>
        <time>2017-11-05T05:48:45Z</time>
      </trkpt>
      <trkpt lat="34.298994" lon="-117.344342">
        <ele>1221.597656</ele>
        <time>2017-11-05T05:48:53Z</time>
      </trkpt>
      <trkpt lat="34.299059" lon="-117.344213">
        <ele>1222.199219</ele>
        <time>2017-11-05T05:49:01Z</time>
      </trkpt>
      <trkpt lat="34.299067" lon="-117.344203">
        <ele>1221.000000</ele>
        <time>2017-11-05T05:49:08Z</time>
      </trkpt>
      <trkpt lat="34.299151" lon="-117.344168">
        <ele>1220.500000</ele>
        <time>2017-11-05T05:49:09Z</time>
      </trkpt>
      <trkpt lat="34.299163" lon="-117.344165">
        <ele>1216.398438</ele>
        <time>2017-11-05T05:49:16Z</time>
      </trkpt>
      <trkpt lat="34.299244" lon="-117.344168">
        <ele>1215.699219</ele>
        <time>2017-11-05T05:49:17Z</time>
      </trkpt>
      <trkpt lat="34.299255" lon="-117.34417">
        <ele>1213.097656</ele>
        <time>2017-11-05T05:49:27Z</time>
      </trkpt>
      <trkpt lat="34.299346" lon="-117.344193">
        <ele>1212.199219</ele>
        <time>2017-11-05T05:49:29Z</time>
      </trkpt>
      <trkpt lat="34.299354" lon="-117.344197">
        <ele>1212.000000</ele>
        <time>2017-11-05T05:49:36Z</time>
      </trkpt>
      <trkpt lat="34.299448" lon="-117.344228">
        <ele>1211.796875</ele>
        <time>2017-11-05T05:49:37Z</time>
      </trkpt>
      <trkpt lat="34.299464" lon="-117.344229">
        <ele>1210.398438</ele>
        <time>2017-11-05T05:49:42Z</time>
      </trkpt>
      <trkpt lat="34.299545" lon="-117.344223">
        <ele>1210.097656</ele>
        <time>2017-11-05T05:49:43Z</time>
      </trkpt>
      <trkpt lat="34.299652" lon="-117.344207">
        <ele>1209.199219</ele>
        <time>2017-11-05T05:49:49Z</time>
      </trkpt>
      <trkpt lat="34.29967" lon="-117.344198">
        <ele>1208.500000</ele>
        <time>2017-11-05T05:49:53Z</time>
      </trkpt>
      <trkpt lat="34.299769" lon="-117.344147">
        <ele>1208.000000</ele>
        <time>2017-11-05T05:49:56Z</time>
      </trkpt>
      <trkpt lat="34.299784" lon="-117.344136">
        <ele>1208.398438</ele>
        <time>2017-11-05T05:50:04Z</time>
      </trkpt>
      <trkpt lat="34.29984" lon="-117.344075">
        <ele>1208.597656</ele>
        <time>2017-11-05T05:50:07Z</time>
      </trkpt>
      <trkpt lat="34.299854" lon="-117.344054">
        <ele>1208.296875</ele>
        <time>2017-11-05T05:50:16Z</time>
      </trkpt>
      <trkpt lat="34.299883" lon="-117.343967">
        <ele>1208.500000</ele>
        <time>2017-11-05T05:50:18Z</time>
      </trkpt>
      <trkpt lat="34.29989" lon="-117.343943">
        <ele>1208.398438</ele>
        <time>2017-11-05T05:50:42Z</time>
      </trkpt>
      <trkpt lat="34.299927" lon="-117.343857">
        <ele>1207.000000</ele>
        <time>2017-11-05T05:52:27Z</time>
      </trkpt>
      <trkpt lat="34.299927" lon="-117.343857">
        <ele>1207.000000</ele>
        <time>2017-11-05T05:52:27Z</time>
      </trkpt>
    </trkseg>
    <trkseg>
      <trkpt lat="34.299924" lon="-117.343847">
        <ele>1208.097656</ele>
        <time>2017-11-05T05:56:12Z</time>
      </trkpt>
      <trkpt lat="34.300024" lon="-117.343774">
        <ele>1201.796875</ele>
        <time>2017-11-05T05:57:02Z</time>
      </trkpt>
      <trkpt lat="34.300023" lon="-117.343771">
        <ele>1198.296875</ele>
        <time>2017-11-05T05:57:23Z</time>
      </trkpt>
      <trkpt lat="34.300103" lon="-117.343708">
        <ele>1197.898438</ele>
        <time>2017-11-05T05:57:24Z</time>
      </trkpt>
      <trkpt lat="34.30011" lon="-117.3437">
        <ele>1196.296875</ele>
        <time>2017-11-05T05:57:32Z</time>
      </trkpt>
      <trkpt lat="34.300179" lon="-117.343609">
        <ele>1197.000000</ele>
        <time>2017-11-05T05:57:36Z</time>
      </trkpt>
      <trkpt lat="34.300179" lon="-117.343606">
        <ele>1196.296875</ele>
        <time>2017-11-05T05:57:52Z</time>
      </trkpt>
      <trkpt lat="34.300226" lon="-117.343511">
        <ele>1196.199219</ele>
        <time>2017-11-05T05:57:53Z</time>
      </trkpt>
      <trkpt lat="34.30023" lon="-117.343505">
        <ele>1192.296875</ele>
        <time>2017-11-05T05:58:33Z</time>
      </trkpt>
      <trkpt lat="34.300292" lon="-117.343432">
        <ele>1192.296875</ele>
        <time>2017-11-05T05:58:34Z</time>
      </trkpt>
      <trkpt lat="34.300296" lon="-117.34343">
        <ele>1192.398438</ele>
        <time>2017-11-05T05:58:55Z</time>
      </trkpt>
      <trkpt lat="34.300383" lon="-117.343399">
        <ele>1192.898438</ele>
        <time>2017-11-05T05:58:59Z</time>
      </trkpt>
      <trkpt lat="34.300384" lon="-117.343398">
        <ele>1189.597656</ele>
        <time>2017-11-05T05:59:21Z</time>
      </trkpt>
      <trkpt lat="34.30047" lon="-117.343362">
        <ele>1189.199219</ele>
        <time>2017-11-05T05:59:22Z</time>
      </trkpt>
      <trkpt lat="34.300476" lon="-117.343359">
        <ele>1184.500000</ele>
        <time>2017-11-05T05:59:58Z</time>
      </trkpt>
      <trkpt lat="34.300552" lon="-117.343316">
        <ele>1182.199219</ele>
        <time>2017-11-05T06:00:02Z</time>
      </trkpt>
      <trkpt lat="34.300556" lon="-117.343304">
        <ele>1179.097656</ele>
        <time>2017-11-05T06:00:18Z</time>
      </trkpt>
      <trkpt lat="34.300608" lon="-117.343229">
        <ele>1178.597656</ele>
        <time>2017-11-05T06:00:20Z</time>
      </trkpt>
      <trkpt lat="34.300707" lon="-117.343097">
        <ele>1176.796875</ele>
        <time>2017-11-05T06:00:36Z</time>
      </trkpt>
      <trkpt lat="34.30071" lon="-117.343091">
        <ele>1175.898438</ele>
        <time>2017-11-05T06:00:47Z</time>
      </trkpt>
      <trkpt lat="34.300768" lon="-117.343002">
        <ele>1175.699219</ele>
        <time>2017-11-05T06:00:48Z</time>
      </trkpt>
      <trkpt lat="34.300862" lon="-117.342875">
        <ele>1175.500000</ele>
        <time>2017-11-05T06:01:20Z</time>
      </trkpt>
      <trkpt lat="34.300873" lon="-117.342854">
        <ele>1177.699219</ele>
        <time>2017-11-05T06:01:24Z</time>
      </trkpt>
      <trkpt lat="34.300923" lon="-117.342769">
        <ele>1178.097656</ele>
        <time>2017-11-05T06:01:25Z</time>
      </trkpt>
      <trkpt lat="34.300987" lon="-117.342678">
        <ele>1178.597656</ele>
        <time>2017-11-05T06:01:29Z</time>
      </trkpt>
      <trkpt lat="34.301006" lon="-117.342657">
        <ele>1178.898438</ele>
        <time>2017-11-05T06:01:32Z</time>
      </trkpt>
      <trkpt lat="34.301109" lon="-117.342558">
        <ele>1178.296875</ele>
        <time>2017-11-05T06:01:36Z</time>
      </trkpt>
      <trkpt lat="34.301116" lon="-117.342546">
        <ele>1177.597656</ele>
        <time>2017-11-05T06:01:49Z</time>
      </trkpt>
      <trkpt lat="34.301108" lon="-117.342446">
        <ele>1177.500000</ele>
        <time>2017-11-05T06:01:51Z</time>
      </trkpt>
      <trkpt lat="34.301105" lon="-117.342431">
        <ele>1176.199219</ele>
        <time>2017-11-05T06:02:03Z</time>
      </trkpt>
      <trkpt lat="34.301071" lon="-117.342269">
        <ele>1174.898438</ele>
        <time>2017-11-05T06:02:11Z</time>
      </trkpt>
      <trkpt lat="34.301073" lon="-117.34226">
        <ele>1172.898438</ele>
        <time>2017-11-05T06:02:25Z</time>
      </trkpt>
      <trkpt lat="34.301081" lon="-117.342157">
        <ele>1172.796875</ele>
        <time>2017-11-05T06:02:26Z</time>
      </trkpt>
      <trkpt lat="34.301082" lon="-117.341959">
        <ele>1169.097656</ele>
        <time>2017-11-05T06:02:46Z</time>
      </trkpt>
      <trkpt lat="34.301084" lon="-117.34195">
        <ele>1166.199219</ele>
        <time>2017-11-05T06:03:01Z</time>
      </trkpt>
      <trkpt lat="34.301096" lon="-117.341802">
        <ele>1165.597656</ele>
        <time>2017-11-05T06:03:07Z</time>
      </trkpt>
      <trkpt lat="34.301096" lon="-117.341795">
        <ele>1164.898438</ele>
        <time>2017-11-05T06:03:21Z</time>
      </trkpt>
      <trkpt lat="34.301077" lon="-117.341694">
        <ele>1164.597656</ele>
        <time>2017-11-05T06:03:22Z</time>
      </trkpt>
      <trkpt lat="34.301074" lon="-117.341685">
        <ele>1161.199219</ele>
        <time>2017-11-05T06:03:37Z</time>
      </trkpt>
      <trkpt lat="34.30105" lon="-117.341586">
        <ele>1160.796875</ele>
        <time>2017-11-05T06:03:39Z</time>
      </trkpt>
      <trkpt lat="34.301045" lon="-117.341581">
        <ele>1158.796875</ele>
        <time>2017-11-05T06:03:51Z</time>
      </trkpt>
      <trkpt lat="34.300965" lon="-117.341529">
        <ele>1158.296875</ele>
        <time>2017-11-05T06:03:52Z</time>
      </trkpt>
      <trkpt lat="34.300954" lon="-117.341525">
        <ele>1155.398438</ele>
        <time>2017-11-05T06:03:58Z</time>
      </trkpt>
      <trkpt lat="34.300889" lon="-117.341467">
        <ele>1155.000000</ele>
        <time>2017-11-05T06:04:00Z</time>
      </trkpt>
      <trkpt lat="34.300889" lon="-117.341437">
        <ele>1154.296875</ele>
        <time>2017-11-05T06:04:05Z</time>
      </trkpt>
      <trkpt lat="34.300913" lon="-117.34135">
        <ele>1154.199219</ele>
        <time>2017-11-05T06:04:06Z</time>
      </trkpt>
      <trkpt lat="34.300915" lon="-117.341328">
        <ele>1154.097656</ele>
        <time>2017-11-05T06:04:10Z</time>
      </trkpt>
      <trkpt lat="34.300911" lon="-117.341239">
        <ele>1154.000000</ele>
        <time>2017-11-05T06:04:11Z</time>
      </trkpt>
      <trkpt lat="34.30091" lon="-117.341211">
        <ele>1153.597656</ele>
        <time>2017-11-05T06:04:14Z</time>
      </trkpt>
      <trkpt lat="34.300922" lon="-117.341128">
        <ele>1153.398438</ele>
        <time>2017-11-05T06:04:15Z</time>
      </trkpt>
      <trkpt lat="34.300977" lon="-117.341048">
        <ele>1149.500000</ele>
        <time>2017-11-05T06:06:23Z</time>
      </trkpt>
      <trkpt lat="34.300977" lon="-117.341048">
        <ele>1149.500000</ele>
        <time>2017-11-05T06:06:23Z</time>
      </trkpt>
    </trkseg>
    <trkseg>
      <trkpt lat="34.300984" lon="-117.341033">
        <ele>1147.796875</ele>
        <time>2017-11-05T06:09:27Z</time>
      </trkpt>
      <trkpt lat="34.301128" lon="-117.340978">
        <ele>1151.398438</ele>
        <time>2017-11-05T06:09:49Z</time>
      </trkpt>
      <trkpt lat="34.301134" lon="-117.340976">
        <ele>1151.597656</ele>
        <time>2017-11-05T06:10:10Z</time>
      </trkpt>
      <trkpt lat="34.301219" lon="-117.34096">
        <ele>1151.398438</ele>
        <time>2017-11-05T06:10:11Z</time>
      </trkpt>
      <trkpt lat="34.301225" lon="-117.340956">
        <ele>1148.000000</ele>
        <time>2017-11-05T06:10:22Z</time>
      </trkpt>
      <trkpt lat="34.301293" lon="-117.340895">
        <ele>1147.199219</ele>
        <time>2017-11-05T06:10:24Z</time>
      </trkpt>
      <trkpt lat="34.301296" lon="-117.340881">
        <ele>1143.500000</ele>
        <time>2017-11-05T06:10:39Z</time>
      </trkpt>
      <trkpt lat="34.30134" lon="-117.340798">
        <ele>1142.796875</ele>
        <time>2017-11-05T06:10:41Z</time>
      </trkpt>
      <trkpt lat="34.301353" lon="-117.340786">
        <ele>1140.000000</ele>
        <time>2017-11-05T06:10:48Z</time>
      </trkpt>
      <trkpt lat="34.301411" lon="-117.340732">
        <ele>1139.398438</ele>
        <time>2017-11-05T06:10:50Z</time>
      </trkpt>
      <trkpt lat="34.301432" lon="-117.340721">
        <ele>1136.898438</ele>
        <time>2017-11-05T06:10:59Z</time>
      </trkpt>
      <trkpt lat="34.301496" lon="-117.340688">
        <ele>1136.296875</ele>
        <time>2017-11-05T06:11:03Z</time>
      </trkpt>
      <trkpt lat="34.301513" lon="-117.340673">
        <ele>1133.699219</ele>
        <time>2017-11-05T06:11:13Z</time>
      </trkpt>
      <trkpt lat="34.301581" lon="-117.340634">
        <ele>1133.500000</ele>
        <time>2017-11-05T06:11:15Z</time>
      </trkpt>
      <trkpt lat="34.301596" lon="-117.34062">
        <ele>1131.898438</ele>
        <time>2017-11-05T06:11:23Z</time>
      </trkpt>
      <trkpt lat="34.301651" lon="-117.340552">
        <ele>1131.597656</ele>
        <time>2017-11-05T06:11:25Z</time>
      </trkpt>
      <trkpt lat="34.301666" lon="-117.340536">
        <ele>1130.597656</ele>
        <time>2017-11-05T06:11:32Z</time>
      </trkpt>
      <trkpt lat="34.301709" lon="-117.340468">
        <ele>1130.000000</ele>
        <time>2017-11-05T06:11:35Z</time>
      </trkpt>
      <trkpt lat="34.301713" lon="-117.340438">
        <ele>1128.296875</ele>
        <time>2017-11-05T06:11:50Z</time>
      </trkpt>
      <trkpt lat="34.301709" lon="-117.340354">
        <ele>1127.398438</ele>
        <time>2017-11-05T06:11:53Z</time>
      </trkpt>
      <trkpt lat="34.301702" lon="-117.340325">
        <ele>1125.699219</ele>
        <time>2017-11-05T06:12:00Z</time>
      </trkpt>
      <trkpt lat="34.301697" lon="-117.340244">
        <ele>1124.500000</ele>
        <time>2017-11-05T06:12:06Z</time>
      </trkpt>
      <trkpt lat="34.301705" lon="-117.34021">
        <ele>1122.898438</ele>
        <time>2017-11-05T06:12:18Z</time>
      </trkpt>
      <trkpt lat="34.301724" lon="-117.340136">
        <ele>1122.699219</ele>
        <time>2017-11-05T06:12:22Z</time>
      </trkpt>
      <trkpt lat="34.301734" lon="-117.340106">
        <ele>1120.796875</ele>
        <time>2017-11-05T06:12:32Z</time>
      </trkpt>
      <trkpt lat="34.301793" lon="-117.340055">
        <ele>1119.597656</ele>
        <time>2017-11-05T06:12:35Z</time>
      </trkpt>
      <trkpt lat="34.301814" lon="-117.340044">
        <ele>1116.500000</ele>
        <time>2017-11-05T06:12:45Z</time>
      </trkpt>
      <trkpt lat="34.30195" lon="-117.339989">
        <ele>1113.199219</ele>
        <time>2017-11-05T06:12:54Z</time>
      </trkpt>
      <trkpt lat="34.301959" lon="-117.339981">
        <ele>1111.398438</ele>
        <time>2017-11-05T06:13:00Z</time>
      </trkpt>
      <trkpt lat="34.302027" lon="-117.339911">
        <ele>1111.097656</ele>
        <time>2017-11-05T06:13:01Z</time>
      </trkpt>
      <trkpt lat="34.302039" lon="-117.339899">
        <ele>1109.597656</ele>
        <time>2017-11-05T06:13:06Z</time>
      </trkpt>
      <trkpt lat="34.302079" lon="-117.339822">
        <ele>1109.796875</ele>
        <time>2017-11-05T06:13:08Z</time>
      </trkpt>
      <trkpt lat="34.302088" lon="-117.339795">
        <ele>1109.199219</ele>
        <time>2017-11-05T06:13:14Z</time>
      </trkpt>
      <trkpt lat="34.30211" lon="-117.339672">
        <ele>1109.000000</ele>
        <time>2017-11-05T06:13:16Z</time>
      </trkpt>
      <trkpt lat="34.302113" lon="-117.339654">
        <ele>1109.296875</ele>
        <time>2017-11-05T06:13:27Z</time>
      </trkpt>
      <trkpt lat="34.302127" lon="-117.339512">
        <ele>1109.199219</ele>
        <time>2017-11-05T06:13:29Z</time>
      </trkpt>
      <trkpt lat="34.302128" lon="-117.339468">
        <ele>1108.597656</ele>
        <time>2017-11-05T06:13:31Z</time>
      </trkpt>
      <trkpt lat="34.302121" lon="-117.339371">
        <ele>1108.296875</ele>
        <time>2017-11-05T06:13:32Z</time>
      </trkpt>
      <trkpt lat="34.302111" lon="-117.339319">
        <ele>1107.796875</ele>
        <time>2017-11-05T06:13:34Z</time>
      </trkpt>
      <trkpt lat="34.302084" lon="-117.339212">
        <ele>1107.597656</ele>
        <time>2017-11-05T06:13:35Z</time>
      </trkpt>
      <trkpt lat="34.302066" lon="-117.339159">
        <ele>1107.699219</ele>
        <time>2017-11-05T06:13:36Z</time>
      </trkpt>
      <trkpt lat="34.302023" lon="-117.339057">
        <ele>1107.000000</ele>
        <time>2017-11-05T06:13:38Z</time>
      </trkpt>
      <trkpt lat="34.30189" lon="-117.338805">
        <ele>1104.398438</ele>
        <time>2017-11-05T06:13:43Z</time>
      </trkpt>
      <trkpt lat="34.301856" lon="-117.338751">
        <ele>1103.597656</ele>
        <time>2017-11-05T06:13:44Z</time>
      </trkpt>
      <trkpt lat="34.301818" lon="-117.3387">
        <ele>1102.898438</ele>
        <time>2017-11-05T06:13:45Z</time>
      </trkpt>
      <trkpt lat="34.301776" lon="-117.338655">
        <ele>1102.199219</ele>
        <time>2017-11-05T06:13:46Z</time>
      </trkpt>
      <trkpt lat="34.301728" lon="-117.338614">
        <ele>1101.597656</ele>
        <time>2017-11-05T06:13:47Z</time>
      </trkpt>
      <trkpt lat="34.301673" lon="-117.338577">
        <ele>1100.699219</ele>
        <time>2017-11-05T06:13:48Z</time>
      </trkpt>
      <trkpt lat="34.301612" lon="-117.338548">
        <ele>1099.898438</ele>
        <time>2017-11-05T06:13:49Z</time>
      </trkpt>
      <trkpt lat="34.301545" lon="-117.338527">
        <ele>1099.097656</ele>
        <time>2017-11-05T06:13:50Z</time>
      </trkpt>
      <trkpt lat="34.301475" lon="-117.338515">
        <ele>1098.296875</ele>
        <time>2017-11-05T06:13:51Z</time>
      </trkpt>
      <trkpt lat="34.301266" lon="-117.338496">
        <ele>1096.398438</ele>
        <time>2017-11-05T06:13:54Z</time>
      </trkpt>
      <trkpt lat="34.301085" lon="-117.338497">
        <ele>1093.796875</ele>
        <time>2017-11-05T06:13:57Z</time>
      </trkpt>
      <trkpt lat="34.300762" lon="-117.338529">
        <ele>1088.898438</ele>
        <time>2017-11-05T06:14:03Z</time>
      </trkpt>
      <trkpt lat="34.300705" lon="-117.338523">
        <ele>1088.199219</ele>
        <time>2017-11-05T06:14:04Z</time>
      </trkpt>
      <trkpt lat="34.300648" lon="-117.338507">
        <ele>1087.898438</ele>
        <time>2017-11-05T06:14:05Z</time>
      </trkpt>
      <trkpt lat="34.300592" lon="-117.33848">
        <ele>1087.500000</ele>
        <time>2017-11-05T06:14:06Z</time>
      </trkpt>
      <trkpt lat="34.30054" lon="-117.338439">
        <ele>1087.296875</ele>
        <time>2017-11-05T06:14:07Z</time>
      </trkpt>
      <trkpt lat="34.300498" lon="-117.338386">
        <ele>1086.898438</ele>
        <time>2017-11-05T06:14:08Z</time>
      </trkpt>
      <trkpt lat="34.300468" lon="-117.338327">
        <ele>1086.699219</ele>
        <time>2017-11-05T06:14:09Z</time>
      </trkpt>
      <trkpt lat="34.300447" lon="-117.338257">
        <ele>1086.097656</ele>
        <time>2017-11-05T06:14:10Z</time>
      </trkpt>
      <trkpt lat="34.300438" lon="-117.338192">
        <ele>1085.500000</ele>
        <time>2017-11-05T06:14:11Z</time>
      </trkpt>
      <trkpt lat="34.300404" lon="-117.337867">
        <ele>1084.796875</ele>
        <time>2017-11-05T06:14:16Z</time>
      </trkpt>
      <trkpt lat="34.300403" lon="-117.337734">
        <ele>1082.000000</ele>
        <time>2017-11-05T06:14:18Z</time>
      </trkpt>
      <trkpt lat="34.300434" lon="-117.337376">
        <ele>1076.097656</ele>
        <time>2017-11-05T06:14:24Z</time>
      </trkpt>
      <trkpt lat="34.300466" lon="-117.337116">
        <ele>1073.699219</ele>
        <time>2017-11-05T06:14:29Z</time>
      </trkpt>
      <trkpt lat="34.300474" lon="-117.337072">
        <ele>1073.097656</ele>
        <time>2017-11-05T06:14:32Z</time>
      </trkpt>
      <trkpt lat="34.3005" lon="-117.336998">
        <ele>1072.500000</ele>
        <time>2017-11-05T06:14:34Z</time>
      </trkpt>
      <trkpt lat="34.300537" lon="-117.336963">
        <ele>1072.199219</ele>
        <time>2017-11-05T06:14:36Z</time>
      </trkpt>
      <trkpt lat="34.300617" lon="-117.336941">
        <ele>1072.398438</ele>
        <time>2017-11-05T06:14:37Z</time>
      </trkpt>
      <trkpt lat="34.300671" lon="-117.336939">
        <ele>1072.199219</ele>
        <time>2017-11-05T06:14:38Z</time>
      </trkpt>
      <trkpt lat="34.300733" lon="-117.336945">
        <ele>1072.000000</ele>
        <time>2017-11-05T06:14:39Z</time>
      </trkpt>
      <trkpt lat="34.300803" lon="-117.336959">
        <ele>1071.699219</ele>
        <time>2017-11-05T06:14:40Z</time>
      </trkpt>
      <trkpt lat="34.300956" lon="-117.336999">
        <ele>1071.199219</ele>
        <time>2017-11-05T06:14:41Z</time>
      </trkpt>
      <trkpt lat="34.300956" lon="-117.336999">
        <ele>1071.199219</ele>
        <time>2017-11-05T06:14:41Z</time>
      </trkpt>
    </trkseg>
    <trkseg>
      <trkpt lat="34.301412" lon="-117.337008">
        <ele>1068.898438</ele>
        <time>2017-11-05T06:14:48Z</time>
      </trkpt>
      <trkpt lat="34.301535" lon="-117.337002">
        <ele>1067.796875</ele>
        <time>2017-11-05T06:14:52Z</time>
      </trkpt>
      <trkpt lat="34.301568" lon="-117.337014">
        <ele>1067.199219</ele>
        <time>2017-11-05T06:14:55Z</time>
      </trkpt>
      <trkpt lat="34.301612" lon="-117.33708">
        <ele>1065.199219</ele>
        <time>2017-11-05T06:15:21Z</time>
      </trkpt>
      <trkpt lat="34.301612" lon="-117.337097">
        <ele>1063.898438</ele>
        <time>2017-11-05T06:16:46Z</time>
      </trkpt>
      <trkpt lat="34.301612" lon="-117.337097">
        <ele>1063.898438</ele>
        <time>2017-11-05T06:16:46Z</time>
      </trkpt>
    </trkseg>
</trk>

  <wpt lat="34.304031" lon="-117.431332">
    <time>2017-11-05T02:40:29Z</time>
    <name>Steep Climb1</name>
    <ele>1390</ele>
    <sym>STEEP_CLIMB</sym>
    <cmt></cmt>
    <desc></desc>
    <type>Waypoint</type>
    <extensions>
      <mgn:extensions xmlns:mgn="http://www.magellangps.com/mgnext/0/2">
        <mgn:trkptid>34.304287,-117.431493,32</mgn:trkptid>
        <mgn:uuid>4b5e542d-b4da-4b73-a2d4-00f16abba7ce</mgn:uuid>
        <mgn:trkuuid>e1d96b6f-8f7e-4bfc-8eda-60bad058a636</mgn:trkuuid>
      </mgn:extensions>
    </extensions>
  </wpt>

  <wpt lat="34.301729" lon="-117.432969">
    <time>2017-11-05T02:44:28Z</time>
    <name>Steep Climb2</name>
    <ele>1428</ele>
    <sym>STEEP_CLIMB</sym>
    <cmt></cmt>
    <desc></desc>
    <type>Waypoint</type>
    <extensions>
      <mgn:extensions xmlns:mgn="http://www.magellangps.com/mgnext/0/2">
        <mgn:trkptid>34.301785,-117.432973,6</mgn:trkptid>
        <mgn:uuid>54a9fdd8-1d36-4142-aab1-fd61c9ac00be</mgn:uuid>
        <mgn:trkuuid>e1d96b6f-8f7e-4bfc-8eda-60bad058a636</mgn:trkuuid>
      </mgn:extensions>
    </extensions>
  </wpt>

  <wpt lat="34.295876" lon="-117.420178">
    <time>2017-11-05T02:59:25Z</time>
    <name>Steep Climb3</name>
    <ele>1570</ele>
    <sym>STEEP_CLIMB</sym>
    <cmt></cmt>
    <desc></desc>
    <type>Waypoint</type>
    <extensions>
      <mgn:extensions xmlns:mgn="http://www.magellangps.com/mgnext/0/2">
        <mgn:trkptid>34.295836,-117.420285,10</mgn:trkptid>
        <mgn:uuid>406bacd8-dc40-42f3-b43c-2490890f8be5</mgn:uuid>
        <mgn:trkuuid>e1d96b6f-8f7e-4bfc-8eda-60bad058a636</mgn:trkuuid>
      </mgn:extensions>
    </extensions>
  </wpt>

  <wpt lat="34.294511" lon="-117.415991">
    <time>2017-11-05T03:12:40Z</time>
    <name>Steep Climb4</name>
    <ele>1591</ele>
    <sym>STEEP_CLIMB</sym>
    <cmt></cmt>
    <desc></desc>
    <type>Waypoint</type>
    <extensions>
      <mgn:extensions xmlns:mgn="http://www.magellangps.com/mgnext/0/2">
        <mgn:trkptid>34.294521,-117.41609,9</mgn:trkptid>
        <mgn:uuid>e971ad8b-e546-496f-bf6f-c60f37a28196</mgn:uuid>
        <mgn:trkuuid>e1d96b6f-8f7e-4bfc-8eda-60bad058a636</mgn:trkuuid>
      </mgn:extensions>
    </extensions>
  </wpt>

  <wpt lat="34.291413" lon="-117.407783">
    <time>2017-11-05T03:21:14Z</time>
    <name>Steep Climb5</name>
    <ele>1570</ele>
    <sym>STEEP_CLIMB</sym>
    <cmt></cmt>
    <desc></desc>
    <type>Waypoint</type>
    <extensions>
      <mgn:extensions xmlns:mgn="http://www.magellangps.com/mgnext/0/2">
        <mgn:trkptid>34.29139,-117.40789,10</mgn:trkptid>
        <mgn:uuid>840a3e53-6189-4876-9cd8-1a561d7d1cec</mgn:uuid>
        <mgn:trkuuid>e1d96b6f-8f7e-4bfc-8eda-60bad058a636</mgn:trkuuid>
      </mgn:extensions>
    </extensions>
  </wpt>

  <wpt lat="34.291728" lon="-117.40565">
    <time>2017-11-05T03:24:08Z</time>
    <name>Steep Climb6</name>
    <ele>1588</ele>
    <sym>STEEP_CLIMB</sym>
    <cmt></cmt>
    <desc></desc>
    <type>Waypoint</type>
    <extensions>
      <mgn:extensions xmlns:mgn="http://www.magellangps.com/mgnext/0/2">
        <mgn:trkptid>34.291678,-117.405705,7</mgn:trkptid>
        <mgn:uuid>8a242197-df92-4498-b1c9-3cb67cad0f7d</mgn:uuid>
        <mgn:trkuuid>e1d96b6f-8f7e-4bfc-8eda-60bad058a636</mgn:trkuuid>
      </mgn:extensions>
    </extensions>
  </wpt>

  <wpt lat="34.290293" lon="-117.396598">
    <time>2017-11-05T03:36:53Z</time>
    <name>Steep Drop1</name>
    <ele>1596</ele>
    <sym>STEEP_DROP</sym>
    <cmt></cmt>
    <desc></desc>
    <type>Waypoint</type>
    <extensions>
      <mgn:extensions xmlns:mgn="http://www.magellangps.com/mgnext/0/2">
        <mgn:trkptid>34.29029,-117.396623,2</mgn:trkptid>
        <mgn:uuid>bdc497ca-0aed-4eec-a84f-3b7618470cb6</mgn:uuid>
        <mgn:trkuuid>e1d96b6f-8f7e-4bfc-8eda-60bad058a636</mgn:trkuuid>
      </mgn:extensions>
    </extensions>
  </wpt>

  <wpt lat="34.293042" lon="-117.382113">
    <time>2017-11-05T04:32:26Z</time>
    <name>Steep Climb7</name>
    <ele>1377</ele>
    <sym>STEEP_CLIMB</sym>
    <cmt></cmt>
    <desc></desc>
    <type>Waypoint</type>
    <extensions>
      <mgn:extensions xmlns:mgn="http://www.magellangps.com/mgnext/0/2">
        <mgn:trkptid>34.292747,-117.382259,35</mgn:trkptid>
        <mgn:uuid>cbe78636-53e5-4a07-a121-853e54b6cbb9</mgn:uuid>
        <mgn:trkuuid>e1d96b6f-8f7e-4bfc-8eda-60bad058a636</mgn:trkuuid>
      </mgn:extensions>
    </extensions>
  </wpt>

  <wpt lat="34.296385" lon="-117.371752">
    <time>2017-11-05T04:52:07Z</time>
    <name>Steep Climb8</name>
    <ele>1291</ele>
    <sym>STEEP_CLIMB</sym>
    <cmt></cmt>
    <desc></desc>
    <type>Waypoint</type>
    <extensions>
      <mgn:extensions xmlns:mgn="http://www.magellangps.com/mgnext/0/2">
        <mgn:trkptid>34.296389,-117.371758,0</mgn:trkptid>
        <mgn:uuid>f02c97b9-57c3-4d14-bea3-46ab208e34e0</mgn:uuid>
        <mgn:trkuuid>e1d96b6f-8f7e-4bfc-8eda-60bad058a636</mgn:trkuuid>
      </mgn:extensions>
    </extensions>
  </wpt>

  <wpt lat="34.296783" lon="-117.366717">
    <time>2017-11-05T05:08:25Z</time>
    <name>Steep Climb9</name>
    <ele>1293</ele>
    <sym>STEEP_CLIMB</sym>
    <cmt></cmt>
    <desc></desc>
    <type>Waypoint</type>
    <extensions>
      <mgn:extensions xmlns:mgn="http://www.magellangps.com/mgnext/0/2">
        <mgn:trkptid>34.29681,-117.366872,14</mgn:trkptid>
        <mgn:uuid>5406609b-48fa-48d1-8c38-15a88568b9bc</mgn:uuid>
        <mgn:trkuuid>e1d96b6f-8f7e-4bfc-8eda-60bad058a636</mgn:trkuuid>
      </mgn:extensions>
    </extensions>
  </wpt>

  <wpt lat="34.296816" lon="-117.364575">
    <time>2017-11-05T05:11:39Z</time>
    <name>Steep Drop2</name>
    <ele>1274</ele>
    <sym>STEEP_DROP</sym>
    <cmt></cmt>
    <desc></desc>
    <type>Waypoint</type>
    <extensions>
      <mgn:extensions xmlns:mgn="http://www.magellangps.com/mgnext/0/2">
        <mgn:trkptid>34.296852,-117.36466,8</mgn:trkptid>
        <mgn:uuid>23d9b14a-19a6-4927-8b7f-2983440ee407</mgn:uuid>
        <mgn:trkuuid>e1d96b6f-8f7e-4bfc-8eda-60bad058a636</mgn:trkuuid>
      </mgn:extensions>
    </extensions>
  </wpt>

  <wpt lat="34.296997" lon="-117.362821">
    <time>2017-11-05T05:14:32Z</time>
    <name>Steep Climb10</name>
    <ele>1262</ele>
    <sym>STEEP_CLIMB</sym>
    <cmt></cmt>
    <desc></desc>
    <type>Waypoint</type>
    <extensions>
      <mgn:extensions xmlns:mgn="http://www.magellangps.com/mgnext/0/2">
        <mgn:trkptid>34.297026,-117.362937,11</mgn:trkptid>
        <mgn:uuid>e1602ca2-0d3e-440a-8e78-7cd2f67c149e</mgn:uuid>
        <mgn:trkuuid>e1d96b6f-8f7e-4bfc-8eda-60bad058a636</mgn:trkuuid>
      </mgn:extensions>
    </extensions>
  </wpt>

  <wpt lat="34.301701" lon="-117.340223">
    <time>2017-11-05T06:12:16Z</time>
    <name>Steep Drop3</name>
    <ele>1125</ele>
    <sym>STEEP_DROP</sym>
    <cmt></cmt>
    <desc></desc>
    <type>Waypoint</type>
    <extensions>
      <mgn:extensions xmlns:mgn="http://www.magellangps.com/mgnext/0/2">
        <mgn:trkptid>34.301702,-117.340325,9</mgn:trkptid>
        <mgn:uuid>aed13d7a-492d-40ec-b784-1db2fe637962</mgn:uuid>
        <mgn:trkuuid>e1d96b6f-8f7e-4bfc-8eda-60bad058a636</mgn:trkuuid>
      </mgn:extensions>
    </extensions>
  </wpt>
</gpx>